[[{"header":{"parameterUnit":"m.s-1","parameterCategory":1,"la1":30.6,"la2":29.2853,"lo1":-89.7004,"lo2":-87.6739,"dx":0.0162,"dy":0.0183,"nx":112,"ny":82,"refTime":"2023-01-27T06:00:00:Z","depth":0,"parameterNumber":2,"parameterNumberName":"U-component_of_WINDS"},"data":[0.0,0.0,0.0,0.0,0.0,0.0,0.0,0.0,0.0,0.0,0.0,0.0,0.0,0.0,0.0,0.0,0.0,0.0,0.0,0.0,0.0,0.0,0.0,0.0,0.0,0.0,0.0,0.0,0.0,0.0,0.0,0.0,0.0,0.0,0.0,0.0,0.0,0.0,0.0,0.0,0.0,0.0,0.0,0.0,0.0,0.0,0.0,0.0,0.0,0.0,0.0,0.0,0.0,0.0,0.0,0.0,0.0,0.0,0.0,0.0,0.0,0.0,0.0,0.0,0.0,0.0,0.0,0.0,0.0,0.0,0.0,0.0,0.0,0.0,0.0,0.0,0.0,0.0,0.0,0.0,0.0,0.0,0.0,0.0,0.0,0.0,0.0,0.0,0.0,0.0,0.0,0.0748,0.0229,0.0,0.0,0.0775,0.1427,0.1772,0.0,0.0,0.0,0.0,0.0,0.0,0.0,0.0,0.0,0.0,0.0,0.0,0.0,0.0,0.0,0.0,0.0,0.0,0.0,0.0,0.0,0.0,0.0,0.0,0.0,0.0,0.0,0.0,0.0,0.0,0.0,0.0,0.0,0.0,0.0,0.0,0.0,0.0,0.0,0.0,0.0,0.0,0.0,0.0,0.0,0.0,0.0,0.0,0.0,0.0,0.0,0.0,0.0,0.0,0.0,0.0,0.0,0.0,0.0,0.0,0.0,0.0,0.0,0.0,0.0,0.0,0.0,0.0,0.0,0.0,0.0,0.0,0.0,0.0,0.0,0.0,0.0,0.0,0.0,0.0,0.0,0.0,0.0,0.0,0.0,0.0,0.0,0.0,0.0,0.0,0.0,0.0,0.0,0.0,0.0,0.0,0.0,0.0,0.0,0.0,0.0,0.0,0.0,0.0,0.1734,0.0267,0.0053,0.0,0.0,0.1263,0.1963,0.1819,0.0,0.0,0.0,0.0,0.0,0.0,0.0,0.0,0.0,0.0,0.0,0.0,0.0,0.0,0.0,0.0,0.0,0.0,0.0,0.0,0.0,0.0,0.0,0.0,0.0,0.0,0.0,0.0,0.0,0.0,0.0,0.0,0.0,0.0,0.0,0.0,0.0,0.0,0.0,0.0,0.0,0.0,0.0,0.0,0.0,0.0,0.0,0.0,0.0,0.0,0.0,0.0,0.0,0.0,0.0,0.0,0.0,0.0,0.0,0.0,0.0,0.0,0.0,0.0,0.0,0.0,0.0,0.0,0.0,0.0,0.0,0.0,0.0,0.0,0.0,0.0,0.0,0.0,0.0,0.0,0.0,0.0,0.0,0.0,0.0,0.0,0.0,0.0,0.0,0.0,0.0,0.0,0.0,0.0,0.0,0.0,0.0,0.0,0.0,0.0,0.0,0.0,0.0,0.1596,0.0752,0.0077,0.0,0.0,0.0,0.1341,0.2104,0.1924,0.322,0.0,0.0,0.0,0.0,0.0,0.0,0.0,0.0,0.0,0.0,0.0,0.0,0.0,0.0,0.0,0.0,0.0,0.0,0.0,0.0,0.0,0.0,0.0,0.0,0.0,0.0,0.0,0.0,0.0,0.0,0.0,0.0,0.0,0.0,0.0,0.0,0.0,0.0,0.0,0.0,0.0,0.0,0.0,0.0,0.0,0.0,0.0,0.0,0.0,0.0,0.0,0.0,0.0,0.0,0.0,0.0,0.0,0.0,0.0,0.0,0.0,0.0,0.0,0.0,0.0,0.0,0.0,0.0,0.0,0.0,0.0,0.0,0.0,0.0,0.0,0.0,0.0,0.0,0.0,0.0,0.0,0.0,0.0,0.0,0.0,0.0,0.0,0.0,0.0,0.0,0.0,0.0,0.0,0.0,0.0,0.0,0.0,0.0,0.0,0.0,0.0,0.0,0.0371,0.0,0.0,0.0,0.0084,0.0252,0.1404,0.2137,0.2259,0.3927,0.0,0.0,0.0,0.0,0.0,0.0,0.0,0.0,0.0,0.0,0.0,0.0,0.0,0.0,0.0,0.0,0.0,0.0,0.0,0.0,0.0,0.0,0.0,0.0,0.0,0.0,0.0,0.0,0.0,0.0,0.0,0.0,0.0,0.0,0.0,0.0,0.0,0.0,0.0,0.0,0.0,0.0,0.0,0.0,0.0,0.0,0.0,0.0,0.0,0.0,0.0,0.0,0.0,0.0,0.0,0.0,0.0,0.0,0.0,0.0,0.0,0.0,0.0,0.0,0.0,0.0,0.0,0.0,0.0,0.0,0.0,0.0,0.0,0.0,0.0,0.0,0.0,0.0,0.0,0.0,0.0,0.0,0.0,0.0,0.0,0.0,0.0,0.0,0.0,0.0,0.0,0.0,0.0,0.0,0.0,0.0,0.0,0.0,0.0,0.0,0.0,0.0,0.0377,0.0,0.0,0.0,0.028,0.0978,0.1528,0.2183,0.2966,0.4199,0.0,0.0,0.0,0.0,0.0,0.0,0.0,0.0,0.0,0.0,0.0,0.0,0.0,0.0,0.0,0.0,0.0,0.0,0.0,0.0,0.0,0.0,0.0,0.0,0.0,0.0,0.0,0.0,0.0,0.0,0.0,0.0,0.0,0.0,0.0,0.0,0.0,0.0,0.0,0.0,0.0,0.0,0.0,0.0,0.0,0.0,0.0,0.0,0.0,0.0,0.0,0.0,0.0,0.0,0.0,0.0,0.0,0.0,0.0,0.0,0.0,0.0,0.0,0.0,0.0,0.0,0.0,0.0,0.0,0.0,0.0,0.0,0.0,0.0,0.0,0.0,0.0,0.0,0.0,0.0,0.0,0.0,0.0,0.0,0.0,0.0,0.0,0.0,0.0,0.0,0.0,0.0,0.0,0.0,0.0,0.0,0.0,0.0,0.0,0.0,0.0,0.0,0.0145,0.0,0.0,0.0,0.0271,0.0922,0.156,0.225,0.305,0.0,0.0,0.0,0.0,0.0,0.0,0.0,0.0,0.0,0.0,0.0,0.0,0.0,0.0,0.0,0.0,0.0,0.0,0.0,0.0,0.0,0.0,0.0,0.0,0.0,0.0,0.0,0.0,0.0,0.0,0.0,0.0,0.0,0.0,0.0,0.0,0.0,0.0,0.0,0.0,0.0,0.0,0.0,0.0,0.0,0.0,0.0,0.0,0.0,0.0,0.0,0.0,0.0,0.0,0.0,0.0,0.0,0.0,0.0,0.0,0.0,0.0,0.0,0.0,0.0,0.0,0.0,0.0,0.0,0.0,0.0,0.0,0.0,0.0,0.0,0.0,0.0,0.0,0.0,0.0,0.0,0.0,0.0,0.0,0.0,0.0,0.0,0.0,0.0,0.0,0.0,0.0,0.0,0.0,0.0,0.0,0.0,0.0,0.0,0.0,0.0,0.0,0.0174,0.0,0.0,0.0,0.0213,0.0585,0.1197,0.1847,0.2665,0.3728,0.0,0.0,0.0,0.0,0.0,0.0,0.0,0.0,0.0,0.0,0.0,0.0,0.0,0.0,0.0,0.0,0.0,0.0,0.0,0.0,0.0,0.0,0.0,0.0,0.0,0.0,0.0,0.0,0.0,0.0,0.0,0.0,0.0,0.0,0.0,0.0,0.0,0.0,0.0,0.0,0.0,0.0,0.0,0.0,0.0,0.0,0.0,0.0,0.0,0.0,0.0,0.0,0.0,0.0,0.0,0.0,0.0,0.0,0.0,0.0,0.0,0.0,0.0,0.0,0.0,0.0,0.0,0.0,0.0,0.0,0.0,0.0,0.0,0.0,0.0,0.0,0.0,0.0,0.0,0.0,0.0,0.0,0.0,0.0,0.0,0.0,0.0,0.0,0.0,0.0,0.0,0.0,0.0,0.0,0.0,0.0,0.0,0.0,0.0,0.0,0.0,0.0,0.0075,0.0,0.0,0.0,0.0664,0.1353,0.1937,0.243,0.3447,0.0,0.0,0.0,0.0,0.0,0.0,0.0,0.0,0.0,0.0,0.0,0.0,0.0,0.0,0.0,0.0,0.0,0.0,0.0,0.0,0.0,0.0,0.0,0.0,0.0,0.0,0.0,0.0,0.0,0.0,0.0,0.0,0.0,0.0,0.0,0.0,0.0,0.0,0.0,0.0,0.0,0.0,0.0,0.0,0.0,0.0,0.0,0.0,0.0,0.0,0.0,0.0,0.0,0.0,0.0,0.0,0.0,0.0,0.0,0.0,0.0,0.0,0.0,0.0,0.0,0.0,0.0,0.0,0.0,0.0,0.0,0.0,0.0,0.0,0.0,0.0,0.0,0.0,0.0,0.0,0.0,0.0,0.0,0.0,0.0,0.0,0.0,0.0,0.0,0.0,0.0,0.0,0.0,0.0,0.0,0.0,0.0,0.0,0.0,0.0,0.0,0.0,0.0,-0.0626,-0.0314,0.0,0.0,0.067,0.1299,0.1825,0.2464,0.3507,0.5069,0.0,0.0,0.0,0.0,0.0,0.0,0.0,0.0,0.0,0.0,0.0,0.0,0.0,0.0,0.0,0.0,0.0,0.0,0.0,0.0,0.0,0.0,0.0,0.0,0.0,0.0,0.0,0.0,0.0,0.0,0.0,0.0,0.0,0.0,0.0,0.0,0.0,0.0,0.0,0.0,0.0,0.0,0.0,0.0,0.0,0.0,0.0,0.0,0.0,0.0,0.0,0.0,0.0,0.0,0.0,0.0,0.0,0.0,0.0,0.0,0.0,0.0,0.0,0.0,0.0,0.0,0.0,0.0,0.0,0.0,0.0,0.0,0.0,0.0,0.0,0.0,0.0,0.0,0.0,0.0,0.0,0.0,0.0,0.0,0.0,0.0,0.0,0.0,0.0,0.0,0.0,0.0,0.0,0.0,0.0,0.0,0.0,0.0,0.0,0.0,0.0,0.0,-0.1025,-0.0665,-0.0266,-0.0025,0.0932,0.1606,0.1782,0.2751,0.3908,0.5266,0.0,0.0,0.0,0.0,0.0,0.0,0.0,0.0,0.0,0.0,0.0,0.0,0.0,0.0,0.0,0.0,0.0,0.0,0.0,0.0,0.0,0.0,0.0,0.0,0.0,0.0,0.0,0.0,0.0,0.0,0.0,0.0,0.0,0.0,0.0,0.0,0.0,0.0,0.0,0.0,0.0,0.0,0.0,0.0,0.0,0.0,0.0,0.0,0.0,0.0,0.0,0.0,0.0,0.0,0.0,0.0,0.0,0.0,0.0,0.0,0.0,0.0,0.0,0.0,0.0,0.0,0.0,0.0,0.0,0.0,0.0,0.0,0.0,0.0,0.0,0.0,0.0,0.0,0.0,0.0,0.0,0.0,0.0,0.0,0.0,0.0,0.0,0.0,0.0,0.0,0.0,0.0,0.0,0.0,0.0,0.0,0.0,0.0,0.0,0.0,0.0,0.0,-0.1268,-0.1025,-0.0664,-0.0053,0.1328,0.2095,0.1841,0.3166,0.4492,0.5654,0.0,0.0,0.0,0.0,0.0,0.0,0.0,0.0,0.0,0.0,0.0,0.0,0.0,0.0,0.0,0.0,0.0,0.0,0.0,0.0,0.0,0.0,0.0,0.0,0.0,0.0,0.0,0.0,0.0,0.0,0.0,0.0,0.0,0.0,0.0,0.0,0.0,0.0,0.0,0.0,0.0,0.0,0.0,0.0,0.0,0.0,0.0,0.0,0.0,0.0,0.0,0.0,0.0,0.0,0.0,0.0,0.0,0.0,0.0,0.0,0.3803,0.0,0.0,0.0,0.0,0.0,0.0,0.0,0.0,0.0,0.0,0.0,0.0,0.0,0.0,0.0,0.0,0.0,0.0,0.0,0.0,0.0,0.0,0.0,0.0,0.0,0.0,0.0,0.0,0.0,0.0,0.0,0.0,0.0,0.0,0.0,0.0,0.0,0.0,0.0,0.0,0.0,-0.1978,-0.1354,-0.0678,-0.0077,0.1312,0.2127,0.1974,0.3216,0.4542,0.5861,0.0,0.0,0.0,0.0,0.0,0.0,0.0,0.0,0.0,0.0,0.0,0.0,0.0,0.0,0.0,0.0,0.0,0.0,0.0,0.0,0.0,0.0,0.0,0.0,0.0,0.0,0.0,0.0,0.0,0.0,0.0,0.0,0.0,0.0,0.0,0.0,0.0,0.0,0.0,0.0,0.0,0.0,0.0,0.0,0.0,0.0,0.0,0.0,0.0,0.0,0.0,0.0,0.0,0.0,0.0,0.0,0.0,0.0,0.0,0.0,0.0,0.3529,0.0,0.0,0.0,0.0,0.0,0.0,0.0,0.0,0.0,0.0,0.0,0.0,0.0,0.0,0.0,0.0,0.0,0.0,0.0,0.0,0.0,0.0,0.0,0.0,0.0,0.0,0.0,0.0,0.0,0.0,0.0,0.0,0.0,0.0,0.0,0.0,0.0,0.0,0.0,0.0,-0.281,-0.1979,-0.1198,-0.0583,0.112,0.2158,0.2023,0.3277,0.4646,0.5912,0.6195,0.0,0.0,0.0,0.0,0.0,0.0,0.0,0.0,0.0,0.0,0.0,0.0,0.0,0.0,0.0,0.0,0.0,0.0,0.0,0.0,0.0,0.0,0.0,0.0,0.0,0.0,0.0,0.0,0.0,0.0,0.0,0.0,0.0,0.0,0.0,0.0,0.0,0.0,0.0,0.0,0.0,0.0,0.0,0.0,0.0,0.0,0.0,0.0,0.0,0.0,0.0,0.0,0.0,0.0,-0.4542,-0.3809,-0.3809,-0.3243,-0.2137,-0.0262,0.1432,0.2817,0.0,0.0,0.0,0.0,0.0,0.0,0.0,0.0,0.0,0.0,0.0,0.0,0.0,0.0,0.0,0.0,0.0,0.0,0.0,0.0,0.0,0.0,0.0,0.0,0.0,-0.1498,-0.0948,0.0,0.0,0.0,0.0,0.0,0.0,0.0,0.0,0.0,0.0,0.0,0.0,-0.347,-0.2576,-0.1776,-0.1169,0.0753,0.2014,0.2041,0.325,0.4521,0.5775,0.6076,0.6821,0.0,0.0,0.0,0.0,0.0,0.0,0.0,0.0,0.0,0.0,0.0,0.0,0.0,0.0,0.0,0.0,0.0,0.0,0.0,0.0,0.0,0.0,0.0,0.0,0.0,0.0,0.0,0.0,0.0,0.0,0.0,0.0,-0.0226,0.049,0.0,0.0,0.0,0.0,0.0,0.0,0.0,0.0,0.0,0.0,0.0,0.0,0.0,0.0,-0.8346,-0.8573,-0.8297,-0.7549,-0.7253,-0.6646,-0.5809,-0.5809,-0.5439,-0.4801,-0.4506,0.0,0.0111,0.0111,0.0,0.0,0.0,0.0,0.0,0.0,0.0,0.0,0.0,0.0,0.0,0.0,0.0,0.0,0.0,0.0,0.0,0.0,0.0,0.0,0.0,0.0,-0.4716,-0.3332,-0.3011,-0.2755,0.0,-0.0108,0.1242,0.1248,0.0,0.0,0.0,0.0,0.0,0.0,0.0,0.0,-0.347,-0.2576,-0.1776,-0.1169,0.0307,0.1505,0.2107,0.2833,0.3804,0.513,0.5362,0.6051,0.7392,0.7693,0.0,0.0,0.0,0.0,0.0,0.0,0.0,0.0,0.0,0.0,0.0,0.0,0.0,0.0,0.0,0.0,0.0,0.0,0.0,0.0,0.0,0.0,0.0,0.0,0.0,0.0,0.0,0.0,0.0,-0.2801,-0.2203,-0.2292,-0.2407,-0.2845,0.0,0.0,0.0,0.0,0.0,0.0,0.0,0.0,0.0,-0.8138,-0.8626,-0.9241,-0.9942,-0.9955,-1.0017,-1.0124,-0.9879,-0.9461,-0.8883,-0.8433,-0.7844,-0.7186,-0.6566,-0.5431,-0.3934,-0.302,-0.2619,-0.2603,0.0,0.0,0.0,0.0,0.0,-0.2916,-0.2596,0.0,0.0,0.0,0.0,0.0,0.0,0.0,0.0,0.0,0.0,0.0,0.0,0.0,0.0,-0.5305,-0.5158,-0.4971,-0.435,-0.3374,-0.2254,0.0,-0.0751,-0.0864,-0.117,0.0,0.0,0.0,0.0,0.0,-0.4061,-0.2891,-0.2004,-0.1756,-0.0028,0.1396,0.2148,0.2861,0.3866,0.5233,0.537,0.6036,0.7474,0.7638,0.8049,0.0,0.0,0.0,0.0,0.0,0.0,0.0,0.0,0.0,0.0,0.0,0.0,0.0,0.0,0.0,0.0,0.0,0.0,0.0,0.0,0.0,0.0,0.0,0.0,0.0,0.0,0.0,0.0,-0.4617,-0.4181,-0.4674,-0.4745,-0.4979,0.0,0.0,0.0,0.0,0.0,0.0,-0.8939,-0.9752,-1.0312,-1.0602,-1.061,-1.0911,-1.1492,-1.1229,-1.1404,-1.2042,-1.1775,-1.1513,-1.126,-1.0656,-1.0087,-0.9537,-0.8729,-0.8181,-0.7689,-0.5715,-0.4921,-0.4956,-0.5485,-0.5368,-0.508,-0.6222,-0.6209,-0.5619,-0.523,-0.503,-0.4929,-0.4876,0.0,-0.5171,-0.6378,0.0,0.0,0.0,0.0,-0.7166,-0.7258,0.0,-0.7236,-0.7131,-0.7119,-0.6938,-0.6357,-0.6111,-0.533,0.0,-0.2521,-0.2476,-0.248,0.0,0.0,0.0,0.0,-0.4491,-0.4491,-0.3345,-0.2425,-0.2232,-0.0558,0.0977,0.2093,0.276,0.3702,0.516,0.5246,0.5814,0.7095,0.7316,0.7777,0.8507,0.0,0.0,0.0,0.0,0.0,0.0,0.0,0.0,0.0,0.0,0.0,0.0,0.0,0.0,0.0,0.0,0.0,0.0,0.0,0.0,0.0,0.0,0.0,0.0,0.0,0.0,0.0,0.0,0.0,-0.5652,-0.5627,0.0,0.0,0.0,0.0,-0.8735,-0.9937,-1.0607,-1.0483,-1.0787,-1.1437,-1.251,-1.2571,-1.2999,-1.3927,-1.3302,-1.2987,-1.3023,-1.2374,-1.2069,-1.2031,-1.2003,-1.1947,-1.1919,-1.1875,-1.1403,-1.0462,-0.7506,-0.6294,-0.6329,-0.6617,-0.681,-0.6977,-0.7184,-0.7235,-0.7165,-0.7019,-0.6967,-0.6929,-0.672,-0.6595,-0.6637,-0.7406,-0.7631,0.0,0.0,-0.8699,-0.8738,-0.9008,-0.9074,-0.8972,-0.8602,-0.851,-0.8305,-0.758,-0.7422,-0.6635,0.0,-0.3378,-0.3242,-0.3257,0.0,-0.3566,-0.4322,-0.446,-0.4491,-0.4491,-0.3818,-0.3037,-0.2286,-0.148,-0.0112,0.2007,0.2232,0.2926,0.446,0.4543,0.4869,0.5597,0.6281,0.6993,0.775,0.8454,0.0,0.0,0.0,0.0,0.0,0.0,0.0,0.0,0.0,0.0,0.0,0.0,0.0,0.0,0.0,0.0,0.0,0.0,0.0,0.0,0.0,0.0,0.0,0.0,0.0,0.0,0.0,0.0,-0.822,-0.7971,0.0,0.0,-0.8853,-0.9272,-1.005,-1.103,-1.1837,-1.2423,-1.2805,-1.3173,-1.358,-1.3616,-1.4022,-1.4923,-1.4427,-1.4477,-1.5041,-1.4807,-1.468,-1.4669,-1.4399,-1.4302,-1.4254,-1.3523,-1.2887,-1.2268,-1.102,-1.0048,-0.9357,-0.9983,-0.9966,-0.9672,-1.0213,-1.0094,-0.968,-0.9632,-0.9618,-0.9591,-0.9535,-0.9805,-1.0199,-1.0454,-1.0544,-1.0599,-1.086,-1.0923,-1.0837,-1.0403,-1.0292,-1.0123,-0.9472,-0.9295,-0.9128,-0.8476,-0.8634,-0.8387,-0.6578,-0.61,-0.5996,-0.6009,-0.5853,-0.5904,-0.6351,-0.5698,-0.5231,-0.5426,-0.4256,-0.3095,-0.2286,-0.1535,-0.0391,0.134,0.1924,0.2649,0.3649,0.4208,0.4814,0.546,0.6199,0.6939,0.7696,0.8427,0.9237,0.0,0.0,0.0,0.0,0.0,0.0,0.0,0.0,0.0,0.0,0.0,0.0,0.0,0.0,0.0,0.0,0.0,0.0,0.0,0.0,0.0,0.0,0.0,0.0,0.0,0.0,-0.8962,-1.022,-0.9881,-0.9781,-1.0381,-1.0467,-1.0764,-1.1404,-1.2369,-1.3235,-1.3899,-1.4473,-1.4915,-1.521,-1.5361,-1.5827,-1.6708,-1.6448,-1.6458,-1.6728,-1.6728,-1.6586,-1.6299,-1.6028,-1.5886,-1.5876,-1.5124,-1.4479,-1.3968,-1.4068,-1.3467,-1.2457,-1.2307,-1.1971,-1.1622,-1.2336,-1.2293,-1.1889,-1.2067,-1.2027,-1.1924,-1.1924,-1.2122,-1.2344,-1.2344,-1.2223,-1.2095,-1.2095,-1.2095,-1.2008,-1.1586,-1.1561,-1.1561,-1.1123,-1.115,-1.1069,-1.0349,-1.0512,-1.0438,-0.9183,-0.8374,-0.7779,-0.7542,-0.7359,-0.7338,-0.762,-0.6803,-0.6172,-0.6133,-0.504,-0.3856,-0.2734,-0.1925,-0.0865,0.0614,0.141,0.2146,0.2873,0.3663,0.4281,0.4745,0.5706,0.647,0.6956,0.8137,0.9119,0.9814,0.0,0.0,0.0,0.0,0.0,0.0,0.0,0.0,0.0,0.0,0.0,0.0,0.0,0.0,0.0,0.0,0.0,0.0,0.0,0.0,0.0,0.0,0.0,-0.9706,-1.0397,-1.0979,-1.1492,-1.1241,-1.1226,-1.1728,-1.2342,-1.2735,-1.2762,-1.4046,-1.4862,-1.49,-1.5684,-1.6548,-1.7437,-1.7844,-1.8443,-1.9305,-1.9324,-1.8876,-1.8078,-1.8058,-1.7606,-1.6748,-1.6768,-1.6768,-1.6746,-1.6746,-1.6294,-1.5638,-1.6411,-1.6233,-1.5341,-1.3477,-1.2735,-1.2819,-1.3453,-1.3712,-1.3762,-1.4219,-1.4174,-1.3901,-1.3901,-1.3449,-1.293,-1.293,-1.2597,-1.2245,-1.2245,-1.2245,-1.2301,-1.2605,-1.2995,-1.3339,-1.3565,-1.3955,-1.4049,-1.3143,-1.2949,-1.2646,-1.1628,-0.999,-0.8504,-0.7752,-0.7588,-0.7691,-0.8015,-0.7784,0.0,-0.6568,-0.6211,-0.5356,-0.3644,-0.274,-0.1648,-0.0195,0.0633,0.136,0.2096,0.2844,0.3256,0.3264,0.469,0.5483,0.5538,0.7564,0.898,0.971,0.0,0.0,0.0,0.0,0.0,0.0,0.0,0.0,0.0,0.0,0.0,0.0,0.0,0.0,0.0,0.0,0.0,0.0,0.0,0.0,0.0,0.0,-1.0721,-1.0991,-1.0978,-1.1362,-1.2529,-1.2142,-1.2173,-1.3118,-1.3386,-1.3772,-1.4389,-1.5242,-1.6138,-1.7079,-1.7337,-1.7887,-1.8744,-1.8877,-1.9201,-1.973,-1.9741,-1.9619,-1.9373,-1.9737,-1.9253,-1.809,-1.8429,-1.8233,-1.7623,-1.7623,-1.7338,-1.6894,-1.7132,-1.6883,-1.6332,-1.5791,-1.5566,-1.5595,-1.5779,-1.5864,-1.5882,-1.5995,-1.5989,-1.5895,-1.5895,-1.5776,-1.5628,-1.5628,-1.5553,-1.5428,-1.5428,-1.5428,-1.5315,-1.4818,-1.4791,-1.4739,-1.4233,-1.4204,-1.4222,-1.395,-1.3925,-1.3627,-1.2673,-1.2087,-1.1349,-1.0239,-0.968,-0.9504,-0.985,0.0,0.0,-0.8285,-0.7041,-0.5758,-0.4732,-0.3881,-0.2937,-0.1911,-0.0611,0.0288,0.0,0.1798,0.2505,0.251,0.3908,0.5198,0.6285,0.687,0.7272,0.0,0.0,0.0,0.0,0.0,0.0,0.0,0.0,0.0,0.0,0.0,0.0,0.0,0.0,0.0,0.0,0.0,0.0,0.0,0.0,0.0,0.0,-1.1339,-1.2412,-1.3039,-1.2824,-1.304,-1.4232,-1.4011,-1.4108,-1.4917,-1.5023,-1.5221,-1.5732,-1.6316,-1.6891,-1.742,-1.7808,-1.848,-1.9527,-1.9749,-2.0305,-2.1237,-2.1249,-2.09,-2.0196,-2.0488,-1.9792,-1.8367,-1.9019,-1.9011,0.0,-1.8519,-1.8422,-1.819,-1.7803,-1.75,0.0,0.0,0.0,0.0,0.0,-1.7194,-1.7496,-1.7496,-1.7613,-1.7773,-1.7555,-1.7379,-1.7204,-1.7051,-1.6853,-1.6697,-1.6697,-1.6697,-1.6592,-1.6128,-1.6154,-1.6188,-1.5722,-1.5716,-1.5724,-1.5347,-1.5271,-1.4976,-1.4032,0.0,0.0,-1.2157,-1.1231,-1.0722,-1.0902,-1.0174,-0.9519,0.0,-0.8126,-0.6908,-0.5701,-0.4827,-0.3964,-0.3026,-0.1867,0.0,0.0,0.0,0.11,0.1725,0.286,0.0,0.0,0.0,0.5521,0.0,0.0,0.0,0.0,0.8956,0.8867,0.0,0.0,0.0,0.0,0.0,0.0,0.0,0.0,0.0,0.0,0.0,0.0,0.0,0.0,0.0,0.0,-1.2488,-1.3709,-1.539,-1.5312,-1.5371,-1.6085,-1.6173,-1.6318,-1.6736,-1.6814,-1.6863,-1.6911,-1.7353,-1.7435,-1.7091,0.0,0.0,0.0,0.0,-2.1376,-2.3014,-2.294,-2.2171,-2.0758,-2.0758,-1.9855,-1.8237,-1.9116,-1.945,-1.9309,-1.9398,-1.9495,-1.9482,-1.8566,-1.8174,-1.8066,-1.7174,-1.6872,-1.696,-1.7324,-1.7959,0.0,0.0,0.0,0.0,-1.8802,-1.8422,-1.8086,-1.7715,-1.7324,-1.698,-1.6931,-1.695,-1.698,-1.6931,-1.7236,-1.7529,-1.7529,-1.7773,-1.7759,-1.6922,-1.674,-1.6481,-1.5603,-1.5141,-1.4624,-1.3742,-1.2449,-1.1526,-1.1423,-1.1209,0.0,-0.979,-0.9324,-0.8421,-0.6727,0.0,0.0,-0.4148,-0.3308,-0.2737,-0.2544,-0.1727,-0.0632,0.0805,0.1474,0.2221,0.3042,0.3042,0.3726,0.512,0.512,0.5471,0.6123,0.6378,0.6628,0.0,0.0,0.0,0.0,0.0,0.0,0.0,0.0,0.0,0.0,0.0,0.0,0.0,0.0,0.0,-1.2471,-1.305,-1.4073,-1.6667,-1.6966,-1.6807,-1.6621,-1.657,-1.6777,-1.7217,-1.7568,-1.7867,-1.8208,-1.8672,-1.9028,-1.9276,-1.9455,0.0,-2.1487,-2.0928,-2.1264,-2.2611,-2.1925,-2.1596,-2.1665,0.0,0.0,-1.9572,-2.0441,-2.0269,-1.9332,-2.0042,-2.0587,-2.0919,-1.9946,-1.9323,-1.8955,-1.8096,-1.7935,-1.8208,-1.7978,-1.8203,-1.8598,-1.8598,-1.8926,-1.9277,-1.9189,-1.9102,-1.9023,-1.8945,-1.8857,0.0,-1.8334,-1.8525,-1.8711,-1.8325,-1.8295,-1.8354,-1.8354,-1.8159,-1.794,-1.7759,-1.7725,-1.7536,-1.6929,-1.6519,-1.6027,-1.5435,-1.3816,-1.2342,-1.1526,-1.1342,-1.1168,-1.0778,-1.0032,-0.9338,-0.8758,-0.7958,-0.7288,-0.6951,-0.56,-0.4705,-0.4561,-0.3098,-0.1757,-0.0722,-0.0527,0.0166,0.1496,0.1524,0.1968,0.2834,0.2834,0.2904,0.3096,0.5051,0.5665,0.0,0.0,0.0,0.0,0.0,0.0,0.0,0.0,0.0,0.0,0.0,-0.8705,0.0,0.0,-1.0865,-1.3063,-1.3891,-1.4993,-1.7093,-1.7744,-1.7852,-1.7389,-1.7525,-1.774,-1.7988,-1.8398,-1.873,-1.8945,-1.916,-1.9407,-1.9586,-1.9611,-2.0118,-2.1197,-2.0818,-2.1096,-2.2181,-2.1778,-2.147,-2.1261,-2.1737,-2.1408,-2.0397,-2.1756,-2.1988,-2.1429,-2.1858,-2.2205,-2.237,-2.1451,-2.1081,-2.1028,-2.0358,-1.9618,-1.8936,-1.873,-1.8916,-1.9241,-1.9241,-1.9561,-1.993,-1.9668,-1.96,-1.9561,-1.9346,-1.9287,-1.9238,-1.9023,-1.9121,-1.9238,-1.9023,-1.8965,-1.8965,-1.8965,-1.8799,-1.8652,-1.8652,-1.8652,-1.8569,-1.8296,-1.8082,-1.7711,-1.6993,-1.545,-1.3913,-1.2547,-1.1957,-1.1543,-1.1243,-1.0832,-1.0288,-0.9589,-0.9128,-0.8544,-0.7768,-0.6498,-0.5731,-0.5641,-0.4012,-0.2849,-0.2366,-0.1906,-0.1306,-0.0555,-0.0555,-0.0224,0.0456,0.0504,0.0706,0.102,0.2311,0.3086,0.0,0.0,0.0,0.0,0.0,0.0,0.0,0.0,-0.806,-0.8472,-0.9048,-0.963,-1.0187,-1.0727,-1.1628,-1.3284,-1.4317,-1.545,-1.7025,-1.7793,-1.817,-1.8013,-1.8422,-1.8666,-1.849,-1.9053,-1.9375,-1.9297,-1.9443,-1.9492,-1.9414,-1.9404,-1.9793,-2.0567,-2.0435,-2.0811,-2.1741,-2.1601,-2.1303,-2.0864,-2.1626,-2.1723,-2.1271,-2.2902,-2.3575,-2.3513,-2.3775,-2.379,-2.3601,-2.3006,-2.2865,-2.2969,-2.26,-2.156,-2.0246,-2.0101,-2.0139,-2.0331,-2.0331,-2.0514,-2.0625,-2.0185,-2.0039,-1.998,-1.9639,-1.9541,-1.9521,-1.9434,-1.9473,-1.9512,-1.9434,-1.9404,-1.9404,-1.9404,-1.9346,-1.9287,-1.9287,-1.9287,-1.9307,-1.9394,-1.9346,-1.9087,-1.8416,-1.7135,-1.5584,-1.3785,-1.2628,-1.1844,-1.155,-1.151,-1.1123,-1.0126,-1.0034,-0.9493,-0.8196,-0.7301,-0.671,-0.6518,-0.5177,-0.435,-0.4268,-0.3419,-0.2828,-0.2645,-0.248,-0.2116,-0.1474,-0.1378,-0.1072,-0.0581,-0.0477,0.0282,-0.4621,-0.4927,0.0,-0.629,-0.6706,-0.7105,0.0,0.0,-0.9059,-0.9736,-1.0166,-1.0546,-1.0835,-1.0954,-1.1506,-1.3077,-1.3454,-1.4279,-1.6381,-1.6749,-1.7116,-1.7906,-1.8721,-1.8916,-1.8154,-1.915,-1.9687,-1.9316,-2.0028,-2.0254,-1.9863,-1.9844,-2.0065,-2.0578,-1.9847,-2.0028,-2.1272,-2.0521,-2.0686,-2.1843,-2.1955,-2.2213,-2.2684,-2.3688,-2.3887,-2.3571,-2.4809,-2.4884,-2.4138,-2.4531,-2.4209,-2.3436,-2.338,-2.3505,-2.3634,-2.295,-2.2277,-2.1765,-2.1889,-2.157,-2.1084,-2.0635,-2.0537,-2.0517,-2.0478,-2.0458,-2.038,-1.9951,-2.0127,-2.037,-1.9941,-1.9844,-1.9844,-1.9844,-1.9561,-1.9287,-1.9287,-1.9287,-1.9394,-1.9775,-1.9541,-1.9368,-1.9626,-1.8546,-1.6885,-1.4626,-1.3116,-1.2151,-1.1893,-1.1859,-1.1668,-1.1266,-1.1206,-1.0729,-0.9585,-0.9165,-0.8539,-0.7593,-0.7337,-0.7065,-0.673,-0.5967,-0.5133,-0.4183,-0.3503,-0.282,-0.2102,-0.2094,-0.2041,-0.1989,-0.1952,-0.1528,-0.6094,0.0,0.0,0.0,-0.788,-0.8403,-0.9124,-0.9637,-1.007,-1.0524,-1.0722,-1.0955,-1.145,-1.1503,-1.1943,0.0,-1.3543,-1.4249,-1.6323,-1.681,-1.7116,-1.7595,-1.8613,-1.9043,-1.8403,-1.9307,-1.9844,-1.9668,-2.0263,-2.0527,-2.0303,-2.0293,-2.0396,-2.0574,-2.0465,-2.0563,-2.0845,-2.1316,-2.1703,-2.2027,-2.3184,-2.3897,-2.4142,-2.5114,-2.5419,-2.5302,-2.6189,-2.637,-2.6058,-2.6599,-2.6542,-2.619,-2.619,-2.6322,-2.6282,-2.445,-2.3839,-2.3777,-2.3147,-2.2785,-2.2371,-2.1283,-2.0957,-2.0908,-2.0683,-2.0752,-2.0918,-2.0693,-2.0996,-2.1289,-2.1113,-2.1064,-2.1064,-2.1064,-2.0928,-2.0732,-2.0478,-2.042,-2.04,-2.0312,-2.0184,-2.0126,-2.0264,-1.9155,-1.7904,-1.6932,-1.5394,-1.4072,-1.3338,-1.3584,-1.3479,-1.2611,-1.1833,-1.1133,-1.0512,-0.9886,-0.9282,-0.8667,-0.8038,-0.7568,-0.7231,-0.6983,-0.6501,-0.5701,-0.556,-0.5329,-0.4924,-0.4809,-0.4817,-0.4937,-0.481,-0.4598,-0.7296,0.0,0.0,-0.8534,-0.9131,-0.9687,-1.023,-1.0648,-1.1015,-1.1223,-1.1296,-1.1456,-1.1839,-1.1973,0.0,-1.3409,-1.376,-1.4524,-1.6341,-1.6864,-1.7125,-1.7362,-1.8096,-1.8506,-1.8276,-1.9277,-1.9863,-1.9746,-2.0361,-2.0732,-2.0615,-2.0723,-2.0752,-2.0752,-2.1064,-2.1184,-2.1201,-2.2185,-2.2821,-2.3062,-2.4358,-2.523,-2.5658,-2.6387,-2.6725,-2.6751,-2.7304,-2.7507,-2.7544,-2.7946,-2.8109,-2.8109,-2.8109,-2.8197,-2.8088,-2.6261,-2.5662,-2.5675,-2.488,-2.4204,-2.3498,-2.2231,-2.1639,-2.1348,-2.1065,-2.1152,-2.1375,-2.1375,-2.1641,-2.1885,-2.1885,-2.1885,-2.1885,-2.1885,-2.1885,-2.1797,-2.1484,-2.1375,-2.1318,-2.1036,-2.0967,-2.0928,-2.0771,-1.9925,-1.9097,-1.8697,-1.7665,-1.6402,-1.4976,-1.5134,-1.4851,-1.3565,-1.2514,-1.1696,-1.1169,-1.0465,-0.9939,-0.9676,-0.8917,-0.8385,-0.8086,-0.7961,-0.765,-0.7045,-0.7149,-0.7117,-0.6966,-0.6809,-0.6814,-0.6961,-0.6804,-0.6733,0.0,0.0,-0.8805,-0.9803,-1.0503,-1.0962,-1.0969,-1.1444,-1.1866,-1.1873,-1.2064,-1.2184,-1.1953,-1.2098,-1.2519,-1.3186,-1.3914,-1.4917,-1.6403,-1.6629,-1.6828,-1.7333,-1.7041,-1.6941,0.0,-1.8936,-1.9746,-1.9336,-2.0488,-2.1025,-2.0625,-2.0977,-2.1171,-2.1171,-2.119,-2.167,-2.2631,-2.2691,-2.37,-2.5669,-2.523,-2.579,-2.722,-2.7256,-2.7291,-2.7329,-2.7846,-2.8084,-2.8084,-2.8097,-2.8109,-2.8109,-2.8109,-2.8436,-2.8863,-2.88,-2.8119,-2.7248,-2.7338,-2.5978,-2.4103,-2.3589,-2.2707,-2.1865,-2.1846,-2.1855,-2.1865,-2.1865,-2.1875,-2.1885,-2.1885,-2.1885,-2.1885,-2.1885,-2.1885,-2.1885,-2.1865,-2.1865,-2.1865,-2.1846,-2.1846,-2.1709,-2.1249,-2.1161,-2.0636,-1.9201,-1.9448,-1.8939,-1.6632,-1.6009,-1.5243,-1.3833,-1.3403,-1.2729,-1.1505,-1.1122,-1.0836,-1.0575,-1.0516,-1.0345,-1.0023,-0.9327,-0.8711,-0.8167,-0.7708,-0.7364,-0.7089,-0.7084,-0.7084,-0.7089,-0.7079,-0.7079,0.0,0.0,-0.9315,-0.9745,-1.0727,-1.1611,-1.1611,-1.1877,-1.2098,-1.1946,-1.179,-1.163,-1.1343,-1.1369,-1.1566,-1.1964,-1.2598,-1.3616,-1.5436,-1.6039,-1.6607,-1.7325,-1.7744,0.0,0.0,0.0,0.0,-1.9277,-2.0225,-2.0859,-2.0996,-2.1112,-2.1327,-2.165,-2.1934,-2.2109,-2.217,-2.3807,-2.4826,-2.5272,-2.613,-2.681,-2.7281,-2.7281,-2.7482,-2.7858,-2.8411,-2.8612,-2.865,-2.9063,-2.9227,-2.9227,-2.9227,-2.934,-2.9503,-2.9503,-2.926,-2.8836,-2.8122,-2.6944,-2.5532,-2.436,-2.3216,-2.2246,-2.1973,-2.208,-2.2305,-2.2305,-2.25,-2.2715,-2.2715,-2.2715,-2.2715,-2.2715,-2.2715,-2.2604,-2.2363,-2.2305,-2.2217,-2.1934,-2.1885,-2.1836,-2.1689,-2.167,-2.1392,-2.0585,-1.9548,-1.861,-1.7924,-1.7216,-1.6436,-1.5692,-1.4383,-1.3312,-1.2709,-1.1785,-1.1156,-1.0868,-1.07,-1.0459,-1.0097,-1.0084,-0.9792,-0.9195,-0.9216,-0.9098,-0.8831,-0.8831,-0.8831,-0.8831,-0.8831,-0.8831,0.0,-0.936,-0.9915,-1.0012,-1.1117,-1.2187,-1.208,-1.2091,-1.2064,-1.177,-1.1476,-1.1149,-1.0748,-1.0768,-1.1057,-1.1711,-1.2245,-1.3396,-1.5653,-1.6242,-1.6776,-1.7731,-1.8174,0.0,0.0,0.0,0.0,-1.9734,-2.0586,-2.1162,-2.1455,-2.1611,-2.1816,-2.21,-2.2373,-2.2552,-2.263,-2.4225,-2.5207,-2.5547,-2.7139,-2.777,-2.7582,-2.7783,-2.8059,-2.8436,-2.9001,-2.9239,-2.9264,-2.9641,-2.9585,-2.9197,-2.9197,-2.8949,-2.8633,-2.8633,-2.8633,-2.8621,-2.8688,-2.7747,-2.6345,-2.5324,-2.3959,-2.2685,-2.2412,-2.2519,-2.2691,-2.2691,-2.2886,-2.3091,-2.3091,-2.3091,-2.3091,-2.3091,-2.3091,-2.3023,-2.275,-2.2691,-2.2656,-2.2383,-2.2334,-2.2285,-2.2139,-2.1855,-2.1562,-2.1239,-2.0009,-1.9061,-1.8867,-1.832,-1.7584,-1.67,-1.5473,-1.4344,-1.3394,-1.2547,-1.1792,-1.1162,-1.0875,-1.066,-1.0441,-1.0546,-1.0365,-0.9846,-1.0127,-1.0127,-0.984,-0.984,-0.984,-0.984,-0.984,-0.984,-0.9426,-1.0014,-1.0498,-1.0536,-1.1626,-1.2621,-1.2351,-1.2058,-1.1792,-1.1443,-1.1136,-1.0755,0.0,0.0,-1.0988,-1.2314,-1.2814,-1.4046,-1.6836,-1.7008,-1.7243,0.0,0.0,0.0,0.0,0.0,0.0,-2.0635,0.0,-2.1875,-2.1914,-2.2295,-2.2519,-2.2549,-2.2549,-2.2996,-2.393,-2.4013,-2.4861,-2.647,-2.8011,-2.85,-2.8086,-2.8537,-2.8787,-2.8887,-2.9425,-2.9624,-2.9624,-2.9624,-2.8988,-2.8004,-2.8004,-2.7412,-2.6524,-2.6524,-2.6524,-2.6812,-2.8882,-2.8211,-2.6389,-2.6389,-2.4893,-2.3091,-2.3091,-2.3091,-2.3091,-2.3091,-2.3091,-2.3091,-2.3091,-2.3091,-2.3091,-2.3091,-2.3091,-2.3091,-2.3091,-2.3091,-2.3091,-2.3091,-2.3091,-2.2974,-2.2617,-2.1814,-2.1249,-2.1229,-2.0889,-2.0331,-1.9434,-1.9316,-1.8651,-1.6894,-1.6629,-1.5704,-1.3592,-1.3302,-1.2716,-1.1497,-1.1162,-1.0995,-1.0995,-1.0747,-1.0459,-1.0117,-1.0445,-1.0452,-1.014,-1.014,-1.014,-1.014,-1.014,-1.014,-0.8036,-0.8474,-0.8983,-0.9742,-1.0679,-1.1562,-1.191,-1.175,-1.1396,-1.0882,-1.0374,-0.9973,0.0,0.0,0.0,-1.1234,-1.2012,0.0,-1.4771,-1.6258,0.0,0.0,0.0,-2.0088,-2.0489,-2.0635,0.0,0.0,-2.1631,-2.168,-2.2314,-2.2451,-2.2656,-2.2925,-2.2935,-2.3065,-2.3315,-2.4174,-2.5001,-2.5808,-2.6262,-2.68,-2.7478,-2.6773,-2.712,-2.8273,-2.7608,-2.7342,-2.7342,-2.7342,-2.718,-2.6924,-2.6924,-2.6719,-2.6524,-2.6524,-2.6524,-2.6595,-2.7139,-2.6419,-2.521,-2.521,-2.4253,-2.3091,-2.3091,-2.3091,-2.3091,-2.3091,-2.3091,-2.3091,-2.3091,-2.3091,-2.3091,-2.3091,-2.3091,-2.3091,-2.3091,-2.3091,-2.3091,-2.3091,-2.3091,-2.3062,-2.2955,-2.2496,-2.208,-2.1768,-2.1348,-2.0742,-1.9873,-1.9756,-1.9304,-1.8193,-1.6822,-1.5663,-1.4773,-1.3182,-1.2114,-1.1792,-1.1276,-1.0995,-1.0995,-1.0747,-1.0553,-1.0479,-1.0553,-1.0553,-1.0479,-1.0479,-1.0479,-1.0479,-1.0479,-1.0479,-0.7854,-0.8226,-0.8703,-0.951,-1.0377,-1.1126,-1.1582,-1.1349,-1.0882,-1.0325,-1.0226,0.0,0.0,0.0,0.0,0.0,0.0,0.0,-1.4298,-1.5512,-1.6883,0.0,-1.9641,0.0,-2.1434,-2.1523,-2.1797,0.0,-2.207,-2.2048,-2.2711,-2.274,-2.2847,-2.3091,-2.3091,-2.3091,-2.3091,-2.4211,-2.4945,-2.5259,-2.5761,-2.6329,-2.6943,-2.6289,-2.6529,-2.736,0.0,-2.6524,-2.6524,-2.6524,-2.6224,-2.5755,-2.5755,-2.5431,-2.502,-2.502,-2.502,-2.502,-2.502,-2.4595,-2.4125,-2.4617,-2.4049,-2.3091,-2.3091,-2.3091,-2.3091,-2.3091,-2.3091,-2.3091,-2.3091,-2.3091,-2.3091,-2.3091,-2.3091,-2.3091,-2.3091,-2.3091,-2.3091,-2.3091,-2.3091,-2.3091,-2.3091,-2.275,-2.2373,-2.1953,-2.1514,-2.0947,-2.0293,-2.0029,-1.9658,-1.8994,-1.7784,-1.6597,-1.5555,-1.4142,-1.3149,-1.2734,-1.1867,-1.1519,-1.1817,-1.1163,-1.072,-1.0593,-1.0593,-1.0593,-1.0593,-1.0593,-1.0593,-1.0593,-1.0593,-1.0593,-0.8175,-0.8422,-0.8797,-0.9366,-1.0139,-1.0851,-1.1083,-1.0817,-1.0365,-0.9746,0.0,0.0,-1.0576,0.0,-1.1284,-1.2287,0.0,-1.2084,-1.445,-1.4811,-1.6016,-1.9103,-1.9574,-2.031,-2.1919,-2.2051,-2.2207,-2.2568,-2.2598,-2.2711,-2.3081,-2.3091,-2.3091,-2.3091,-2.3091,-2.3091,-2.3091,-2.4092,-2.4585,-2.4585,-2.5599,-2.6141,-2.6265,-2.6099,-2.6141,-2.6265,0.0,0.0,-2.6069,-2.6069,-2.5473,-2.4585,-2.4585,-2.3963,-2.3135,-2.3256,-2.3343,-2.3343,-2.3343,-2.3343,-2.3464,-2.4296,-2.392,-2.3091,-2.3091,-2.3091,-2.3091,-2.3091,-2.3091,-2.3091,-2.3091,-2.3091,-2.3091,-2.3091,-2.3091,-2.3091,-2.3091,-2.3091,-2.3091,-2.3091,-2.3091,-2.3091,-2.3091,-2.2789,-2.2451,-2.2031,-2.1641,-2.1181,-2.0752,-2.0273,-1.9834,-1.9414,-1.8879,-1.7875,-1.6139,-1.5555,-1.4892,-1.3962,-1.287,-1.2549,-1.3118,-1.1895,-1.1064,-1.0837,-1.0676,-1.0593,-1.0593,-1.0593,-1.0593,-1.0593,-1.0593,-1.0593,-0.728,-0.7383,-0.7585,-0.8296,-0.9028,-0.9627,-0.9788,-1.0021,0.0,0.0,0.0,-0.9778,-1.0673,0.0,0.0,-1.2475,0.0,0.0,0.0,0.0,-1.6096,0.0,0.0,0.0,0.0,0.0,0.0,0.0,0.0,0.0,-2.3091,-2.3091,-2.3091,-2.3091,-2.3091,-2.3091,-2.3091,-2.3299,-2.3387,-2.3387,-2.3594,-2.4178,-2.5041,-2.4135,-2.4221,-2.5041,0.0,0.0,-2.3681,-2.3681,-2.3551,-2.3387,-2.3387,-2.3256,-2.3222,-2.4168,-2.45,-2.45,-2.45,-2.45,-2.4372,-2.3637,-2.3266,-2.3091,-2.3091,-2.3091,-2.3091,-2.3091,-2.3091,-2.3091,-2.3091,-2.3091,-2.3091,-2.3091,-2.3091,-2.3091,-2.3091,-2.3091,-2.3091,-2.3091,-2.3091,-2.3091,-2.3091,-2.3033,-2.2847,-2.2471,-2.2344,-2.2012,-2.1181,-2.0732,-2.0283,-1.9853,-1.9042,-1.808,-1.7045,-1.6189,-1.5477,-1.4966,-1.4469,-1.4277,-1.4391,-1.295,-1.2129,-1.2102,-1.1121,-1.0593,-1.0593,-1.0593,-1.0593,-1.0593,-1.0593,-1.0593,-0.7058,-0.7095,-0.7283,-0.801,-0.8316,-0.8576,-0.9131,0.0,0.0,0.0,0.0,-1.0082,-1.0761,0.0,0.0,0.0,0.0,0.0,0.0,0.0,0.0,0.0,0.0,0.0,0.0,0.0,0.0,0.0,0.0,0.0,-2.3091,-2.3091,-2.3091,-2.3091,-2.3091,-2.3091,-2.3091,-2.3091,-2.3091,-2.3091,-2.3091,-2.3387,-2.3887,-2.3343,-2.3387,-2.3877,-2.3343,0.0,-2.3091,-2.3091,-2.3091,-2.3178,-2.3757,-2.3963,-2.4049,-2.4585,-2.5168,-2.5504,-2.4339,-2.4296,-2.4617,-2.3464,-2.3091,-2.3091,-2.3091,-2.3091,-2.3091,-2.3091,-2.3091,-2.3091,-2.3091,-2.3091,-2.3091,-2.3091,-2.3091,-2.3091,-2.3091,-2.3091,-2.3091,-2.3091,-2.3091,-2.3091,-2.3091,-2.3091,-2.2955,-2.2578,-2.251,-2.2285,-2.165,-2.1387,-2.1036,-2.0322,-1.9659,-1.8863,-1.7942,-1.704,-1.6434,-1.6251,-1.5458,-1.5093,-1.5434,-1.4255,-1.3212,-1.2417,-1.1843,-1.1297,-1.0814,-1.0667,-1.0747,-1.1002,-1.0734,-1.0673,-0.7065,-0.7122,-0.7285,-0.7772,-0.7732,-0.7794,-0.8518,-0.8538,0.0,0.0,0.0,-1.0357,-1.0818,0.0,0.0,0.0,0.0,0.0,0.0,0.0,0.0,0.0,0.0,0.0,0.0,0.0,0.0,0.0,0.0,0.0,-2.3091,-2.3091,-2.3091,-2.3091,-2.3091,-2.3222,-2.3464,-2.3464,-2.3594,-2.3854,-2.3854,-2.3681,-2.3464,-2.3464,-2.3343,-2.3091,-2.3091,0.0,0.0,-2.3343,-2.3464,-2.3594,-2.4713,-2.5168,-2.521,-2.541,-2.6077,-2.6554,-2.452,-2.4425,-2.4957,-2.3551,-2.3091,-2.3091,-2.3091,-2.3091,-2.3091,-2.3091,-2.3091,-2.3091,-2.3091,-2.3091,-2.3091,-2.3091,-2.3091,-2.3091,-2.3091,-2.3091,-2.3091,-2.3091,-2.3091,-2.3091,-2.3091,-2.3091,-2.2984,-2.2695,-2.2646,-2.249,-2.207,-2.2021,-2.1719,-2.0967,-2.0459,-1.9803,-1.8879,-1.8165,-1.7733,-1.765,-1.6563,-1.6131,-1.6616,-1.558,-1.4413,-1.3209,-1.2936,-1.2373,-1.1565,-1.1242,-1.1269,-1.1546,-1.102,-1.0835,-0.7092,-0.7244,-0.7289,-0.6933,-0.7223,-0.7613,-0.7626,0.0,0.0,0.0,-0.9092,-0.9653,-1.0705,-1.1113,-1.1495,0.0,0.0,0.0,0.0,0.0,0.0,0.0,0.0,0.0,0.0,0.0,0.0,0.0,0.0,0.0,0.0,-2.3091,-2.3091,-2.3091,-2.3091,-2.3594,-2.4628,-2.4617,-2.5168,-2.6182,-2.6182,-2.5641,-2.4617,-2.4617,-2.4092,-2.3091,0.0,0.0,0.0,-2.4211,-2.4617,-2.4755,-2.5891,-2.6348,-2.6472,-2.7441,-2.7844,-2.7763,-2.6595,-2.6265,-2.5975,-2.381,-2.3091,-2.3091,-2.3091,-2.3091,-2.3091,-2.3091,-2.3091,-2.3091,-2.3091,-2.3091,-2.3091,-2.3091,-2.3091,-2.3091,-2.3091,-2.3091,-2.3091,-2.3091,-2.3091,-2.3091,-2.3091,-2.3091,-2.3081,-2.3042,-2.3033,-2.2886,-2.251,-2.2451,-2.2275,-2.1816,-2.1377,-2.0752,-1.9867,-1.9684,-1.948,-1.9139,-1.8595,-1.8309,-1.8375,-1.6847,-1.5902,-1.5755,-1.4694,-1.3867,-1.3347,-1.2912,-1.2491,-1.2108,-1.1572,-1.1223,-0.7025,-0.7075,-0.7146,-0.679,-0.668,-0.6673,-0.6802,0.0,0.0,-0.8042,-0.8571,-0.92,-1.0037,-1.0255,-1.0625,0.0,0.0,0.0,0.0,0.0,0.0,0.0,0.0,0.0,0.0,0.0,0.0,0.0,0.0,0.0,0.0,-2.3091,-2.3091,-2.3091,-2.3091,-2.3627,-2.4787,-2.4787,-2.5041,-2.5462,-2.5462,-2.4882,-2.38,-2.38,-2.3507,-2.3091,0.0,0.0,0.0,-2.4339,-2.4425,-2.4006,-2.6491,-2.7087,-2.6637,-2.7683,-2.8096,-2.7844,-2.6077,-2.5462,-2.521,-2.3637,-2.3091,-2.3091,-2.3091,-2.3091,-2.3091,-2.3091,-2.3091,-2.3091,-2.3091,-2.3091,-2.3091,-2.3091,-2.3091,-2.3091,-2.3091,-2.3091,-2.3091,-2.3091,-2.3091,-2.3091,-2.3091,-2.3091,-2.3091,-2.3091,-2.3091,-2.3033,-2.2867,-2.2847,-2.2734,-2.2305,-2.16,-2.1054,-2.0703,-2.0215,-1.9844,-1.9678,-1.8978,-1.8598,-1.8598,-1.7739,-1.6885,-1.6105,-1.561,-1.4996,-1.4247,-1.3924,-1.3535,-1.3078,-1.2553,-1.2038,-0.6767,-0.6859,-0.6953,-0.6654,-0.6264,-0.6021,0.0,0.0,0.0,-0.7555,-0.8197,-0.8839,-0.9564,-0.9753,-1.0134,0.0,0.0,0.0,0.0,0.0,0.0,0.0,0.0,0.0,0.0,0.0,0.0,0.0,0.0,0.0,0.0,-2.3091,-2.3091,-2.3091,-2.343,-2.4135,-2.5294,-2.5619,-2.5775,-2.5775,-2.5775,-2.4999,-2.3594,-2.3594,-2.342,-2.3091,0.0,0.0,0.0,-2.4457,-2.4553,-2.4392,-2.7064,-2.7654,-2.7046,-2.7804,-2.8295,-2.8227,-2.5703,-2.4999,-2.5041,-2.3594,-2.3091,-2.3091,-2.3091,-2.3091,-2.3091,-2.3091,-2.3091,-2.3091,-2.3091,-2.3091,-2.3091,-2.3091,-2.3091,-2.3091,-2.3091,-2.3091,-2.3091,-2.3091,-2.3091,-2.3091,-2.3091,-2.3091,-2.3091,-2.3091,-2.3091,-2.3091,-2.3091,-2.3091,-2.2984,-2.2734,-2.2009,-2.1463,-2.122,-2.0547,-2.0107,-2.0107,-1.9307,-1.8686,-1.839,-1.7865,-1.7145,-1.6287,-1.6245,-1.5844,-1.5053,-1.474,-1.4199,-1.3524,-1.2958,-1.2459,-0.6306,-0.6593,-0.6824,-0.6416,-0.6034,-0.5856,0.0,0.0,-0.6172,-0.7447,-0.7984,-0.8498,-0.951,-0.992,-1.0307,-1.0902,0.0,0.0,0.0,0.0,0.0,0.0,0.0,0.0,0.0,0.0,0.0,0.0,0.0,0.0,0.0,-2.3091,-2.3091,-2.3091,-2.4168,-2.5336,-2.6483,-2.7522,-2.8084,-2.8084,-2.8084,-2.6889,-2.4787,-2.4787,-2.4168,0.0,0.0,0.0,0.0,-2.4787,-2.5462,-2.6554,-2.7683,-2.8096,-2.8084,-2.8096,-2.8806,-2.9287,-2.5953,-2.5546,-2.6099,-2.3854,-2.3091,-2.3091,-2.3091,-2.3091,-2.3091,-2.3091,-2.3091,-2.3091,-2.3091,-2.3091,-2.3091,-2.3091,-2.3091,-2.3091,-2.3091,-2.3091,-2.3091,-2.3091,-2.3091,-2.3091,-2.3091,-2.3091,-2.3091,-2.3091,-2.3091,-2.3091,-2.3091,-2.3091,-2.3091,-2.3091,-2.2711,-2.2158,-2.1268,-2.082,-2.0595,-2.0595,-1.9756,-1.8866,-1.7961,-1.7071,-1.6593,-1.6593,-1.6593,-1.636,-1.5896,-1.5427,-1.4481,-1.3107,-1.2558,-1.2298,-0.5884,-0.5976,-0.6101,-0.5861,-0.5569,-0.531,-0.5317,0.0,-0.5697,-0.6127,-0.7257,-0.8363,-0.886,-0.9586,-1.0486,-1.1646,-1.297,0.0,0.0,0.0,0.0,0.0,0.0,0.0,0.0,0.0,0.0,0.0,0.0,0.0,0.0,-2.3091,-2.3091,-2.3091,-2.3464,-2.4178,-2.5336,-2.5661,-2.5859,-2.5859,-2.5859,-2.5083,-2.3637,-2.3637,0.0,0.0,0.0,0.0,0.0,-2.4457,-2.4542,-2.4349,-2.6254,-2.6543,-2.5942,-2.6707,-2.6748,-2.6243,-2.5168,-2.4553,-2.4059,-2.3343,-2.3091,-2.3091,-2.3091,-2.3091,-2.3091,-2.3091,-2.3091,-2.3091,-2.3091,-2.3091,-2.3091,-2.3091,-2.3091,-2.3091,-2.3091,-2.3091,-2.3091,-2.3091,-2.3091,-2.3091,-2.3091,-2.3091,-2.3091,-2.3091,-2.3091,-2.3091,-2.3091,-2.3091,-2.3091,-2.3091,-2.2721,-2.2402,-2.2129,-2.1445,-2.1025,-2.1025,-2.0195,-1.9249,-1.8219,-1.7415,-1.6652,-1.5916,-1.575,-1.5555,-1.5401,-1.5282,-1.4609,-1.3488,-1.2691,-1.2198,0.0,-0.5481,-0.5599,-0.5454,-0.523,0.0,0.0,0.0,0.0,-0.5819,-0.6992,-0.8155,-0.8878,-0.9706,-1.0708,-1.1976,-1.3379,0.0,0.0,0.0,0.0,0.0,0.0,0.0,0.0,0.0,0.0,0.0,0.0,0.0,0.0,0.0,-2.2925,-2.3091,-2.3507,-2.4092,-2.4787,-2.521,-2.521,-2.4787,-2.4787,-2.4211,-2.3091,-2.3091,0.0,0.0,0.0,0.0,0.0,-2.4039,-2.4006,-2.3877,-2.5305,-2.542,-2.4872,-2.5588,-2.5672,-2.5336,-2.4467,-2.3963,-2.3681,-2.3266,-2.3091,-2.3091,-2.3091,-2.3091,-2.3091,-2.3091,-2.3091,-2.3091,-2.3091,-2.3091,-2.3091,-2.3091,-2.3091,-2.3091,-2.3091,-2.3091,-2.3091,-2.3091,-2.3091,-2.3091,-2.3091,-2.3091,-2.3091,-2.3091,-2.3091,-2.3091,-2.3091,-2.3091,-2.3091,-2.3091,-2.2867,-2.2711,-2.2711,-2.1775,-2.1122,-2.0996,-2.0312,-1.9449,-1.8439,-1.7604,-1.6738,-1.5691,-1.5345,-1.5021,-1.4629,-1.4271,-1.3774,-1.3164,-1.2556,-1.2204,0.0,0.0,0.0,0.0,0.0,0.0,0.0,0.0,0.0,0.0,-0.7082,-0.8016,-0.944,-1.0252,-1.1048,-1.2168,-1.3494,0.0,0.0,0.0,0.0,0.0,0.0,0.0,0.0,0.0,0.0,0.0,0.0,0.0,0.0,0.0,-2.2691,-2.3081,-2.4135,-2.467,-2.467,-2.5724,-2.5724,-2.467,-2.467,-2.4125,-2.3091,-2.3091,0.0,0.0,0.0,0.0,0.0,-2.3551,-2.3714,-2.467,-2.467,-2.467,-2.467,-2.467,-2.5336,-2.5975,-2.3844,-2.38,-2.45,-2.343,-2.3091,-2.3091,-2.3091,-2.3091,-2.3091,-2.3091,-2.3091,-2.3091,-2.3091,-2.3091,-2.3091,-2.3091,-2.3091,-2.3091,-2.3091,-2.3091,-2.3091,-2.3091,-2.3091,-2.3091,-2.3091,-2.3091,-2.3091,-2.3091,-2.3091,-2.3091,-2.3091,-2.3091,-2.3091,-2.3091,-2.3091,-2.3081,-2.3052,-2.1941,-2.1103,-2.0723,-2.0225,-1.9525,-1.8561,-1.7714,-1.6809,-1.5843,-1.5353,-1.4629,-1.3709,-1.2769,-1.2305,-1.2305,-1.2305,-1.2305,0.0,0.0,0.0,0.0,0.0,0.0,0.0,0.0,0.0,0.0,0.0,-0.8627,-0.959,-1.0717,-1.2011,-1.3505,0.0,0.0,0.0,0.0,0.0,0.0,0.0,0.0,0.0,0.0,0.0,0.0,0.0,0.0,0.0,0.0,-2.2994,-2.3091,-2.3343,-2.3507,-2.3507,-2.3767,-2.3767,-2.3507,-2.3507,-2.3343,-2.3091,-2.3091,0.0,0.0,0.0,0.0,-2.3464,-2.3222,-2.3266,-2.3507,-2.3507,-2.3507,-2.3507,-2.3507,-2.3681,-2.38,-2.3309,-2.3266,-2.3474,-2.3178,-2.3091,-2.3091,-2.3091,-2.3091,-2.3091,-2.3091,-2.3091,-2.3091,-2.3091,-2.3091,-2.3091,-2.3091,-2.3091,-2.3091,-2.3091,-2.3091,-2.3091,-2.3091,-2.3091,-2.3091,-2.3091,-2.3091,-2.3091,-2.3091,-2.3091,-2.3091,-2.3091,-2.3091,-2.3091,-2.3091,-2.3091,-2.2964,-2.2685,-2.209,-2.1689,-2.1582,-2.0889,-1.9975,-1.894,-1.8131,-1.7215,-1.6133,-1.4757,-1.3954,-1.3709,-1.2769,-1.2305,-1.2305,-1.2305,-1.2305,0.0,0.0,0.0,0.0,0.0,0.0,0.0,0.0,0.0,0.0,0.0,0.0,-1.0319,0.0,0.0,0.0,0.0,0.0,0.0,0.0,0.0,0.0,0.0,0.0,0.0,0.0,0.0,0.0,0.0,0.0,0.0,0.0,-2.2896,-2.3091,-2.3091,-2.3091,-2.3091,-2.3091,-2.3091,-2.3091,-2.3091,-2.3091,-2.3091,-2.3091,0.0,0.0,0.0,0.0,-2.3091,-2.3091,-2.3091,-2.3091,-2.3091,-2.3091,-2.3091,-2.3091,-2.3091,-2.3091,-2.3091,-2.3091,-2.3091,-2.3091,-2.3091,-2.3091,-2.3091,-2.3237,-2.3398,-2.3149,-2.3091,-2.3091,-2.3091,-2.3091,-2.3091,-2.3091,-2.3091,-2.3091,-2.3091,-2.3091,-2.3091,-2.3091,-2.3091,-2.3091,-2.3091,-2.3091,-2.3091,-2.3091,-2.3091,-2.3091,-2.3091,-2.3091,-2.3091,-2.3091,-2.3091,-2.3003,-2.2779,-2.2412,-2.2002,-2.1611,-2.1133,-2.0536,-1.9775,-1.9146,-1.8136,-1.6704,-1.5154,-1.4386,-1.4386,-1.3565,-1.3344,-1.3637,-1.3495,-1.351,0.0,0.0,0.0,0.0,0.0,0.0,0.0,0.0,0.0,0.0,0.0,0.0,0.0,0.0,0.0,0.0,0.0,0.0,0.0,0.0,0.0,0.0,0.0,0.0,0.0,0.0,0.0,0.0,0.0,0.0,0.0,0.0,0.0,-2.3333,-2.3517,-2.3531,-2.3288,-2.3313,-2.3343,-2.3343,-2.356,-2.3637,-2.3594,-2.343,-2.3343,0.0,0.0,0.0,-2.3091,-2.3091,-2.3091,-2.3091,-2.3091,-2.3091,-2.3091,-2.3091,-2.3091,-2.3091,-2.3091,-2.3091,-2.3091,-2.3091,-2.3091,-2.3091,-2.3091,-2.357,-2.4004,-2.3594,-2.3403,-2.3296,-2.3296,-2.3237,-2.3198,-2.3198,-2.314,-2.3091,-2.3091,-2.3091,-2.3091,-2.3091,-2.3091,-2.3091,-2.3091,-2.3091,-2.3091,-2.3091,-2.3091,-2.3091,-2.3091,-2.3091,-2.3091,-2.3091,-2.3091,-2.3091,-2.3091,-2.2769,-2.2204,-2.1346,-2.1229,-2.1006,-2.0527,-2.0107,-1.9161,-1.7542,-1.625,-1.5614,-1.5623,-1.4729,-1.4684,-1.5372,-1.4986,-1.5015,0.0,0.0,0.0,0.0,0.0,0.0,0.0,0.0,0.0,0.0,0.0,0.0,0.0,0.0,0.0,0.0,0.0,0.0,0.0,0.0,0.0,0.0,0.0,0.0,0.0,0.0,0.0,0.0,0.0,0.0,0.0,0.0,0.0,-2.4542,-2.5473,-2.5362,-2.4023,-2.4355,-2.4542,-2.4542,-2.5515,-2.5975,-2.5933,-2.4967,-2.4542,0.0,0.0,-2.3091,-2.3091,-2.3091,-2.3091,-2.3091,-2.3091,-2.3091,-2.3091,-2.3091,-2.3091,-2.3091,-2.3091,-2.3091,-2.3091,-2.3091,-2.3091,-2.3091,-2.3091,-2.4146,-2.5295,-2.5222,-2.4715,-2.4219,-2.4219,-2.3955,-2.3691,-2.3691,-2.3408,-2.3091,-2.3091,-2.3091,-2.3091,-2.3091,-2.3091,-2.3091,-2.3091,-2.3091,-2.3091,-2.3091,-2.3091,-2.3091,-2.3091,-2.3091,-2.3091,-2.3091,-2.3091,-2.3091,-2.3091,-2.3033,-2.2643,-2.1836,-2.1405,-2.083,-2.0049,-1.9951,-1.9603,-1.9008,-1.8,-1.7484,-1.7484,-1.5607,-1.5218,-1.6175,-1.5234,-1.5303,-0.7181,-0.8045,0.0,0.0,0.0,0.0,0.0,0.0,0.0,0.0,0.0,0.0,0.0,0.0,0.0,0.0,0.0,0.0,0.0,0.0,0.0,0.0,0.0,0.0,0.0,0.0,0.0,0.0,0.0,0.0,0.0,0.0,0.0,0.0,-2.4632,-2.467,-2.4534,-2.5314,-2.499,-2.3576,-2.5563,-2.6182,-2.5588,-2.5672,-2.5378,-2.4787,0.0,-2.3681,-2.3091,-2.3091,-2.3091,-2.3091,-2.3091,-2.3464,-2.4006,-2.4006,-2.4006,-2.392,-2.3299,-2.3091,-2.3222,-2.3844,-2.4006,-2.4135,-2.4766,-2.5851,-2.6846,-2.6846,-2.6138,-2.5426,-2.5426,-2.4806,-2.4072,-2.3838,-2.3633,-2.3428,-2.3149,-2.3091,-2.3091,-2.3091,-2.3091,-2.3091,-2.3091,-2.3091,-2.3091,-2.3091,-2.3091,-2.3091,-2.3091,-2.3091,-2.3091,-2.3091,-2.3091,-2.3091,-2.3091,-2.3091,-2.2783,-2.1934,-2.125,-2.0693,-2.0283,-2.0039,-1.9824,-1.9629,-1.898,-1.8645,-1.8645,-1.7331,-1.7123,-1.7952,-1.6727,-1.6499,-0.7821,-0.9039,0.0,0.0,0.0,0.0,0.0,0.0,0.0,0.0,0.0,0.0,0.0,0.0,0.0,0.0,0.0,0.0,0.0,0.0,0.0,0.0,0.0,0.0,0.0,0.0,0.0,0.0,0.0,0.0,0.0,0.0,0.0,0.0,-2.4353,-2.4642,-2.5034,-2.6264,-2.5586,-2.3131,-2.5772,-2.6497,-2.5456,-2.6168,-2.6016,-2.5168,-2.4628,-2.392,-2.3091,-2.3091,-2.3091,-2.3135,-2.3387,-2.4178,-2.521,-2.521,-2.521,-2.5083,-2.4178,-2.3887,-2.4059,-2.4914,-2.521,-2.5378,-2.6224,-2.7287,-2.8137,-2.8137,-2.761,-2.7061,-2.702,-2.5943,-2.4774,-2.4446,-2.4004,-2.3545,-2.3169,-2.3091,-2.3091,-2.3091,-2.3091,-2.3091,-2.3091,-2.3091,-2.3091,-2.3091,-2.3091,-2.3091,-2.3091,-2.3091,-2.3091,-2.3091,-2.3091,-2.3091,-2.3091,-2.3003,-2.2715,-2.207,-2.1211,-2.0713,-2.0605,-2.0244,-2.0068,-2.0068,-1.9746,-1.959,-1.959,-1.8822,-1.8851,-1.9563,-1.8031,-1.7562,-0.883,-1.0129,0.0,0.0,0.0,0.0,0.0,0.0,0.0,0.0,0.0,0.0,0.0,0.0,0.0,0.0,0.0,0.0,0.0,0.0,0.0,0.0,0.0,0.0,0.0,0.0,0.0,0.0,0.0,0.0,0.0,0.0,0.0,0.0,0.0,-2.7115,-2.5728,-2.7225,-2.6925,-2.4865,-2.749,-2.8229,-2.7277,-2.6759,-2.6483,-2.6265,-2.4135,-2.3178,-2.3091,-2.3091,-2.3091,-2.3222,-2.4253,-2.5378,-2.6389,-2.6389,-2.6389,-2.6359,-2.6265,-2.6276,-2.6276,-2.6348,-2.6389,-2.6389,-2.6483,-2.7577,-2.8846,-2.8846,-2.9064,-2.9312,-2.9195,-2.7668,-2.6172,-2.6141,-2.4577,-2.313,-2.3101,-2.3091,-2.3091,-2.3091,-2.3091,-2.3091,-2.3091,-2.3091,-2.3091,-2.3091,-2.3091,-2.3091,-2.3091,-2.3091,-2.3091,-2.3091,-2.3091,-2.3091,-2.3091,-2.2783,-2.2529,-2.2471,-2.1619,-2.0996,-2.0625,-2.0576,-2.0556,-2.0556,-2.0527,-2.0507,-2.0507,-1.9464,-1.9504,-2.043,-1.8315,-1.7883,-0.8609,-1.0158,0.0,0.0,0.0,0.0,0.0,0.0,0.0,0.0,0.0,0.0,0.0,0.0,0.0,0.0,0.0,0.0,0.0,0.0,0.0,0.0,0.0,0.0,0.0,0.0,0.0,0.0,0.0,0.0,0.0,0.0,0.0,0.0,0.0,-2.6199,-2.6239,-2.6826,-2.6564,-2.5518,-2.7827,-2.8543,-2.785,-2.7601,-2.7481,-2.736,-2.5126,-2.4168,-2.4082,-2.3387,-2.3507,-2.4339,-2.6149,-2.7105,-2.7481,-2.7481,-2.7481,-2.7412,-2.6719,-2.6524,-2.6595,-2.729,-2.7481,-2.7481,-2.7481,-2.8168,-2.8745,-2.8083,-2.8284,-2.881,-2.9364,-2.8372,-2.6921,-2.5948,-2.5106,-2.4274,-2.3325,-2.3091,-2.3091,-2.3091,-2.3091,-2.3091,-2.3091,-2.3091,-2.3091,-2.3091,-2.3091,-2.3091,-2.3091,-2.3091,-2.3091,-2.3091,-2.3091,-2.3091,-2.3091,-2.2945,-2.275,-2.2529,-2.1963,-2.1562,-2.1387,-2.1123,-2.0986,-2.0986,-2.0742,-2.0605,-2.0605,-1.952,-1.9204,-1.9559,-1.7334,-1.656,-0.8533,-1.0215,0.0,0.0,0.0,0.0,0.0,0.0,0.0,0.0,0.0,0.0,0.0,0.0,0.0,0.0,0.0,0.0,0.0,0.0,0.0,0.0,0.0,0.0,0.0,0.0,0.0,0.0,0.0,0.0,0.0,0.0,0.0,0.0,0.0,0.0,-2.6487,-2.6499,-2.6511,-2.653,-2.7816,-2.8223,-2.7897,-2.7693,-2.7763,-2.7964,-2.5775,-2.4787,-2.4787,-2.4339,-2.484,-2.5983,-2.751,-2.8307,-2.8636,-2.8636,-2.8636,-2.8518,-2.7799,-2.7545,-2.7666,-2.8398,-2.8636,-2.8557,-2.8215,-2.8345,-2.8415,-2.7353,-2.7307,-2.7736,-2.8456,-2.8094,-2.7301,-2.626,-2.5602,-2.4807,-2.3412,-2.3091,-2.3091,-2.3091,-2.3091,-2.3091,-2.3091,-2.3091,-2.3091,-2.3091,-2.3091,-2.3091,-2.3091,-2.3091,-2.3091,-2.3091,-2.3091,-2.3091,-2.3091,-2.3091,-2.2974,-2.2734,-2.2441,-2.2168,-2.1894,-2.112,-2.0678,-2.0678,-1.9933,-1.9559,-1.9559,-1.8829,-1.847,-1.843,-1.6552,-1.5696,-0.8811,0.0,0.0,0.0,0.0,0.0,0.0,0.0,0.0,0.0,0.0,0.0,0.0,0.0,0.0,0.0,0.0,0.0,0.0,0.0,0.0,0.0,0.0,0.0,0.0,0.0,0.0,0.0,0.0,0.0,0.0,0.0,0.0,0.0,0.0,0.0,-2.6499,-2.6499,-2.7052,-2.8097,-2.7544,-2.7372,-2.7514,-2.6817,-2.7116,-2.8004,-2.5775,-2.483,-2.4914,-2.6058,-2.7128,-2.8096,-2.8124,-2.8806,-2.9792,-2.9792,-2.9792,-2.9792,-2.9792,-2.9792,-2.9792,-2.9792,-2.9792,-2.9585,-2.8426,-2.8084,-2.7844,-2.676,-2.6483,-2.6483,-2.6472,-2.6883,-2.7285,-2.7285,-2.602,-2.45,-2.3343,-2.3091,-2.3091,-2.3091,-2.3091,-2.3091,-2.3091,-2.3091,-2.3091,-2.3091,-2.3091,-2.3091,-2.3091,-2.3091,-2.3091,-2.3091,-2.3091,-2.3091,-2.3091,-2.3091,-2.3091,-2.3091,-2.3091,-2.2721,-2.1934,-2.0397,-1.9584,-1.9593,-1.8096,-1.7302,-1.7302,-1.7302,-1.7302,-1.7261,-1.6191,-1.5696,-0.8889,0.0,0.0,0.0,0.0,0.0,0.0,0.0,0.0,0.0,0.0,0.0,0.0,0.0,0.0,0.0,0.0,0.0,0.0,0.0,0.0,0.0,0.0,0.0,0.0,0.0,0.0,0.0,0.0,0.0,0.0,0.0,0.0,0.0,0.0,0.0,-2.6499,-2.6499,-2.6851,-2.7532,-2.7758,-2.8288,-2.9079,-2.7695,-2.7881,-2.9157,-2.6964,-2.6419,-2.7145,-2.7481,-2.7804,-2.8176,-2.8976,-2.9495,-2.9792,-2.9792,-2.9792,-2.9792,-2.9792,-2.9792,-2.9792,-2.9792,-2.9792,-2.9456,-2.7545,-2.6953,-2.6584,-2.4638,-2.4102,-2.4307,-2.5094,-2.5444,-2.554,-2.554,-2.5147,-2.45,-2.3343,-2.3091,-2.3091,-2.3091,-2.3091,-2.3091,-2.3091,-2.3091,-2.3091,-2.3091,-2.3091,-2.3091,-2.3091,-2.3091,-2.3091,-2.3091,-2.3091,-2.3091,-2.3091,-2.3091,-2.2721,-2.1889,-2.1845,-2.1743,-2.1503,-2.0522,-1.9687,-1.9056,-1.7904,-1.7425,-1.7639,-1.6637,-1.6191,-1.615,-1.5054,-1.4573,0.0,0.0,0.0,0.0,0.0,0.0,0.0,0.0,0.0,0.0,0.0,0.0,0.0,0.0,0.0,0.0,0.0,0.0,0.0,0.0,0.0,0.0,0.0,0.0,0.0,0.0,0.0,0.0,0.0,0.0,0.0,0.0,0.0,0.0,0.0,0.0,-2.6499,-2.6499,-2.6889,-2.7607,-2.7507,-2.8273,-2.974,-2.827,-2.8424,-2.9714,-2.7907,-2.7618,-2.8412,-2.8171,-2.8215,-2.8502,-2.9447,-2.9792,-2.9792,-2.9792,-2.9792,-2.9792,-2.9792,-2.9792,-2.9792,-2.9792,-2.9792,-2.9456,-2.7666,-2.7128,-2.6666,-2.4425,-2.38,-2.3844,-2.4049,-2.4125,-2.4253,-2.4702,-2.4787,-2.45,-2.3343,-2.3091,-2.3091,-2.3091,-2.3091,-2.3091,-2.3091,-2.3091,-2.3091,-2.3091,-2.3091,-2.3091,-2.3091,-2.3091,-2.3091,-2.3091,-2.3091,-2.3091,-2.3091,-2.3091,-2.2775,-2.2076,-2.2031,-2.1578,-2.0621,-1.958,-1.8756,-1.8179,-1.6977,-1.6434,-1.6502,-1.5622,-1.5175,-1.5061,-1.4412,-1.4088,0.0,0.0,0.0,0.0,0.0,0.0,0.0,0.0,0.0,0.0,0.0,0.0,0.0,0.0,0.0,0.0,0.0,0.0,0.0,0.0,0.0,0.0,0.0,0.0,0.0,0.0,0.0,0.0,0.0,0.0,0.0,0.0,0.0,0.0,0.0,0.0,-2.6411,-2.6411,-2.6952,0.0,-2.7027,-2.7643,-2.9527,-2.8557,-2.8697,-2.9665,-2.8555,-2.8405,-2.885,-2.8358,-2.8504,-2.9026,-2.9591,-2.9792,-2.9792,-2.9792,-2.9792,-2.9792,-2.9792,-2.9792,-2.9792,-2.9792,-2.9792,-2.9585,-2.8438,-2.8044,-2.751,-2.541,-2.4745,-2.4414,-2.3387,-2.3091,-2.3343,-2.4414,-2.467,-2.4372,-2.3299,-2.3091,-2.3091,-2.3091,-2.3091,-2.3091,-2.3091,-2.3091,-2.3091,-2.3091,-2.3091,-2.3091,-2.3091,-2.3091,-2.3091,-2.3091,-2.3091,-2.3091,-2.3091,-2.3091,-2.3047,-2.295,-2.295,-2.1908,-1.9579,-1.8151,-1.7259,-1.707,-1.5691,-1.483,-1.4563,-1.4563,-1.4409,-1.4128,-1.4128,-1.4128,0.0,0.0,0.0,0.0,0.0,0.0,0.0,0.0,0.0,0.0,0.0,0.0,0.0,0.0,0.0,0.0,0.0,0.0,0.0,0.0,0.0,0.0,0.0,0.0,0.0,0.0,0.0,0.0,0.0,0.0,0.0,0.0,0.0,0.0,0.0,-2.5247,-2.5774,-2.5787,-2.616,0.0,-2.7052,-2.7392,-2.7833,-2.8027,-2.8462,-2.9051,-2.8375,-2.84,-2.89,-2.8773,-2.9099,-2.9616,-2.9741,-2.9792,-2.9792,-2.9792,-2.9792,-2.9792,-2.9792,-2.9792,-2.9792,-2.9792,-2.9792,-2.9585,-2.8438,-2.7522,-2.6543,-2.521,-2.4168,-2.343,-2.3178,-2.3091,-2.3178,-2.343,-2.3464,-2.3387,-2.3135,-2.3091,-2.3091,-2.3091,-2.3091,-2.3091,-2.3091,-2.3091,-2.3091,-2.3091,-2.3091,-2.3091,-2.3091,-2.3091,-2.3091,-2.3091,-2.3091,-2.3091,-2.3091,-2.3091,-2.2677,-2.1756,-2.1712,-2.1033,-1.9534,-1.897,-1.7878,-1.6141,-1.5361,-1.4975,-1.4914,-1.4914,-1.4716,-1.4429,-1.4429,-1.4429,0.0,0.0,0.0,0.0,0.0,0.0,0.0,0.0,0.0,0.0,0.0,0.0,0.0,0.0,0.0,0.0,0.0,0.0,0.0,0.0,0.0,0.0,0.0,0.0,0.0,0.0,0.0,0.0,0.0,0.0,0.0,0.0,0.0,0.0,-2.4537,-2.4682,-2.5222,-2.5473,-2.5887,-2.6499,-2.6788,-2.7065,-2.7341,-2.7858,-2.826,-2.8511,-2.8235,-2.8273,-2.8536,-2.8536,-2.8863,-2.9377,-2.9377,-2.9553,-2.9792,-2.9792,-2.9792,-2.9792,-2.9792,-2.9792,-2.9792,-2.9792,-2.9792,-2.9702,-2.9106,-2.8148,-2.7046,-2.5922,-2.4798,-2.38,-2.3266,-2.3091,-2.3091,-2.3091,-2.3091,-2.3091,-2.3091,-2.3091,-2.3091,-2.3091,-2.3091,-2.3091,-2.3091,-2.3091,-2.3091,-2.3091,-2.3091,-2.3091,-2.3091,-2.3091,-2.3091,-2.3091,-2.3091,-2.3091,-2.3091,-2.3091,-2.2818,-2.2217,-2.2173,-2.1623,-2.0395,-2.0205,-1.9072,-1.6756,-1.5857,-1.5311,-1.517,-1.517,-1.5017,-1.473,-1.473,-1.4656,0.0,0.0,0.0,0.0,0.0,0.0,0.0,0.0,0.0,0.0,0.0,0.0,0.0,0.0,0.0,0.0,0.0,0.0,0.0,0.0,0.0,0.0,0.0,0.0,0.0,0.0,0.0,0.0,0.0,0.0,0.0,0.0,-2.338,-2.4462,-2.4092,-2.4117,-2.4669,-2.5197,-2.5749,-2.6348,-2.6449,-2.6738,-2.719,-2.7607,-2.7871,-2.7959,-2.7858,-2.7871,-2.7959,-2.7959,-2.8285,-2.8762,-2.885,-2.9227,-2.9654,-2.9754,-2.9792,-2.9792,-2.9792,-2.9792,-2.9792,-2.9792,-2.9792,-2.9753,-2.9573,-2.8727,-2.7602,-2.6513,-2.5389,-2.4296,-2.3343,-2.3091,-2.3091,-2.3091,-2.3091,-2.3091,-2.3091,-2.3091,-2.3091,-2.3091,-2.3091,-2.3091,-2.3091,-2.3091,-2.3091,-2.3091,-2.3091,-2.3091,-2.3091,-2.3091,-2.3091,-2.3091,-2.3091,-2.3091,-2.3091,-2.3091,-2.3091,-2.3091,-2.3091,-2.2633,-2.1658,-2.1426,-2.026,-1.8048,-1.6756,-1.6007,-1.5706,-1.5537,-1.5317,-1.5082,-1.5082,-1.4883,0.0,0.0,0.0,0.0,0.0,0.0,0.0,0.0,0.0,0.0,0.0,0.0,0.0,0.0,0.0,0.0,0.0,0.0,0.0,0.0,0.0,0.0,0.0,0.0,0.0,0.0,0.0,0.0,0.0,0.0,0.0,-2.2023,-2.2445,-2.329,-2.3258,-2.3496,-2.4104,-2.4657,-2.5197,-2.5724,-2.6248,-2.6537,-2.6612,-2.6688,-2.6977,-2.7369,-2.6927,-2.6989,-2.7394,-2.7394,-2.772,-2.826,-2.87,-2.8938,-2.9063,-2.9616,-2.9792,-2.9792,-2.9792,-2.9792,-2.9792,-2.9792,-2.9792,-2.9624,-2.8636,-2.7574,-2.6472,-2.5336,-2.4221,-2.3299,-2.3135,-2.3091,-2.3091,-2.3091,-2.3091,-2.3091,-2.3091,-2.3091,-2.3091,-2.3091,-2.3091,-2.3091,-2.3091,-2.3091,-2.3091,-2.3091,-2.3091,-2.3091,-2.3091,-2.3091,-2.3091,-2.3091,-2.3091,-2.3091,-2.3091,-2.3091,-2.3091,-2.3091,-2.3091,-2.3047,-2.2862,-2.1845,-2.0666,-1.9268,-1.8095,-1.7281,-1.698,-1.6139,-1.5625,-1.5337,-1.5337,-1.5184,0.0,0.0,0.0,0.0,0.0,0.0,0.0,0.0,0.0,0.0,0.0,0.0,0.0,0.0,0.0,0.0,0.0,0.0,0.0,0.0,0.0,0.0,0.0,0.0,0.0,0.0,0.0,0.0,0.0,0.0,-2.1877,-2.2322,-2.272,-2.3078,-2.3108,-2.3233,-2.3484,-2.4067,-2.477,-2.5598,-2.6223,-2.6499,-2.6499,-2.6499,-2.6625,-2.6839,-2.66,-2.6801,-2.7291,-2.6989,-2.7331,-2.8134,-2.8373,-2.8624,-2.8963,-2.9578,-2.9792,-2.9792,-2.9792,-2.9792,-2.9792,-2.9792,-2.9792,-2.9702,-2.9197,-2.8279,-2.7279,-2.6767,-2.587,-2.4851,-2.4211,-2.4049,-2.4049,-2.4049,-2.4049,-2.4049,-2.4049,-2.3551,-2.3091,-2.3091,-2.3091,-2.3091,-2.3091,-2.3091,-2.3091,-2.3091,-2.3091,-2.3091,-2.3091,-2.3091,-2.3091,-2.3091,-2.3091,-2.3091,-2.3091,-2.3091,-2.3091,-2.3091,-2.3091,-2.2818,-2.2129,-2.2217,-2.14,-1.9542,-1.8319,-1.7292,-1.6397,-1.5994,-1.5718,-1.5631,-1.5471,-1.5244,0.0,0.0,0.0,0.0,0.0,0.0,0.0,0.0,0.0,0.0,0.0,0.0,0.0,0.0,0.0,0.0,0.0,0.0,0.0,0.0,0.0,0.0,0.0,0.0,0.0,0.0,0.0,0.0,0.0,0.0,-2.2187,-2.275,-2.3108,-2.3108,-2.3108,-2.3108,-2.3108,-2.3841,-2.4745,-2.5824,-2.6285,-2.6499,-2.6499,-2.6499,-2.6499,-2.6499,-2.6499,-2.6725,-2.7077,-2.6663,-2.6977,-2.772,-2.7996,-2.836,-2.8775,-2.9528,-2.9792,-2.9792,-2.9792,-2.9792,-2.9792,-2.9792,-2.9792,-2.9753,-2.9456,-2.8767,-2.8044,-2.7763,-2.6912,-2.5891,-2.4999,-2.4787,-2.4787,-2.4787,-2.4999,-2.5168,-2.4872,-2.392,-2.3091,-2.3091,-2.3091,-2.3091,-2.3091,-2.3091,-2.3091,-2.3091,-2.3091,-2.3091,-2.3091,-2.3091,-2.3091,-2.3091,-2.3091,-2.3091,-2.3091,-2.3091,-2.296,-2.2677,-2.2633,-2.2076,-2.089,-2.1721,-2.1177,-1.9085,-1.8141,-1.7225,-1.6292,-1.5967,-1.5784,-1.5778,-1.5605,-1.5351,0.0,0.0,0.0,0.0,0.0,0.0,0.0,0.0,0.0,0.0,0.0,0.0,0.0,0.0,0.0,0.0,0.0,0.0,0.0,0.0,0.0,0.0,0.0,0.0,0.0,0.0,0.0,0.0,0.0,0.0,-2.301,-2.3078,-2.3108,-2.3108,-2.3108,-2.3108,-2.3108,-2.4199,-2.5335,-2.6449,-2.6474,-2.6499,-2.6499,-2.6499,-2.6499,-2.6499,-2.6499,-2.6512,-2.6537,-2.6499,-2.6524,-2.6688,-2.7695,-2.8122,-2.8285,-2.939,-2.9792,-2.9792,-2.9792,-2.9792,-2.9792,-2.9792,-2.9792,-2.9585,-2.8518,-2.8136,-2.7896,-2.6883,-2.5755,-2.4872,-2.483,-2.4787,-2.4787,-2.4787,-2.5641,-2.6099,-2.5041,-2.392,-2.3091,-2.3091,-2.3091,-2.3091,-2.3091,-2.3091,-2.3091,-2.3091,-2.3091,-2.3091,-2.3091,-2.3091,-2.3091,-2.3091,-2.3091,-2.3091,-2.3091,-2.3091,-2.2633,-2.148,-2.1382,-2.0845,-1.9625,-1.9633,-1.9093,-1.7824,-1.7731,-1.7692,-1.7598,-1.6386,-1.5784,-1.5784,-1.5764,-1.5651,0.0,0.0,0.0,0.0,0.0,0.0,0.0,0.0,0.0,0.0,0.0,0.0,0.0,0.0,0.0,0.0,0.0,0.0,0.0,0.0,0.0,0.0,0.0,0.0,0.0,0.0,0.0,0.0,0.0,0.0,-2.307,-2.3108,-2.3108,-2.3108,-2.3108,-2.3108,-2.3108,-2.4224,-2.4988,-2.5423,-2.616,-2.6298,-2.59,-2.59,-2.59,-2.59,-2.59,-2.6147,-2.6499,-2.6499,-2.6499,-2.6562,-2.7281,-2.7795,-2.8197,-2.895,-2.9478,-2.9792,-2.9792,-2.9792,-2.9792,-2.9792,-2.9792,-2.9702,-2.9314,-2.9197,-2.9106,-2.8752,-2.8331,-2.7827,-2.7105,-2.6408,-2.588,-2.588,-2.6748,-2.74,-2.7023,-2.5493,-2.3963,-2.3266,-2.3091,-2.3091,-2.3091,-2.3091,-2.3091,-2.3091,-2.3091,-2.3091,-2.3091,-2.3091,-2.3091,-2.3091,-2.3091,-2.3091,-2.3091,-2.3091,-2.2589,-2.1391,-2.1293,-2.0395,-1.8411,-1.9093,-1.8542,-1.6527,-1.7271,-1.7318,-1.648,-1.6015,-1.5784,-1.5778,-1.5638,-1.5498,0.0,0.0,0.0,0.0,0.0,0.0,0.0,0.0,0.0,0.0,0.0,0.0,0.0,0.0,0.0,0.0,0.0,0.0,0.0,0.0,0.0,0.0,0.0,0.0,0.0,0.0,0.0,0.0,0.0,0.0,-2.3058,-2.3108,-2.3108,-2.3108,-2.3108,-2.3195,-2.3396,-2.4136,-2.4612,-2.48,-2.5561,-2.5711,-2.5335,-2.5523,-2.5598,-2.5598,-2.5799,-2.6135,-2.6499,-2.6499,-2.6499,-2.6549,-2.7102,-2.762,-2.8172,-2.8687,-2.9289,-2.9792,-2.9792,-2.9792,-2.9792,-2.9792,-2.9792,-2.9792,-2.9792,-2.9792,-2.9792,-2.9792,-2.9534,-2.9067,-2.8307,-2.7279,-2.6524,-2.6524,-2.7046,-2.7441,-2.7064,-2.5817,-2.4585,-2.3844,-2.3343,-2.3091,-2.3091,-2.3091,-2.3091,-2.3091,-2.3091,-2.3091,-2.3091,-2.3091,-2.3091,-2.3091,-2.3091,-2.3091,-2.3091,-2.3091,-2.2589,-2.1391,-2.1293,-2.0215,-1.7777,-1.8457,-1.7894,-1.5825,-1.6622,-1.6669,-1.5784,-1.5784,-1.5784,-1.5778,-1.5631,-1.5538,0.0,0.0,0.0,0.0,0.0,0.0,0.0,0.0,0.0,0.0,0.0,0.0,0.0,0.0,0.0,0.0,0.0,0.0,0.0,0.0,0.0,0.0,0.0,0.0,0.0,0.0,0.0,0.0,0.0,-2.197,-2.3045,-2.3108,-2.3108,-2.3108,-2.3108,-2.3371,-2.3966,-2.3991,-2.4268,-2.4763,-2.4775,-2.4775,-2.4775,-2.5322,-2.5548,-2.5598,-2.6197,-2.6461,-2.6499,-2.6499,-2.6499,-2.6549,-2.709,-2.7607,-2.8172,-2.8662,-2.9289,-2.9792,-2.9792,-2.9792,-2.9792,-2.9792,-2.9792,-2.9792,-2.9792,-2.9792,-2.9792,-2.9792,-2.8988,-2.8136,-2.8124,-2.736,-2.6595,-2.6524,-2.6513,-2.6224,-2.5083,-2.483,-2.4787,-2.4745,-2.3844,-2.3091,-2.3091,-2.3091,-2.3091,-2.3091,-2.3091,-2.3091,-2.3091,-2.3091,-2.3091,-2.3091,-2.3091,-2.3091,-2.3091,-2.3091,-2.2589,-2.1391,-2.1293,-2.0215,-1.7777,-1.7731,-1.7131,-1.5832,-1.5825,-1.5825,-1.5784,-1.5784,-1.5784,-1.5784,-1.5784,-1.5784,-0.9151,0.0,0.0,0.0,0.0,0.0,0.0,0.0,0.0,0.0,0.0,0.0,0.0,0.0,0.0,0.0,0.0,0.0,0.0,0.0,0.0,0.0,0.0,0.0,0.0,0.0,0.0,0.0,-2.1493,-2.197,-2.3045,-2.3108,-2.3108,-2.3108,-2.3108,-2.3183,-2.3346,-2.3791,-2.4067,-2.423,-2.46,-2.4587,-2.423,-2.4368,-2.4657,-2.5046,-2.5209,-2.5724,-2.6499,-2.6499,-2.6499,-2.6512,-2.6663,-2.7304,-2.8122,-2.8285,-2.895,-2.9792,-2.9792,-2.9792,-2.9792,-2.9792,-2.9792,-2.9792,-2.9792,-2.9792,-2.9792,-2.9792,-2.9573,-2.9157,-2.8295,-2.8478,-2.8462,-2.6894,-2.7087,-2.736,-2.6254,-2.5378,-2.4542,-2.3714,-2.3299,-2.3091,-2.3091,-2.3091,-2.3091,-2.3091,-2.3091,-2.3091,-2.3091,-2.3091,-2.3091,-2.3091,-2.3091,-2.3091,-2.3091,-2.3091,-2.2589,-2.1391,-2.1293,-2.0215,-1.7777,-1.8549,-1.7987,-1.5825,-1.6716,-1.6709,-1.5784,-1.5784,-1.5784,-1.5784,-1.5784,-1.5784,0.0,0.0,0.0,0.0,0.0,0.0,0.0,-1.3455,0.0,0.0,0.0,0.0,0.0,0.0,0.0,0.0,0.0,0.0,0.0,0.0,0.0,0.0,0.0,0.0,0.0,0.0,0.0,0.0,-2.1169,-2.1631,-2.2706,-2.2982,-2.3108,-2.3108,-2.3108,-2.3108,-2.3108,-2.3446,-2.364,-2.364,-2.3935,-2.3923,-2.364,-2.3891,-2.4167,-2.4506,-2.4946,-2.5511,-2.6147,-2.6399,-2.6499,-2.6499,-2.6499,-2.7027,-2.7795,-2.8021,-2.8662,-2.9465,-2.9704,-2.9792,-2.9792,-2.9792,-2.9792,-2.9792,-2.9792,-2.9792,-2.9792,-2.9792,-2.9792,-2.9534,-2.8386,-2.8279,-2.7959,-2.6213,-2.5922,-2.5828,-2.5221,-2.4553,-2.4049,-2.3844,-2.343,-2.3091,-2.3091,-2.3091,-2.3091,-2.3091,-2.3091,-2.3091,-2.3091,-2.3091,-2.3091,-2.3091,-2.3091,-2.3091,-2.3091,-2.3091,-2.2818,-2.2076,-2.1569,-2.044,-1.8549,-1.8634,-1.7809,-1.5825,-1.6527,-1.6527,-1.5784,-1.5784,-1.5784,-1.5784,-1.5784,-1.5784,0.0,0.0,0.0,0.0,0.0,0.0,-1.1705,-1.2358,-1.2879,0.0,0.0,0.0,0.0,0.0,0.0,0.0,0.0,0.0,0.0,0.0,0.0,0.0,0.0,0.0,0.0,0.0,-1.9048,-2.048,-2.0715,-2.1232,-2.2259,-2.2744,-2.3045,-2.3108,-2.3108,-2.3108,-2.3108,-2.3108,-2.3108,-2.3108,-2.3108,-2.3108,-2.312,-2.3665,-2.3941,-2.4054,-2.5071,-2.5536,-2.5636,-2.6248,-2.6499,-2.6499,-2.6499,-2.6839,-2.7344,-2.7896,-2.8448,-2.8976,-2.9591,-2.9792,-2.9792,-2.9792,-2.9792,-2.9792,-2.9792,-2.9792,-2.9792,-2.9792,-2.9792,-2.9573,-2.8557,-2.7574,-2.6554,-2.5294,-2.4211,-2.343,-2.3135,-2.3091,-2.3387,-2.4414,-2.38,-2.3091,-2.3091,-2.3091,-2.3091,-2.3091,-2.3091,-2.3091,-2.3091,-2.3091,-2.3091,-2.3091,-2.3091,-2.3091,-2.3091,-2.3091,-2.3091,-2.3091,-2.1987,-2.0755,-1.9542,-1.8457,-1.7217,-1.5832,-1.5784,-1.5784,-1.5784,-1.5784,-1.5784,-1.5784,-1.5784,-1.5784,0.0,0.0,0.0,0.0,0.0,0.0,-1.1633,-1.1927,-1.2235,0.0,0.0,0.0,0.0,0.0,0.0,0.0,0.0,0.0,0.0,0.0,0.0,0.0,0.0,0.0,0.0,0.0,-1.7734,-1.9665,-2.0751,-2.1606,-2.2284,-2.241,-2.2644,-2.3095,-2.3108,-2.3108,-2.3108,-2.3108,-2.3108,-2.3108,-2.3108,-2.3108,-2.3108,-2.3221,-2.3521,-2.4029,-2.4695,-2.5209,-2.5636,-2.6248,-2.6499,-2.6499,-2.6499,-2.6839,-2.7344,-2.7896,-2.8448,-2.8976,-2.9591,-2.9792,-2.9792,-2.9792,-2.9792,-2.9792,-2.9792,-2.9792,-2.9792,-2.9792,-2.9792,-2.9753,-2.9534,-2.9326,-2.8673,-2.6637,-2.6016,-2.5305,-2.3517,-2.3091,-2.3178,-2.3387,-2.3256,-2.3091,-2.3091,-2.3091,-2.3091,-2.3091,-2.3091,-2.3091,-2.3091,-2.3091,-2.3091,-2.3091,-2.3091,-2.3091,-2.3091,-2.3091,-2.3091,-2.3091,-2.1987,-2.0755,-1.9542,-1.9268,-1.8079,-1.5825,-1.5784,-1.5784,-1.5784,-1.5784,-1.5784,-1.5784,-1.5784,-1.5784,0.0,0.0,0.0,-1.1684,0.0,0.0,0.0,-1.1195,-1.132,0.0,0.0,0.0,0.0,0.0,0.0,0.0,0.0,0.0,0.0,0.0,0.0,0.0,0.0,0.0,0.0,0.0,-1.7244,-1.9025,-2.0607,-2.1606,-2.1882,-2.2393,-2.2819,-2.3095,-2.3108,-2.3108,-2.3108,-2.3108,-2.3108,-2.3108,-2.3108,-2.3108,-2.3108,-2.3409,-2.3715,-2.4042,-2.4858,-2.536,-2.5636,-2.6248,-2.6499,-2.6499,-2.6499,-2.6663,-2.7002,-2.7795,-2.8285,-2.8637,-2.9503,-2.9792,-2.9792,-2.9792,-2.9792,-2.9792,-2.9792,-2.9792,-2.9792,-2.9792,-2.9792,-2.9792,-2.9792,-2.9365,-2.853,-2.6883,-2.6058,-2.5179,-2.3474,-2.3091,-2.3091,-2.3091,-2.3091,-2.3091,-2.3091,-2.3091,-2.3091,-2.3091,-2.3091,-2.3091,-2.3091,-2.3091,-2.3091,-2.3091,-2.3091,-2.3091,-2.3091,-2.3091,-2.3091,-2.3091,-2.14,-2.0124,-1.9542,-1.8303,-1.707,-1.5825,-1.5784,-1.5784,-1.5784,-1.5784,-1.5784,-1.5784,-1.5784,-1.5784,0.0,0.0,0.0,0.0,0.0,-1.1909,0.0,0.0,0.0,0.0,0.0,0.0,0.0,0.0,0.0,0.0,0.0,0.0,0.0,0.0,0.0,0.0,0.0,0.0,0.0,0.0,-1.7202,-1.8394,-2.0168,-2.1204,-2.1358,-2.2284,-2.2832,-2.2945,-2.3045,-2.3108,-2.3108,-2.3108,-2.3108,-2.3108,-2.3108,-2.3108,-2.312,-2.3728,-2.4004,-2.4054,-2.5134,-2.5598,-2.5636,-2.6248,-2.6562,-2.665,-2.665,-2.665,-2.6788,-2.7858,-2.826,-2.8411,-2.944,-2.9792,-2.9792,-2.9792,-2.9792,-2.9792,-2.9792,-2.9792,-2.9792,-2.9792,-2.9792,-2.9792,-2.9792,-2.9106,-2.8148,-2.7087,-2.5964,-2.484,-2.3681,-2.3256,-2.3091,-2.3091,-2.3091,-2.3091,-2.3091,-2.3091,-2.3091,-2.3091,-2.3091,-2.3091,-2.3091,-2.3091,-2.3091,-2.3091,-2.3091,-2.3091,-2.3091,-2.3091,-2.3091,-2.3091,-2.1033,-1.9716,-1.9497,-1.7109,-1.5784,-1.5784,-1.5784,-1.5784,-1.5784,-1.5784,-1.5784,-1.5784,-1.5784,-1.5784,0.0,0.0,0.0,0.0,-1.3663,0.0,0.0,0.0,0.0,0.0,0.0,0.0,0.0,0.0,0.0,0.0,0.0,0.0,0.0,0.0,0.0,0.0,0.0,0.0,0.0,0.0,0.0,-1.7715,-1.9127,-2.0225,-2.0754,-2.137,-2.1895,-2.2385,-2.2844,-2.3108,-2.3108,-2.3108,-2.3108,-2.3108,-2.3108,-2.3108,-2.312,-2.3728,-2.4004,-2.4054,-2.5134,-2.5598,-2.5636,-2.6248,-2.6788,-2.7228,-2.7228,-2.7228,-2.7318,-2.8423,-2.88,-2.8888,-2.9566,-2.9792,-2.9792,-2.9792,-2.9792,-2.9792,-2.9792,-2.9792,-2.9792,-2.9792,-2.9792,-2.9792,-2.9792,-2.9702,-2.9326,-2.8187,-2.7075,-2.5975,-2.484,-2.38,-2.3091,-2.3091,-2.3091,-2.3091,-2.3091,-2.3091,-2.3091,-2.3091,-2.3091,-2.3091,-2.3091,-2.3091,-2.3091,-2.3091,-2.3091,-2.3091,-2.3091,-2.3091,-2.3091,-2.3091,-2.1854,-2.0621,-1.9542,-1.7109,-1.5784,-1.5784,-1.5784,-1.5784,-1.5784,-1.5784,-1.5784,-1.5784,-1.5784,-1.5784,0.0,0.0,0.0,0.0,0.0,0.0,0.0,0.0,-1.2032,0.0,0.0,0.0,0.0,0.0,0.0,0.0,0.0,0.0,0.0,0.0,0.0,0.0,0.0,0.0,0.0,0.0,0.0,0.0,0.0,-2.0578,-2.1131,-2.1669,-2.2221,-2.2744,-2.2982,-2.3108,-2.3108,-2.3108,-2.3108,-2.3108,-2.3108,-2.3283,-2.3653,-2.4217,-2.4644,-2.4971,-2.5749,-2.6135,-2.6147,-2.6399,-2.6637,-2.6876,-2.719,-2.7482,-2.7858,-2.8599,-2.8888,-2.8976,-2.9591,-2.9792,-2.9792,-2.9792,-2.9792,-2.9792,-2.9792,-2.9792,-2.9792,-2.9792,-2.9792,-2.9792,-2.9792,-2.9792,-2.9495,-2.8386,-2.7775,-2.7116,-2.6005,-2.4882,-2.4082,-2.4082,-2.3551,-2.3091,-2.3091,-2.3091,-2.3091,-2.3091,-2.3091,-2.3091,-2.3091,-2.3091,-2.3091,-2.3091,-2.3091,-2.3091,-2.3091,-2.3091,-2.3091,-2.3091,-2.1952,-2.0458,-1.8549,-1.7451,-1.6574,-1.5825,-1.5784,-1.5784,-1.5784,-1.5784,-1.5784,-1.5784,-1.5784,-1.5784,-1.6911,0.0,0.0,0.0,0.0,0.0,0.0,0.0,0.0,0.0,0.0,0.0,0.0,0.0,0.0,0.0,0.0,0.0,0.0,0.0,0.0,0.0,0.0,0.0,0.0,0.0,0.0,0.0,-1.9805,0.0,-2.1004,-2.1694,-2.2272,-2.2644,-2.2945,-2.3108,-2.3108,-2.3108,-2.3183,-2.3346,-2.3346,-2.3647,-2.4243,-2.4782,-2.5247,-2.5624,-2.6248,-2.6499,-2.6499,-2.6499,-2.6587,-2.6763,-2.7165,-2.762,-2.8172,-2.8687,-2.8988,-2.9227,-2.9641,-2.9792,-2.9792,-2.9792,-2.9792,-2.9792,-2.9792,-2.9792,-2.9792,-2.9792,-2.9585,-2.9326,-2.9326,-2.9326,-2.9118,-2.8307,-2.8096,-2.7896,-2.7128,-2.5786,-2.4787,-2.4787,-2.3877,-2.3091,-2.3091,-2.3091,-2.3091,-2.3091,-2.3091,-2.3091,-2.3091,-2.3091,-2.3091,-2.3091,-2.3091,-2.3091,-2.3091,-2.3091,-2.296,-2.2633,-2.1463,-1.9869,-1.7785,-1.7365,-1.6756,-1.5825,-1.5784,-1.5784,-1.5784,-1.5784,-1.5784,-1.5784,-1.5784,-1.5784,0.0,0.0,0.0,-1.687,0.0,0.0,0.0,0.0,-1.4833,0.0,0.0,0.0,0.0,0.0,0.0,0.0,0.0,0.0,0.0,0.0,0.0,0.0,0.0,0.0,0.0,0.0,0.0,-1.8626,-1.941,-1.9836,-1.9849,-2.0916,-2.1518,-2.1543,-2.2543,-2.3108,-2.3108,-2.3108,-2.3384,-2.3966,-2.3966,-2.4255,-2.4775,-2.5335,-2.5573,-2.5624,-2.6248,-2.6499,-2.6499,-2.6499,-2.6813,-2.7291,-2.7268,-2.762,-2.8172,-2.8687,-2.9289,-2.9767,-2.9779,-2.9792,-2.9792,-2.9792,-2.9792,-2.9792,-2.9792,-2.9792,-2.9792,-2.9792,-2.9028,-2.8164,-2.8164,-2.8164,-2.8136,-2.8124,-2.8096,-2.8096,-2.8044,-2.6356,-2.4787,-2.4787,-2.3877,-2.3091,-2.3091,-2.3091,-2.3091,-2.3091,-2.3091,-2.3091,-2.3091,-2.3091,-2.3091,-2.3091,-2.3091,-2.3091,-2.3091,-2.3091,-2.2589,-2.1426,-2.0215,-1.9001,-1.7731,-1.6527,-1.5825,-1.5784,-1.5784,-1.5784,-1.5784,-1.5784,-1.5784,-1.5784,-1.5784,-1.5784,0.0,0.0,-1.7939,-1.7613,0.0,0.0,0.0,0.0,0.0,0.0,0.0,0.0,0.0,0.0,0.0,0.0,0.0,0.0,0.0,0.0,0.0,0.0,0.0,0.0,0.0,0.0,0.0,-1.9271,-1.932,-1.961,0.0,-2.1106,-2.1656,-2.202,-2.2719,-2.3283,-2.3703,-2.3703,-2.3991,-2.4544,-2.4544,-2.482,-2.5335,-2.5523,-2.5799,-2.621,-2.6411,-2.6499,-2.6499,-2.6499,-2.66,-2.6813,-2.7178,-2.7394,-2.767,-2.8549,-2.9013,-2.9277,-2.9666,-2.9792,-2.9792,-2.9792,-2.9792,-2.9792,-2.9792,-2.9792,-2.9792,-2.9792,-2.9534,-2.9067,-2.8307,-2.8096,-2.7924,-2.7209,-2.7046,-2.7046,-2.7046,-2.587,-2.4787,-2.4787,-2.3877,-2.3091,-2.3091,-2.3091,-2.3091,-2.3091,-2.3091,-2.3091,-2.3091,-2.3091,-2.3091,-2.3091,-2.3091,-2.3091,-2.3091,-2.3091,-2.2589,-2.1391,-2.0935,-1.9807,-1.7777,-1.7271,-1.6669,-1.5825,-1.5784,-1.5784,-1.5784,-1.5784,-1.5784,-1.5784,-1.5784,-1.5784,-2.0602,-1.9746,0.0,-1.8911,-1.8687,0.0,-1.8854,0.0,0.0,0.0,0.0,0.0,0.0,0.0,0.0,0.0,0.0,0.0,0.0,0.0,0.0,0.0,0.0,0.0,0.0,0.0,-1.7155,-1.9259,-1.9332,-1.9698,0.0,0.0,-2.1744,-2.2297,-2.2819,-2.3384,-2.3991,-2.4004,-2.4368,-2.5096,-2.5096,-2.5385,-2.59,-2.59,-2.6135,-2.6499,-2.6499,-2.6499,-2.6499,-2.6499,-2.6499,-2.6524,-2.6889,-2.7027,-2.719,-2.8411,-2.9026,-2.9289,-2.9666,-2.9792,-2.9792,-2.9792,-2.9792,-2.9792,-2.9792,-2.9792,-2.9792,-2.9792,-2.9495,-2.9028,-2.8307,-2.7804,-2.7371,-2.6637,-2.6524,-2.6524,-2.6524,-2.5588,-2.4787,-2.4787,-2.3877,-2.3091,-2.3091,-2.3091,-2.3091,-2.3091,-2.3091,-2.3091,-2.3091,-2.3091,-2.3091,-2.3091,-2.3091,-2.3091,-2.3091,-2.3091,-2.2403,-2.0755,-2.0666,-1.9579,-1.7131,-1.7037,-1.6727,-1.6139,-1.5884,-1.5932,-1.6139,-1.5884,-1.5784,-1.5784,-1.5784,-1.5784]},{"header":{"parameterUnit":"m.s-1","parameterCategory":1,"la1":30.6,"la2":29.2853,"lo1":-89.7004,"lo2":-87.6739,"dx":0.0162,"dy":0.0183,"nx":112,"ny":82,"refTime":"2023-01-27T06:00:00:Z","depth":0,"parameterNumber":3,"parameterNumberName":"V-component_of_WINDS"},"data":[0.0,0.0,0.0,0.0,0.0,0.0,0.0,0.0,0.0,0.0,0.0,0.0,0.0,0.0,0.0,0.0,0.0,0.0,0.0,0.0,0.0,0.0,0.0,0.0,0.0,0.0,0.0,0.0,0.0,0.0,0.0,0.0,0.0,0.0,0.0,0.0,0.0,0.0,0.0,0.0,0.0,0.0,0.0,0.0,0.0,0.0,0.0,0.0,0.0,0.0,0.0,0.0,0.0,0.0,0.0,0.0,0.0,0.0,0.0,0.0,0.0,0.0,0.0,0.0,0.0,0.0,0.0,0.0,0.0,0.0,0.0,0.0,0.0,0.0,0.0,0.0,0.0,0.0,0.0,0.0,0.0,0.0,0.0,0.0,0.0,0.0,0.0,0.0,0.0,0.0,0.0,1.9576,2.3339,2.5703,2.5703,2.6297,2.5624,2.3155,0.0,0.0,0.0,0.0,0.0,0.0,0.0,0.0,0.0,0.0,0.0,0.0,0.0,0.0,0.0,0.0,0.0,0.0,0.0,0.0,0.0,0.0,0.0,0.0,0.0,0.0,0.0,0.0,0.0,0.0,0.0,0.0,0.0,0.0,0.0,0.0,0.0,0.0,0.0,0.0,0.0,0.0,0.0,0.0,0.0,0.0,0.0,0.0,0.0,0.0,0.0,0.0,0.0,0.0,0.0,0.0,0.0,0.0,0.0,0.0,0.0,0.0,0.0,0.0,0.0,0.0,0.0,0.0,0.0,0.0,0.0,0.0,0.0,0.0,0.0,0.0,0.0,0.0,0.0,0.0,0.0,0.0,0.0,0.0,0.0,0.0,0.0,0.0,0.0,0.0,0.0,0.0,0.0,0.0,0.0,0.0,0.0,0.0,0.0,0.0,0.0,0.0,0.0,0.0,1.9572,2.2225,2.4414,2.5703,2.5703,2.5711,2.4942,2.3112,0.0,0.0,0.0,0.0,0.0,0.0,0.0,0.0,0.0,0.0,0.0,0.0,0.0,0.0,0.0,0.0,0.0,0.0,0.0,0.0,0.0,0.0,0.0,0.0,0.0,0.0,0.0,0.0,0.0,0.0,0.0,0.0,0.0,0.0,0.0,0.0,0.0,0.0,0.0,0.0,0.0,0.0,0.0,0.0,0.0,0.0,0.0,0.0,0.0,0.0,0.0,0.0,0.0,0.0,0.0,0.0,0.0,0.0,0.0,0.0,0.0,0.0,0.0,0.0,0.0,0.0,0.0,0.0,0.0,0.0,0.0,0.0,0.0,0.0,0.0,0.0,0.0,0.0,0.0,0.0,0.0,0.0,0.0,0.0,0.0,0.0,0.0,0.0,0.0,0.0,0.0,0.0,0.0,0.0,0.0,0.0,0.0,0.0,0.0,0.0,0.0,0.0,0.0,1.9466,2.0885,2.3515,2.4941,2.5703,2.5703,2.559,2.499,2.3789,2.3471,0.0,0.0,0.0,0.0,0.0,0.0,0.0,0.0,0.0,0.0,0.0,0.0,0.0,0.0,0.0,0.0,0.0,0.0,0.0,0.0,0.0,0.0,0.0,0.0,0.0,0.0,0.0,0.0,0.0,0.0,0.0,0.0,0.0,0.0,0.0,0.0,0.0,0.0,0.0,0.0,0.0,0.0,0.0,0.0,0.0,0.0,0.0,0.0,0.0,0.0,0.0,0.0,0.0,0.0,0.0,0.0,0.0,0.0,0.0,0.0,0.0,0.0,0.0,0.0,0.0,0.0,0.0,0.0,0.0,0.0,0.0,0.0,0.0,0.0,0.0,0.0,0.0,0.0,0.0,0.0,0.0,0.0,0.0,0.0,0.0,0.0,0.0,0.0,0.0,0.0,0.0,0.0,0.0,0.0,0.0,0.0,0.0,0.0,0.0,0.0,0.0,0.0,2.1227,2.1641,2.4414,2.5293,2.5683,2.5682,2.5215,2.4732,2.429,2.3007,0.0,0.0,0.0,0.0,0.0,0.0,0.0,0.0,0.0,0.0,0.0,0.0,0.0,0.0,0.0,0.0,0.0,0.0,0.0,0.0,0.0,0.0,0.0,0.0,0.0,0.0,0.0,0.0,0.0,0.0,0.0,0.0,0.0,0.0,0.0,0.0,0.0,0.0,0.0,0.0,0.0,0.0,0.0,0.0,0.0,0.0,0.0,0.0,0.0,0.0,0.0,0.0,0.0,0.0,0.0,0.0,0.0,0.0,0.0,0.0,0.0,0.0,0.0,0.0,0.0,0.0,0.0,0.0,0.0,0.0,0.0,0.0,0.0,0.0,0.0,0.0,0.0,0.0,0.0,0.0,0.0,0.0,0.0,0.0,0.0,0.0,0.0,0.0,0.0,0.0,0.0,0.0,0.0,0.0,0.0,0.0,0.0,0.0,0.0,0.0,0.0,0.0,2.1598,2.1894,2.5254,2.5664,2.5662,2.5606,2.4112,2.3473,2.4154,2.2383,0.0,0.0,0.0,0.0,0.0,0.0,0.0,0.0,0.0,0.0,0.0,0.0,0.0,0.0,0.0,0.0,0.0,0.0,0.0,0.0,0.0,0.0,0.0,0.0,0.0,0.0,0.0,0.0,0.0,0.0,0.0,0.0,0.0,0.0,0.0,0.0,0.0,0.0,0.0,0.0,0.0,0.0,0.0,0.0,0.0,0.0,0.0,0.0,0.0,0.0,0.0,0.0,0.0,0.0,0.0,0.0,0.0,0.0,0.0,0.0,0.0,0.0,0.0,0.0,0.0,0.0,0.0,0.0,0.0,0.0,0.0,0.0,0.0,0.0,0.0,0.0,0.0,0.0,0.0,0.0,0.0,0.0,0.0,0.0,0.0,0.0,0.0,0.0,0.0,0.0,0.0,0.0,0.0,0.0,0.0,0.0,0.0,0.0,0.0,0.0,0.0,0.0,2.2109,2.2305,0.0,2.4883,2.4881,2.4846,2.4208,2.3918,2.4183,0.0,0.0,0.0,0.0,0.0,0.0,0.0,0.0,0.0,0.0,0.0,0.0,0.0,0.0,0.0,0.0,0.0,0.0,0.0,0.0,0.0,0.0,0.0,0.0,0.0,0.0,0.0,0.0,0.0,0.0,0.0,0.0,0.0,0.0,0.0,0.0,0.0,0.0,0.0,0.0,0.0,0.0,0.0,0.0,0.0,0.0,0.0,0.0,0.0,0.0,0.0,0.0,0.0,0.0,0.0,0.0,0.0,0.0,0.0,0.0,0.0,0.0,0.0,0.0,0.0,0.0,0.0,0.0,0.0,0.0,0.0,0.0,0.0,0.0,0.0,0.0,0.0,0.0,0.0,0.0,0.0,0.0,0.0,0.0,0.0,0.0,0.0,0.0,0.0,0.0,0.0,0.0,0.0,0.0,0.0,0.0,0.0,0.0,0.0,0.0,0.0,0.0,2.2851,2.2168,2.2246,0.0,2.4374,2.4368,2.4365,2.3796,2.362,2.4049,0.0,0.0,0.0,0.0,0.0,0.0,0.0,0.0,0.0,0.0,0.0,0.0,0.0,0.0,0.0,0.0,0.0,0.0,0.0,0.0,0.0,0.0,0.0,0.0,0.0,0.0,0.0,0.0,0.0,0.0,0.0,0.0,0.0,0.0,0.0,0.0,0.0,0.0,0.0,0.0,0.0,0.0,0.0,0.0,0.0,0.0,0.0,0.0,0.0,0.0,0.0,0.0,0.0,0.0,0.0,0.0,0.0,0.0,0.0,0.0,0.0,0.0,0.0,0.0,0.0,0.0,0.0,0.0,0.0,0.0,0.0,0.0,0.0,0.0,0.0,0.0,0.0,0.0,0.0,0.0,0.0,0.0,0.0,0.0,0.0,0.0,0.0,0.0,0.0,0.0,0.0,0.0,0.0,0.0,0.0,0.0,0.0,0.0,0.0,0.0,0.0,0.0,2.2871,2.1641,2.1582,2.4102,2.4327,2.4298,2.4278,2.2643,2.2234,0.0,0.0,0.0,0.0,0.0,0.0,0.0,0.0,0.0,0.0,0.0,0.0,0.0,0.0,0.0,0.0,0.0,0.0,0.0,0.0,0.0,0.0,0.0,0.0,0.0,0.0,0.0,0.0,0.0,0.0,0.0,0.0,0.0,0.0,0.0,0.0,0.0,0.0,0.0,0.0,0.0,0.0,0.0,0.0,0.0,0.0,0.0,0.0,0.0,0.0,0.0,0.0,0.0,0.0,0.0,0.0,0.0,0.0,0.0,0.0,0.0,0.0,0.0,0.0,0.0,0.0,0.0,0.0,0.0,0.0,0.0,0.0,0.0,0.0,0.0,0.0,0.0,0.0,0.0,0.0,0.0,0.0,0.0,0.0,0.0,0.0,0.0,0.0,0.0,0.0,0.0,0.0,0.0,0.0,0.0,0.0,0.0,0.0,0.0,0.0,0.0,0.0,0.0,2.2941,2.2166,2.1797,2.2559,2.3623,2.3793,2.2563,2.2502,2.262,2.2863,0.0,0.0,0.0,0.0,0.0,0.0,0.0,0.0,0.0,0.0,0.0,0.0,0.0,0.0,0.0,0.0,0.0,0.0,0.0,0.0,0.0,0.0,0.0,0.0,0.0,0.0,0.0,0.0,0.0,0.0,0.0,0.0,0.0,0.0,0.0,0.0,0.0,0.0,0.0,0.0,0.0,0.0,0.0,0.0,0.0,0.0,0.0,0.0,0.0,0.0,0.0,0.0,0.0,0.0,0.0,0.0,0.0,0.0,0.0,0.0,0.0,0.0,0.0,0.0,0.0,0.0,0.0,0.0,0.0,0.0,0.0,0.0,0.0,0.0,0.0,0.0,0.0,0.0,0.0,0.0,0.0,0.0,0.0,0.0,0.0,0.0,0.0,0.0,0.0,0.0,0.0,0.0,0.0,0.0,0.0,0.0,0.0,0.0,0.0,0.0,0.0,0.0,2.3474,2.2568,2.2127,2.2812,2.3712,2.3715,2.2331,2.2607,2.2594,2.1935,0.0,0.0,0.0,0.0,0.0,0.0,0.0,0.0,0.0,0.0,0.0,0.0,0.0,0.0,0.0,0.0,0.0,0.0,0.0,0.0,0.0,0.0,0.0,0.0,0.0,0.0,0.0,0.0,0.0,0.0,0.0,0.0,0.0,0.0,0.0,0.0,0.0,0.0,0.0,0.0,0.0,0.0,0.0,0.0,0.0,0.0,0.0,0.0,0.0,0.0,0.0,0.0,0.0,0.0,0.0,0.0,0.0,0.0,0.0,0.0,0.0,0.0,0.0,0.0,0.0,0.0,0.0,0.0,0.0,0.0,0.0,0.0,0.0,0.0,0.0,0.0,0.0,0.0,0.0,0.0,0.0,0.0,0.0,0.0,0.0,0.0,0.0,0.0,0.0,0.0,0.0,0.0,0.0,0.0,0.0,0.0,0.0,0.0,0.0,0.0,0.0,0.0,2.4186,2.2907,2.2529,2.4121,2.4319,2.3951,2.3071,2.2888,2.2326,2.1192,0.0,0.0,0.0,0.0,0.0,0.0,0.0,0.0,0.0,0.0,0.0,0.0,0.0,0.0,0.0,0.0,0.0,0.0,0.0,0.0,0.0,0.0,0.0,0.0,0.0,0.0,0.0,0.0,0.0,0.0,0.0,0.0,0.0,0.0,0.0,0.0,0.0,0.0,0.0,0.0,0.0,0.0,0.0,0.0,0.0,0.0,0.0,0.0,0.0,0.0,0.0,0.0,0.0,0.0,0.0,0.0,0.0,0.0,0.0,0.0,1.9118,0.0,0.0,0.0,0.0,0.0,0.0,0.0,0.0,0.0,0.0,0.0,0.0,0.0,0.0,0.0,0.0,0.0,0.0,0.0,0.0,0.0,0.0,0.0,0.0,0.0,0.0,0.0,0.0,0.0,0.0,0.0,0.0,0.0,0.0,0.0,0.0,0.0,0.0,0.0,0.0,0.0,2.4118,2.3398,2.2998,2.3418,2.4516,2.4615,2.3139,2.2881,2.2575,2.2067,0.0,0.0,0.0,0.0,0.0,0.0,0.0,0.0,0.0,0.0,0.0,0.0,0.0,0.0,0.0,0.0,0.0,0.0,0.0,0.0,0.0,0.0,0.0,0.0,0.0,0.0,0.0,0.0,0.0,0.0,0.0,0.0,0.0,0.0,0.0,0.0,0.0,0.0,0.0,0.0,0.0,0.0,0.0,0.0,0.0,0.0,0.0,0.0,0.0,0.0,0.0,0.0,0.0,0.0,0.0,0.0,0.0,0.0,0.0,0.0,0.0,1.9885,0.0,0.0,0.0,0.0,0.0,0.0,0.0,0.0,0.0,0.0,0.0,0.0,0.0,0.0,0.0,0.0,0.0,0.0,0.0,0.0,0.0,0.0,0.0,0.0,0.0,0.0,0.0,0.0,0.0,0.0,0.0,0.0,0.0,0.0,0.0,0.0,0.0,0.0,0.0,0.0,2.4665,2.4138,2.3857,2.4309,2.5033,2.4985,2.3722,2.3503,2.3092,2.2356,2.2624,0.0,0.0,0.0,0.0,0.0,0.0,0.0,0.0,0.0,0.0,0.0,0.0,0.0,0.0,0.0,0.0,0.0,0.0,0.0,0.0,0.0,0.0,0.0,0.0,0.0,0.0,0.0,0.0,0.0,0.0,0.0,0.0,0.0,0.0,0.0,0.0,0.0,0.0,0.0,0.0,0.0,0.0,0.0,0.0,0.0,0.0,0.0,0.0,0.0,0.0,0.0,0.0,0.0,0.0,2.2575,2.2611,2.2611,2.2364,2.1947,2.1834,2.1495,2.1043,0.0,0.0,0.0,0.0,0.0,0.0,0.0,0.0,0.0,0.0,0.0,0.0,0.0,0.0,0.0,0.0,0.0,0.0,0.0,0.0,0.0,0.0,0.0,0.0,0.0,2.4935,2.4806,0.0,0.0,0.0,0.0,0.0,0.0,0.0,0.0,0.0,0.0,0.0,0.0,2.529,2.4769,2.4623,2.55,2.5555,2.5232,2.4564,2.4276,2.3674,2.2634,2.3182,2.3401,0.0,0.0,0.0,0.0,0.0,0.0,0.0,0.0,0.0,0.0,0.0,0.0,0.0,0.0,0.0,0.0,0.0,0.0,0.0,0.0,0.0,0.0,0.0,0.0,0.0,0.0,0.0,0.0,0.0,0.0,0.0,0.0,1.8807,1.7982,0.0,0.0,0.0,0.0,0.0,0.0,0.0,0.0,0.0,0.0,0.0,0.0,0.0,0.0,2.0853,2.1834,2.2045,2.1465,2.2574,2.2801,2.2262,2.2262,2.2657,2.3339,2.3319,0.0,2.0429,2.0429,0.0,0.0,0.0,0.0,0.0,0.0,0.0,0.0,0.0,0.0,0.0,0.0,0.0,0.0,0.0,0.0,0.0,0.0,0.0,0.0,0.0,0.0,2.3576,2.316,2.3066,2.3275,0.0,2.4746,2.5282,2.5399,0.0,0.0,0.0,0.0,0.0,0.0,0.0,0.0,2.529,2.4769,2.4623,2.55,2.5584,2.5522,2.5362,2.4623,2.4017,2.3629,2.3698,2.3612,2.3268,2.4033,0.0,0.0,0.0,0.0,0.0,0.0,0.0,0.0,0.0,0.0,0.0,0.0,0.0,0.0,0.0,0.0,0.0,0.0,0.0,0.0,0.0,0.0,0.0,0.0,0.0,0.0,0.0,0.0,0.0,2.0749,2.0743,1.9731,2.072,2.1433,0.0,0.0,0.0,0.0,0.0,0.0,0.0,0.0,0.0,2.0725,2.0633,2.0878,2.1504,2.1971,2.25,2.3008,2.3559,2.3941,2.4161,2.4404,2.4784,2.5268,2.5052,2.4123,2.2748,2.2375,2.2131,2.1995,0.0,0.0,0.0,0.0,0.0,2.2153,2.2782,0.0,0.0,0.0,0.0,0.0,0.0,0.0,0.0,0.0,0.0,0.0,0.0,0.0,0.0,2.3931,2.3883,2.4162,2.5154,2.5205,2.5133,0.0,2.5497,2.5532,2.552,0.0,0.0,0.0,0.0,0.0,2.5281,2.5127,2.5115,2.5506,2.5586,2.5567,2.5515,2.5111,2.4759,2.4486,2.4476,2.4321,2.3979,2.4317,2.441,0.0,0.0,0.0,0.0,0.0,0.0,0.0,0.0,0.0,0.0,0.0,0.0,0.0,0.0,0.0,0.0,0.0,0.0,0.0,0.0,0.0,0.0,0.0,0.0,0.0,0.0,0.0,0.0,2.1722,2.1889,2.087,2.1514,2.2002,0.0,0.0,0.0,0.0,0.0,0.0,2.0435,2.1033,2.1438,2.1557,2.1575,2.1884,2.2554,2.2707,2.3318,2.4419,2.4549,2.4974,2.5666,2.5965,2.6191,2.6292,2.5995,2.5558,2.4955,2.4037,2.3275,2.2708,2.2847,2.3135,2.352,2.3951,2.3793,2.3518,2.4606,2.4588,2.4091,2.4101,0.0,2.4859,2.4011,0.0,0.0,0.0,0.0,2.4684,2.4901,0.0,2.503,2.5283,2.5347,2.5559,2.6353,2.595,2.5484,0.0,2.5599,2.5427,2.5465,0.0,0.0,0.0,0.0,2.5308,2.5308,2.5406,2.5471,2.5508,2.556,2.5567,2.552,2.5456,2.5336,2.508,2.5082,2.4937,2.4643,2.4599,2.4478,2.4275,0.0,0.0,0.0,0.0,0.0,0.0,0.0,0.0,0.0,0.0,0.0,0.0,0.0,0.0,0.0,0.0,0.0,0.0,0.0,0.0,0.0,0.0,0.0,0.0,0.0,0.0,0.0,0.0,0.0,1.9876,2.0552,0.0,0.0,0.0,0.0,2.1285,2.2386,2.2681,2.1854,2.2553,2.3193,2.3653,2.3643,2.3879,2.4367,2.4692,2.4881,2.495,2.53,2.5447,2.5508,2.5522,2.5548,2.5561,2.5538,2.5688,2.5812,2.4174,2.3488,2.3519,2.427,2.5088,2.5812,2.5796,2.5761,2.5618,2.4888,2.4599,2.4569,2.4647,2.4721,2.4771,2.4511,2.4483,0.0,0.0,2.4228,2.4421,2.5175,2.5359,2.5602,2.6572,2.6786,2.685,2.7104,2.7108,2.6989,0.0,2.5874,2.5262,2.5378,0.0,2.5376,2.5317,2.5293,2.5308,2.5308,2.5359,2.5425,2.5484,2.5563,2.5566,2.5507,2.5508,2.5438,2.5293,2.5279,2.5198,2.4986,2.4843,2.4693,2.4486,2.4294,0.0,0.0,0.0,0.0,0.0,0.0,0.0,0.0,0.0,0.0,0.0,0.0,0.0,0.0,0.0,0.0,0.0,0.0,0.0,0.0,0.0,0.0,0.0,0.0,0.0,0.0,0.0,0.0,2.2282,2.2745,0.0,0.0,2.2333,2.2247,2.2506,2.274,2.2859,2.288,2.3584,2.4073,2.4249,2.4251,2.4785,2.5912,2.5565,2.5851,2.6789,2.6919,2.6966,2.7017,2.7735,2.807,2.8051,2.7804,2.748,2.7077,2.5961,2.5346,2.511,2.5183,2.5463,2.5784,2.568,2.5706,2.5719,2.5424,2.5304,2.5314,2.5335,2.5295,2.5244,2.5161,2.5144,2.5121,2.5052,2.5046,2.5147,2.5667,2.5796,2.5947,2.6565,2.671,2.6891,2.7615,2.728,2.7009,2.7666,2.7095,2.6498,2.6555,2.613,2.5958,2.6455,2.5704,2.5285,2.5803,2.5606,2.5437,2.5484,2.5559,2.5583,2.557,2.5513,2.5468,2.5364,2.5317,2.5208,2.5016,2.4864,2.4708,2.4503,2.4303,2.3986,0.0,0.0,0.0,0.0,0.0,0.0,0.0,0.0,0.0,0.0,0.0,0.0,0.0,0.0,0.0,0.0,0.0,0.0,0.0,0.0,0.0,0.0,0.0,0.0,0.0,0.0,2.3422,2.386,2.3855,2.3833,2.3876,2.3304,2.3082,2.3383,2.3573,2.3815,2.4135,2.5067,2.5511,2.5313,2.5564,2.6081,2.6869,2.6387,2.6726,2.791,2.791,2.8017,2.823,2.8989,2.9334,2.9317,2.9053,2.8725,2.8325,2.7685,2.7309,2.7098,2.6242,2.5967,2.6104,2.653,2.6743,2.6861,2.7103,2.7014,2.6782,2.6782,2.6371,2.5879,2.5879,2.5698,2.55,2.55,2.55,2.5605,2.6099,2.643,2.6749,2.7272,2.7598,2.8009,2.8823,2.8494,2.8292,2.9236,2.8156,2.7129,2.7196,2.6761,2.6685,2.7478,2.6544,2.5956,2.6567,2.608,2.561,2.5479,2.5533,2.5571,2.5579,2.5821,2.5829,2.5463,2.5658,2.5582,2.5142,2.4962,2.4795,2.4663,2.4319,2.3989,2.3692,0.0,0.0,0.0,0.0,0.0,0.0,0.0,0.0,0.0,0.0,0.0,0.0,0.0,0.0,0.0,0.0,0.0,0.0,0.0,0.0,0.0,0.0,0.0,2.3652,2.3421,2.3478,2.4229,2.3635,2.3469,2.4181,2.4027,2.3888,2.3939,2.5018,2.5677,2.5678,2.7029,2.754,2.6915,2.7676,2.7798,2.7253,2.7216,2.7529,2.8106,2.8142,2.845,2.9008,2.9042,2.9042,2.9077,2.9077,2.9244,2.9489,2.9155,2.921,2.9314,2.7479,2.6774,2.695,2.8444,2.8991,2.9097,2.981,2.955,2.8901,2.8901,2.7883,2.6658,2.6658,2.619,2.5601,2.5601,2.5601,2.5791,2.6576,2.7321,2.8044,2.8844,2.9589,3.0214,3.0683,3.0786,3.0912,3.1309,2.9012,2.7075,2.7259,2.7244,2.7499,2.8301,2.7717,0.0,2.7488,2.6769,2.6037,2.5522,2.5537,2.5572,2.5546,2.6379,2.6508,2.5559,2.6233,2.6283,2.5436,2.5152,2.4991,2.4979,2.436,2.3938,2.3735,0.0,0.0,0.0,0.0,0.0,0.0,0.0,0.0,0.0,0.0,0.0,0.0,0.0,0.0,0.0,0.0,0.0,0.0,0.0,0.0,0.0,0.0,2.3939,2.4117,2.3543,2.3555,2.4656,2.4826,2.5029,2.5539,2.551,2.5902,2.699,2.7147,2.7261,2.7398,2.7812,2.7741,2.7146,2.7338,2.7613,2.7982,2.7998,2.8084,2.8254,2.8785,2.9088,2.9161,2.9709,3.0195,3.0601,3.0601,3.0336,2.9937,2.9824,2.9539,2.9088,2.8562,2.8374,2.8425,2.8836,2.899,2.9025,2.923,2.9144,2.8973,2.8973,2.8682,2.834,2.834,2.8203,2.8049,2.8049,2.8049,2.8133,2.8618,2.8873,2.9163,2.9673,2.9947,3.0154,3.026,3.0292,3.0428,3.088,3.0295,2.9661,2.9422,2.8416,2.7898,2.8709,0.0,0.0,2.7857,2.7471,2.709,2.701,2.7185,2.7087,2.6494,2.6673,2.6444,0.0,2.5718,2.5718,2.5482,2.5207,2.4992,2.4862,2.4667,2.4551,0.0,0.0,0.0,0.0,0.0,0.0,0.0,0.0,0.0,0.0,0.0,0.0,0.0,0.0,0.0,0.0,0.0,0.0,0.0,0.0,0.0,0.0,2.4667,2.4758,2.525,2.4635,2.4654,2.6009,2.635,2.6674,2.726,2.7313,2.7672,2.8528,2.8693,2.8676,2.8496,2.906,2.8869,2.7695,2.7944,2.8075,2.7992,2.8008,2.8245,2.8776,2.9192,2.9621,3.0046,3.0216,3.0497,0.0,3.0821,3.0583,3.0199,3.0451,3.0311,0.0,0.0,0.0,0.0,0.0,2.9856,3.0381,3.0381,3.0584,3.0784,3.0482,3.0178,2.9873,2.9533,2.9264,2.8993,2.8993,2.8993,2.903,2.9246,2.9521,2.9814,3.0041,3.0352,3.0612,3.0781,3.0797,3.0963,3.1423,0.0,0.0,3.096,3.0039,2.9457,2.9953,2.9031,2.8347,0.0,2.8107,2.7706,2.7561,2.7727,2.7548,2.6822,2.7123,0.0,0.0,0.0,2.5836,2.5469,2.5347,0.0,0.0,0.0,2.4903,0.0,0.0,0.0,0.0,2.4945,2.5391,0.0,0.0,0.0,0.0,0.0,0.0,0.0,0.0,0.0,0.0,0.0,0.0,0.0,0.0,0.0,0.0,2.5048,2.5715,2.6928,2.6522,2.6556,2.779,2.7942,2.8264,2.9061,2.9196,2.9281,2.9365,3.0057,3.0123,2.9306,0.0,0.0,0.0,0.0,2.8889,2.7856,2.7891,2.8506,2.9646,2.9646,3.0212,3.1193,3.0593,3.0312,3.0309,3.023,3.0236,3.0361,3.0975,3.132,3.1292,2.9822,2.9297,2.945,3.0006,3.1106,0.0,0.0,0.0,0.0,3.2649,3.1989,3.1326,3.0683,3.0006,2.9484,2.9399,2.9433,2.9484,2.9399,2.9854,3.0362,3.0362,3.0784,3.131,3.166,3.1734,3.1914,3.2439,3.1923,3.154,3.2083,3.1706,3.1347,3.1384,3.0797,0.0,2.9471,2.8802,2.8203,2.7751,0.0,0.0,2.6948,2.7694,2.7481,2.5832,2.635,2.632,2.5436,2.5465,2.5391,2.5227,2.5227,2.5116,2.4889,2.4889,2.4934,2.5023,2.5,2.5399,0.0,0.0,0.0,0.0,0.0,0.0,0.0,0.0,0.0,0.0,0.0,0.0,0.0,0.0,0.0,2.6898,2.7208,2.777,2.9235,2.9311,2.911,2.8789,2.8773,2.9059,2.982,3.0429,3.1024,3.1616,3.2341,3.2223,3.0999,3.121,0.0,2.8514,2.9071,2.9334,2.9203,2.9697,3.0346,3.1157,0.0,0.0,3.1321,3.0738,3.0406,3.0272,2.9783,2.9884,3.0438,3.1084,3.2001,3.2831,3.1343,3.1142,3.1616,3.114,3.1529,3.2293,3.2293,3.278,3.3389,3.3237,3.3085,3.2949,3.2814,3.2662,0.0,3.1836,3.2087,3.2408,3.1819,3.1769,3.187,3.187,3.1532,3.123,3.131,3.1329,3.1637,3.2693,3.2246,3.2057,3.3101,3.1966,3.1034,3.1347,3.1268,3.0895,3.0122,3.0091,2.9843,2.9101,2.9189,2.896,2.8139,2.8478,2.8303,2.7258,2.6932,2.6367,2.5439,2.5405,2.541,2.5366,2.5364,2.5353,2.5369,2.5369,2.5735,2.6401,2.6137,2.6511,0.0,0.0,0.0,0.0,0.0,0.0,0.0,0.0,0.0,0.0,0.0,2.5281,0.0,0.0,2.6808,2.8174,2.8559,2.9033,2.9982,3.0734,3.092,3.0194,3.0431,3.0804,3.1157,3.1867,3.2442,3.2814,3.3186,3.3111,3.2436,3.2398,3.1808,3.0555,3.0791,3.0838,3.0599,3.0887,3.1386,3.2046,3.1701,3.1665,3.1863,3.0927,3.0473,3.0392,3.0085,3.0146,3.0509,3.1139,3.2001,3.285,3.1725,3.1936,3.2797,3.2442,3.2763,3.341,3.341,3.388,3.4433,3.4066,3.3947,3.388,3.3508,3.3406,3.3322,3.2949,3.3119,3.3322,3.2949,3.2848,3.2848,3.2848,3.256,3.2307,3.2307,3.2307,3.249,3.3091,3.2875,3.2876,3.3713,3.2944,3.2094,3.1751,3.1874,3.1715,3.0889,3.0911,3.0746,3.007,3.0091,2.9673,2.8491,2.8287,2.8013,2.7573,2.7048,2.6547,2.6065,2.5652,2.5455,2.5443,2.5443,2.5663,2.6109,2.5659,2.5889,2.6699,2.6089,2.6324,0.0,0.0,0.0,0.0,0.0,0.0,0.0,0.0,2.5371,2.5978,2.6093,2.6549,2.7989,2.8037,2.8247,2.9404,2.9849,3.016,3.0401,3.1448,3.1953,3.1278,3.1989,3.2412,3.2107,3.3,3.3558,3.3423,3.3677,3.3761,3.3626,3.3609,3.3268,3.2518,3.2624,3.2432,3.2006,3.21,3.2415,3.2908,3.2366,3.2206,3.2366,3.1234,3.0655,3.0505,3.05,3.0587,3.0758,3.1376,3.2056,3.2652,3.2052,3.2574,3.3612,3.3289,3.3767,3.4516,3.4516,3.5088,3.5723,3.4962,3.4709,3.4607,3.4015,3.3846,3.3812,3.366,3.3728,3.3795,3.366,3.3609,3.3609,3.3609,3.3508,3.3406,3.3406,3.3406,3.344,3.3592,3.3508,3.3566,3.4094,3.3904,3.342,3.2574,3.2684,3.254,3.1733,3.1623,3.1409,3.0821,3.0768,3.0224,2.894,2.8231,2.7815,2.768,2.7267,2.6896,2.6573,2.5967,2.5567,2.5429,2.5465,2.5812,2.6463,2.5764,2.5837,2.6615,2.5738,2.5858,2.6376,2.5644,0.0,2.4881,2.5359,2.5838,0.0,0.0,2.7676,2.759,2.8121,2.8877,2.9769,2.9892,3.027,3.1473,3.1696,3.1698,3.1636,3.1751,3.1688,3.1249,3.2425,3.2763,3.1444,3.3169,3.41,3.3457,3.4602,3.5081,3.4404,3.437,3.3811,3.2535,3.3031,3.3332,3.339,3.3902,3.4258,3.4369,3.4297,3.364,3.2471,3.1794,3.113,3.051,3.05,3.0867,3.1528,3.2186,3.2867,3.347,3.339,3.3803,3.4307,3.2928,3.334,3.458,3.4525,3.5459,3.6518,3.574,3.5481,3.5447,3.538,3.5346,3.5211,3.4556,3.4861,3.5194,3.4539,3.437,3.437,3.437,3.388,3.3406,3.3406,3.3406,3.3592,3.4252,3.3846,3.363,3.4338,3.4246,3.4051,3.4042,3.3836,3.3385,3.2564,3.2472,3.2168,3.1379,3.1317,3.105,3.04,2.963,2.8942,2.8336,2.8242,2.7566,2.614,2.6104,2.5803,2.5163,2.5325,2.5489,2.5637,2.5539,2.5935,2.6762,2.5883,2.5912,2.6395,0.0,0.0,0.0,2.6286,2.7167,2.6975,2.7791,2.8736,2.9113,2.9457,3.0099,3.1353,3.1604,3.1837,0.0,3.2697,3.248,3.1863,3.2205,3.2021,3.0707,3.2239,3.2983,3.1955,3.344,3.437,3.4066,3.5008,3.5464,3.5165,3.5148,3.4885,3.4326,3.5003,3.5172,3.4778,3.5041,3.4987,3.4576,3.3811,3.3118,3.2552,3.1857,3.1389,3.1107,3.1489,3.1847,3.2179,3.2846,3.3293,3.3521,3.3521,3.369,3.3944,3.373,3.4284,3.525,3.5643,3.6199,3.6686,3.6403,3.6299,3.6214,3.5735,3.5943,3.6231,3.5932,3.6366,3.6874,3.6569,3.6485,3.6485,3.6485,3.6248,3.591,3.547,3.5368,3.5334,3.5182,3.4873,3.4771,3.5098,3.4915,3.4762,3.4812,3.4173,3.3661,3.3644,3.2997,3.2342,3.181,3.1545,3.1115,3.0422,3.02,2.9778,2.9027,2.8619,2.7878,2.6755,2.676,2.6197,2.4943,2.5474,2.5763,2.5784,2.5329,2.5526,2.6318,2.5488,2.5269,2.6089,0.0,0.0,2.6265,2.7488,2.864,2.8493,2.9255,3.0161,3.073,3.1035,3.1476,3.2417,3.2784,0.0,3.2878,3.322,3.3106,3.1985,3.2309,3.2038,3.03,3.1343,3.2053,3.1735,3.3389,3.4404,3.4201,3.5267,3.5819,3.5616,3.5802,3.5943,3.5943,3.6485,3.6415,3.5635,3.5676,3.5226,3.4271,3.3145,3.2585,3.2548,3.201,3.178,3.1809,3.2467,3.2781,3.2826,3.3305,3.3499,3.3499,3.3499,3.3604,3.3848,3.4379,3.4998,3.5665,3.62,3.6655,3.6973,3.6816,3.6919,3.6975,3.6394,3.6637,3.7117,3.7117,3.7483,3.7905,3.7905,3.7905,3.7905,3.7905,3.7905,3.7753,3.7212,3.7117,3.6924,3.6343,3.6225,3.6157,3.5977,3.5761,3.5635,3.5538,3.4577,3.4005,3.4443,3.3498,3.2682,3.2349,3.1869,3.1283,3.0583,3.0501,3.0142,2.9344,2.8828,2.8194,2.7406,2.7423,2.6679,2.5084,2.5887,2.6219,2.5997,2.5412,2.5431,2.5978,2.5393,2.5129,0.0,0.0,2.6999,2.7587,2.8955,3.0118,3.0136,3.1335,3.2491,3.2509,3.3146,3.3476,3.2729,3.3238,3.3374,3.2231,3.3283,3.3702,3.2107,3.1859,3.14,3.0249,2.9516,2.9416,0.0,3.2797,3.4201,3.3491,3.5487,3.6417,3.5633,3.6332,3.6761,3.6761,3.6795,3.6424,3.5696,3.5704,3.4972,3.3529,3.2881,3.2568,3.2512,3.2482,3.2452,3.2497,3.3185,3.3469,3.3469,3.3484,3.3499,3.3499,3.3499,3.3888,3.4474,3.4475,3.4957,3.5591,3.5547,3.6504,3.7653,3.6938,3.7236,3.7872,3.7838,3.7855,3.7872,3.7872,3.7889,3.7905,3.7905,3.7905,3.7905,3.7905,3.7905,3.7905,3.7872,3.7872,3.7872,3.7838,3.7838,3.7601,3.6897,3.6745,3.6661,3.6398,3.5266,3.4521,3.4674,3.404,3.3448,3.319,3.2459,3.1805,3.1396,3.0662,2.9873,2.9053,2.8991,2.8617,2.782,2.7978,2.7316,2.5706,2.6662,2.6779,2.6004,2.5985,2.5985,2.6004,2.5966,2.5966,0.0,0.0,2.9543,3.0328,3.1154,3.1794,3.1794,3.2632,3.3238,3.2711,3.2394,3.1953,3.1164,3.1237,3.1457,3.1579,3.2926,3.3596,3.2453,3.3161,3.2858,3.0389,3.0734,0.0,0.0,0.0,0.0,3.3389,3.503,3.6129,3.6366,3.666,3.7032,3.7499,3.799,3.7911,3.7172,3.6659,3.5953,3.4944,3.3295,3.2523,3.2512,3.2512,3.2751,3.32,3.3858,3.4174,3.4219,3.4637,3.4831,3.4831,3.4831,3.4966,3.516,3.516,3.5337,3.5609,3.6076,3.6916,3.7765,3.7511,3.7978,3.8531,3.8058,3.8244,3.8633,3.8633,3.8971,3.9343,3.9343,3.9343,3.9343,3.9343,3.9343,3.9249,3.8734,3.8633,3.8481,3.799,3.7905,3.7821,3.7567,3.7533,3.7333,3.6757,3.5724,3.4544,3.3272,3.316,3.2966,3.2352,3.2592,3.2538,3.1855,3.1313,3.065,2.9861,2.9299,2.8638,2.7835,2.8379,2.7943,2.6331,2.715,2.719,2.6394,2.6394,2.6394,2.6394,2.6394,2.6394,0.0,3.0735,3.2056,3.2619,3.3105,3.3371,3.3078,3.322,3.3146,3.2339,3.1531,3.0632,2.9531,2.9586,2.9771,2.973,3.1387,3.2441,3.1741,3.2844,3.3013,3.1101,3.1478,0.0,0.0,0.0,0.0,3.4095,3.5566,3.6654,3.7161,3.7432,3.7787,3.8278,3.8751,3.867,3.7944,3.7482,3.6591,3.5324,3.3891,3.3095,3.2871,3.311,3.344,3.3888,3.4562,3.4846,3.4876,3.5325,3.5651,3.5894,3.5894,3.607,3.6321,3.6321,3.6321,3.6305,3.6228,3.6905,3.7799,3.7811,3.8529,3.9292,3.8819,3.9005,3.9402,3.9402,3.974,4.0096,4.0096,4.0096,4.0096,4.0096,4.0096,3.9977,3.9503,3.9402,3.9242,3.8768,3.8684,3.8599,3.8345,3.7855,3.7347,3.688,3.6005,3.4744,3.2927,3.2966,3.2812,3.191,3.2349,3.2503,3.2039,3.1751,3.1331,3.0668,2.9879,2.9189,2.8686,2.8877,2.8381,2.7053,2.7824,2.7824,2.7034,2.7034,2.7034,2.7034,2.7034,2.7034,3.1694,3.3272,3.4472,3.4461,3.4747,3.4793,3.3935,3.3128,3.2289,3.1439,3.0595,2.9549,0.0,0.0,2.8439,2.7099,2.9122,3.0731,3.0372,3.1325,3.2175,0.0,0.0,0.0,0.0,0.0,0.0,3.565,0.0,3.7889,3.7956,3.8616,3.9005,3.9056,3.9056,3.8749,3.811,3.8058,3.6945,3.4809,3.4668,3.4267,3.3621,3.4312,3.4613,3.4656,3.5302,3.5619,3.5619,3.5619,3.6038,3.6661,3.6661,3.713,3.7793,3.7793,3.7793,3.7589,3.6148,3.66,3.7863,3.7863,3.8887,4.0096,4.0096,4.0096,4.0096,4.0096,4.0096,4.0096,4.0096,4.0096,4.0096,4.0096,4.0096,4.0096,4.0096,4.0096,4.0096,4.0096,4.0096,3.9893,3.9174,3.7879,3.6897,3.6863,3.618,3.5126,3.366,3.3457,3.305,3.194,3.1859,3.1933,3.202,3.2014,3.1873,3.1482,3.0668,3.021,3.021,2.9427,2.8638,2.789,2.8601,2.862,2.786,2.786,2.786,2.786,2.786,2.786,3.4807,3.5988,3.671,3.6516,3.5907,3.4933,3.3285,3.2284,3.1311,2.9898,2.8503,2.7402,0.0,0.0,0.0,2.9077,3.1394,0.0,3.3275,3.4765,0.0,0.0,0.0,3.4793,3.5577,3.5831,0.0,0.0,3.7466,3.755,3.865,3.8886,3.9242,3.9808,3.9825,3.975,3.9581,3.897,3.7862,3.6266,3.6229,3.5808,3.5092,3.5853,3.6154,3.6107,3.6887,3.7205,3.7205,3.7205,3.7324,3.7485,3.7485,3.7632,3.7793,3.7793,3.7793,3.7719,3.7354,3.7819,3.8635,3.8635,3.9289,4.0096,4.0096,4.0096,4.0096,4.0096,4.0096,4.0096,4.0096,4.0096,4.0096,4.0096,4.0096,4.0096,4.0096,4.0096,4.0096,4.0096,4.0096,4.0045,3.9859,3.9063,3.8244,3.7702,3.6975,3.5926,3.4421,3.4218,3.3689,3.2321,3.2749,3.293,3.2417,3.2423,3.2399,3.2289,3.098,3.021,3.021,2.9427,2.8895,2.8693,2.8895,2.8895,2.8693,2.8693,2.8693,2.8693,2.8693,2.8693,3.7148,3.8087,3.8461,3.7444,3.634,3.489,3.2593,3.1182,2.9898,2.8271,2.7079,0.0,0.0,0.0,0.0,0.0,0.0,0.0,3.3481,3.5254,3.6413,0.0,3.6363,0.0,3.7218,3.728,3.7753,0.0,3.8227,3.8285,3.9436,3.9486,3.9673,4.0096,4.0096,4.0096,4.0096,3.9315,3.8504,3.7713,3.7396,3.6998,3.6578,3.7026,3.7192,3.7144,0.0,3.7793,3.7793,3.7793,3.7978,3.8274,3.8274,3.8513,3.8805,3.8805,3.8805,3.8805,3.8805,3.9076,3.9368,3.9016,3.9437,4.0096,4.0096,4.0096,4.0096,4.0096,4.0096,4.0096,4.0096,4.0096,4.0096,4.0096,4.0096,4.0096,4.0096,4.0096,4.0096,4.0096,4.0096,4.0096,4.0096,3.9503,3.8751,3.8024,3.7263,3.6372,3.5148,3.4692,3.4049,3.2899,3.2926,3.3016,3.2981,3.2719,3.2647,3.2853,3.1845,3.1016,3.0485,2.9856,2.9354,2.9005,2.9005,2.9005,2.9005,2.9005,2.9005,2.9005,2.9005,2.9005,3.8876,3.9623,3.9681,3.7742,3.6407,3.4813,3.1961,3.0025,2.8381,2.6778,0.0,0.0,2.5067,0.0,2.6422,2.7197,0.0,3.1073,3.284,3.4578,3.6184,3.7593,3.7702,3.7799,3.8156,3.8193,3.8464,3.9089,3.914,3.9436,4.0079,4.0096,4.0096,4.0096,4.0096,4.0096,4.0096,3.9411,3.9059,3.9059,3.8402,3.8035,3.795,3.8064,3.8035,3.795,0.0,0.0,3.8108,3.8108,3.8486,3.9059,3.9059,3.9489,4.007,3.9978,3.9927,3.9927,3.9927,3.9927,3.9833,3.9262,3.9516,4.0096,4.0096,4.0096,4.0096,4.0096,4.0096,4.0096,4.0096,4.0096,4.0096,4.0096,4.0096,4.0096,4.0096,4.0096,4.0096,4.0096,4.0096,4.0096,4.0096,3.9571,3.8886,3.8159,3.7483,3.6778,3.5853,3.5115,3.4353,3.3626,3.3032,3.2921,3.3459,3.2981,3.2771,3.3093,3.2674,3.196,3.0905,3.0392,2.9789,2.9082,2.9037,2.9005,2.9005,2.9005,2.9005,2.9005,2.9005,2.9005,4.0007,4.0326,3.995,3.8011,3.6719,3.5009,3.1523,2.9311,0.0,0.0,0.0,2.5556,2.5768,0.0,0.0,2.9841,0.0,0.0,0.0,0.0,3.713,0.0,0.0,0.0,0.0,0.0,0.0,0.0,0.0,0.0,4.0096,4.0096,4.0096,4.0096,4.0096,4.0096,4.0096,3.9952,3.9901,3.9901,3.9756,3.9358,3.8745,3.9385,3.9332,3.8745,0.0,0.0,3.9705,3.9705,3.9782,3.9901,3.9901,3.9978,4.002,3.9342,3.9113,3.9113,3.9113,3.9113,3.9193,3.9731,3.9995,4.0096,4.0096,4.0096,4.0096,4.0096,4.0096,4.0096,4.0096,4.0096,4.0096,4.0096,4.0096,4.0096,4.0096,4.0096,4.0096,4.0096,4.0096,4.0096,4.0096,3.9994,3.9673,3.892,3.87,3.8125,3.6778,3.591,3.5131,3.4387,3.4531,3.4273,3.3183,3.3284,3.319,3.2651,3.1934,3.142,3.1217,3.0234,2.9646,2.9488,2.9162,2.9005,2.9005,2.9005,2.9005,2.9005,2.9005,2.9005,4.0285,4.0496,4.0026,3.8093,3.6566,3.4557,3.0824,0.0,0.0,0.0,0.0,2.527,2.59,0.0,0.0,0.0,0.0,0.0,0.0,0.0,0.0,0.0,0.0,0.0,0.0,0.0,0.0,0.0,0.0,0.0,4.0096,4.0096,4.0096,4.0096,4.0096,4.0096,4.0096,4.0096,4.0096,4.0096,4.0096,3.9901,3.9558,3.9927,3.9901,3.9542,3.9927,0.0,4.0096,4.0096,4.0096,4.0045,3.9636,3.9489,3.9437,3.9059,3.8663,3.8442,3.9236,3.9262,3.9016,3.9833,4.0096,4.0096,4.0096,4.0096,4.0096,4.0096,4.0096,4.0096,4.0096,4.0096,4.0096,4.0096,4.0096,4.0096,4.0096,4.0096,4.0096,4.0096,4.0096,4.0096,4.0096,4.0096,3.9859,3.9106,3.8988,3.8599,3.7499,3.7043,3.6343,3.5199,3.4925,3.4651,3.4192,3.3624,3.3141,3.2774,3.2227,3.1643,3.0956,3.0656,3.0205,2.9611,2.9404,2.943,2.961,2.9207,2.9427,3.0228,2.939,2.9225,4.0323,4.065,4.0284,3.8202,3.6375,3.4101,3.033,2.8147,0.0,0.0,0.0,2.5159,2.5877,0.0,0.0,0.0,0.0,0.0,0.0,0.0,0.0,0.0,0.0,0.0,0.0,0.0,0.0,0.0,0.0,0.0,4.0096,4.0096,4.0096,4.0096,4.0096,4.002,3.9833,3.9833,3.9756,3.9601,3.9601,3.9705,3.9833,3.9833,3.9927,4.0096,4.0096,0.0,0.0,3.9927,3.9833,3.9756,3.8978,3.8663,3.8635,3.8481,3.8032,3.7748,3.9146,3.9183,3.8799,3.9782,4.0096,4.0096,4.0096,4.0096,4.0096,4.0096,4.0096,4.0096,4.0096,4.0096,4.0096,4.0096,4.0096,4.0096,4.0096,4.0096,4.0096,4.0096,4.0096,4.0096,4.0096,4.0096,3.991,3.9309,3.9225,3.8954,3.8227,3.8142,3.7618,3.6225,3.5436,3.5001,3.5043,3.3985,3.3264,3.3108,3.2683,3.2004,3.1004,3.1079,3.0733,2.9844,2.9751,2.9778,2.9933,2.9576,2.9942,3.0985,2.9972,2.9769,4.0477,4.1085,4.1077,3.8581,3.6519,3.4162,3.0587,0.0,0.0,0.0,2.4812,2.5479,2.5924,2.6664,2.7752,0.0,0.0,0.0,0.0,0.0,0.0,0.0,0.0,0.0,0.0,0.0,0.0,0.0,0.0,0.0,0.0,4.0096,4.0096,4.0096,4.0096,3.9756,3.9032,3.9016,3.8663,3.8007,3.8007,3.8374,3.9016,3.9016,3.9411,4.0096,0.0,0.0,0.0,3.9315,3.9016,3.8951,3.8206,3.7892,3.7806,3.7084,3.6783,3.6843,3.7719,3.795,3.8149,3.9627,4.0096,4.0096,4.0096,4.0096,4.0096,4.0096,4.0096,4.0096,4.0096,4.0096,4.0096,4.0096,4.0096,4.0096,4.0096,4.0096,4.0096,4.0096,4.0096,4.0096,4.0096,4.0096,4.0079,4.0011,3.9994,3.974,3.8988,3.8886,3.8582,3.7787,3.7026,3.6034,3.4672,3.444,3.4084,3.3401,3.27,3.2278,3.215,3.119,3.063,3.0508,3.021,2.9738,2.9118,3.0144,3.0342,2.9781,3.0746,3.0834,3.9339,4.0381,4.0527,3.8507,3.6265,3.3741,3.0681,0.0,0.0,2.4659,2.4543,2.5022,2.6147,2.6629,2.7679,0.0,0.0,0.0,0.0,0.0,0.0,0.0,0.0,0.0,0.0,0.0,0.0,0.0,0.0,0.0,0.0,4.0096,4.0096,4.0096,4.0096,3.9714,3.8908,3.8908,3.8745,3.8469,3.8469,3.887,3.961,3.961,3.9808,4.0096,0.0,0.0,0.0,3.9236,3.9183,3.9463,3.7745,3.7368,3.769,3.6904,3.6615,3.6783,3.8032,3.8469,3.8635,3.9731,4.0096,4.0096,4.0096,4.0096,4.0096,4.0096,4.0096,4.0096,4.0096,4.0096,4.0096,4.0096,4.0096,4.0096,4.0096,4.0096,4.0096,4.0096,4.0096,4.0096,4.0096,4.0096,4.0096,4.0096,4.0096,3.9994,3.9706,3.9673,3.9377,3.8633,3.7506,3.6558,3.5949,3.5013,3.437,3.4083,3.2953,3.2293,3.2293,3.1434,3.0858,3.0612,3.0472,3.041,3.038,3.0379,3.0853,3.1769,3.1266,3.1258,3.7658,3.915,3.9688,3.7738,3.5526,3.3089,0.0,0.0,0.0,2.4711,2.4588,2.5049,2.6366,2.6796,2.7842,0.0,0.0,0.0,0.0,0.0,0.0,0.0,0.0,0.0,0.0,0.0,0.0,0.0,0.0,0.0,0.0,4.0096,4.0096,4.0096,3.9876,3.9385,3.858,3.8342,3.8213,3.8213,3.8213,3.8772,3.9756,3.9756,3.9859,4.0096,0.0,0.0,0.0,3.9139,3.9102,3.9226,3.7336,3.695,3.7397,3.6813,3.6461,3.6538,3.8286,3.8772,3.8745,3.9756,4.0096,4.0096,4.0096,4.0096,4.0096,4.0096,4.0096,4.0096,4.0096,4.0096,4.0096,4.0096,4.0096,4.0096,4.0096,4.0096,4.0096,4.0096,4.0096,4.0096,4.0096,4.0096,4.0096,4.0096,4.0096,4.0096,4.0096,4.0096,3.991,3.9377,3.8217,3.7269,3.6846,3.5588,3.4827,3.4827,3.344,3.2693,3.2838,3.1901,3.125,3.0957,3.0958,3.1011,3.1121,3.0903,3.152,3.2852,3.2071,3.2142,3.5538,3.7392,3.87,3.6154,3.4218,3.2186,0.0,0.0,2.5956,2.4743,2.5129,2.5866,2.6489,2.7255,2.8319,2.9953,0.0,0.0,0.0,0.0,0.0,0.0,0.0,0.0,0.0,0.0,0.0,0.0,0.0,0.0,0.0,4.0096,4.0096,4.0096,3.9342,3.8553,3.7822,3.7024,3.66,3.66,3.66,3.7438,3.8908,3.8908,3.9342,0.0,0.0,0.0,0.0,3.8908,3.8469,3.7748,3.6904,3.6615,3.66,3.6615,3.6134,3.5846,3.8117,3.8414,3.8064,3.9601,4.0096,4.0096,4.0096,4.0096,4.0096,4.0096,4.0096,4.0096,4.0096,4.0096,4.0096,4.0096,4.0096,4.0096,4.0096,4.0096,4.0096,4.0096,4.0096,4.0096,4.0096,4.0096,4.0096,4.0096,4.0096,4.0096,4.0096,4.0096,4.0096,4.0096,3.9436,3.8379,3.6931,3.6062,3.5583,3.5583,3.4218,3.3601,3.4049,3.2619,3.1789,3.1789,3.1789,3.1426,3.0699,3.1895,3.2335,3.2137,3.3255,3.3788,3.2539,3.3891,3.4603,3.3237,3.1583,2.9923,2.8512,0.0,2.5304,2.4922,2.5308,2.5931,2.6672,2.7353,2.8233,2.9566,3.0098,0.0,0.0,0.0,0.0,0.0,0.0,0.0,0.0,0.0,0.0,0.0,0.0,0.0,0.0,4.0096,4.0096,4.0096,3.9833,3.9358,3.8553,3.8314,3.8157,3.8157,3.8157,3.8718,3.9731,3.9731,0.0,0.0,0.0,0.0,0.0,3.9139,3.9086,3.9252,3.7933,3.7732,3.8101,3.7616,3.7587,3.7917,3.8663,3.9102,3.9454,3.9927,4.0096,4.0096,4.0096,4.0096,4.0096,4.0096,4.0096,4.0096,4.0096,4.0096,4.0096,4.0096,4.0096,4.0096,4.0096,4.0096,4.0096,4.0096,4.0096,4.0096,4.0096,4.0096,4.0096,4.0096,4.0096,4.0096,4.0096,4.0096,4.0096,4.0096,3.9453,3.8802,3.8328,3.7144,3.6417,3.6417,3.4979,3.4371,3.4906,3.3453,3.277,3.309,3.2563,3.2158,3.1929,3.231,3.262,3.2867,3.3497,3.3513,0.0,3.1083,3.1756,3.0929,2.966,0.0,0.0,0.0,0.0,2.4956,2.5646,2.6365,2.6728,2.7601,2.8546,2.9455,2.9875,0.0,0.0,0.0,0.0,0.0,0.0,0.0,0.0,0.0,0.0,0.0,0.0,0.0,0.0,0.0,3.9808,4.0096,3.9808,3.9411,3.8908,3.8635,3.8635,3.8908,3.8908,3.9315,4.0096,4.0096,0.0,0.0,0.0,0.0,0.0,3.942,3.9463,3.9542,3.8596,3.8497,3.8854,3.8386,3.833,3.8553,3.9156,3.9489,3.9705,3.9995,4.0096,4.0096,4.0096,4.0096,4.0096,4.0096,4.0096,4.0096,4.0096,4.0096,4.0096,4.0096,4.0096,4.0096,4.0096,4.0096,4.0096,4.0096,4.0096,4.0096,4.0096,4.0096,4.0096,4.0096,4.0096,4.0096,4.0096,4.0096,4.0096,4.0096,3.9706,3.9436,3.9436,3.7811,3.6677,3.6366,3.5182,3.4729,3.5232,3.3817,3.3208,3.365,3.2907,3.2583,3.2761,3.2919,3.3151,3.3419,3.3694,3.3532,0.0,0.0,0.0,0.0,0.0,0.0,0.0,0.0,0.0,0.0,2.6087,2.706,2.6659,2.7882,2.9065,2.9376,2.9781,0.0,0.0,0.0,0.0,0.0,0.0,0.0,0.0,0.0,0.0,0.0,0.0,0.0,0.0,0.0,3.9402,4.0079,3.9385,3.9005,3.9005,3.8318,3.8318,3.9005,3.9005,3.9368,4.0096,4.0096,0.0,0.0,0.0,0.0,0.0,3.9782,3.9662,3.9005,3.9005,3.9005,3.9005,3.9005,3.8553,3.8149,3.9584,3.961,3.9113,3.9876,4.0096,4.0096,4.0096,4.0096,4.0096,4.0096,4.0096,4.0096,4.0096,4.0096,4.0096,4.0096,4.0096,4.0096,4.0096,4.0096,4.0096,4.0096,4.0096,4.0096,4.0096,4.0096,4.0096,4.0096,4.0096,4.0096,4.0096,4.0096,4.0096,4.0096,4.0096,4.0079,4.0028,3.8099,3.6552,3.5802,3.503,3.4776,3.5278,3.3848,3.3259,3.3687,3.2924,3.2761,3.3199,3.3592,3.3807,3.3807,3.3807,3.3807,0.0,0.0,0.0,0.0,0.0,0.0,0.0,0.0,0.0,0.0,0.0,2.6851,2.6439,2.756,2.8383,2.7921,0.0,0.0,0.0,0.0,0.0,0.0,0.0,0.0,0.0,0.0,0.0,0.0,0.0,0.0,0.0,0.0,3.9926,4.0096,3.9927,3.9808,3.9808,3.9653,3.9653,3.9808,3.9808,3.9927,4.0096,4.0096,0.0,0.0,0.0,0.0,3.9833,4.002,3.9995,3.9808,3.9808,3.9808,3.9808,3.9808,3.9705,3.961,3.9969,3.9995,3.985,4.0045,4.0096,4.0096,4.0096,4.0096,4.0096,4.0096,4.0096,4.0096,4.0096,4.0096,4.0096,4.0096,4.0096,4.0096,4.0096,4.0096,4.0096,4.0096,4.0096,4.0096,4.0096,4.0096,4.0096,4.0096,4.0096,4.0096,4.0096,4.0096,4.0096,4.0096,4.0096,3.9876,3.9292,3.8261,3.7567,3.7381,3.609,3.5577,3.6094,3.4644,3.4061,3.45,3.3538,3.3075,3.3199,3.3592,3.3807,3.3807,3.3807,3.3807,0.0,0.0,0.0,0.0,0.0,0.0,0.0,0.0,0.0,0.0,0.0,0.0,2.6709,0.0,0.0,0.0,0.0,0.0,0.0,0.0,0.0,0.0,0.0,0.0,0.0,0.0,0.0,0.0,0.0,0.0,0.0,0.0,3.9757,4.0096,4.0096,4.0096,4.0096,4.0096,4.0096,4.0096,4.0096,4.0096,4.0096,4.0096,0.0,0.0,0.0,0.0,4.0096,4.0096,4.0096,4.0096,4.0096,4.0096,4.0096,4.0096,4.0096,4.0096,4.0096,4.0096,4.0096,4.0096,4.0096,4.0096,4.0096,4.035,4.0527,4.0197,4.0096,4.0096,4.0096,4.0096,4.0096,4.0096,4.0096,4.0096,4.0096,4.0096,4.0096,4.0096,4.0096,4.0096,4.0096,4.0096,4.0096,4.0096,4.0096,4.0096,4.0096,4.0096,4.0096,4.0096,4.0096,3.9943,3.9554,3.8819,3.8108,3.7432,3.6603,3.6112,3.6045,3.4898,3.4199,3.3966,3.3253,3.289,3.289,3.3679,3.3768,3.3229,3.4149,3.408,0.0,0.0,0.0,0.0,0.0,0.0,0.0,0.0,0.0,0.0,0.0,0.0,0.0,0.0,0.0,0.0,0.0,0.0,0.0,0.0,0.0,0.0,0.0,0.0,0.0,0.0,0.0,0.0,0.0,0.0,0.0,0.0,0.0,3.991,3.9825,3.9749,3.9733,3.9876,3.9927,3.9927,3.9799,3.9731,3.9756,3.9876,3.9927,0.0,0.0,0.0,4.0096,4.0096,4.0096,4.0096,4.0096,4.0096,4.0096,4.0096,4.0096,4.0096,4.0096,4.0096,4.0096,4.0096,4.0096,4.0096,4.0096,4.0518,4.0853,4.0255,4.0231,4.0451,4.0451,4.035,4.0282,4.0282,4.018,4.0096,4.0096,4.0096,4.0096,4.0096,4.0096,4.0096,4.0096,4.0096,4.0096,4.0096,4.0096,4.0096,4.0096,4.0096,4.0096,4.0096,4.0096,4.0096,4.0096,3.9537,3.8556,3.7066,3.6863,3.6383,3.5464,3.4827,3.404,3.3078,3.2862,3.2736,3.2754,3.3976,3.3974,3.2872,3.4673,3.4533,0.0,0.0,0.0,0.0,0.0,0.0,0.0,0.0,0.0,0.0,0.0,0.0,0.0,0.0,0.0,0.0,0.0,0.0,0.0,0.0,0.0,0.0,0.0,0.0,0.0,0.0,0.0,0.0,0.0,0.0,0.0,0.0,0.0,3.9086,3.8486,3.8137,3.8166,3.8788,3.9086,3.9086,3.8458,3.8149,3.8177,3.8816,3.9086,0.0,0.0,4.0096,4.0096,4.0096,4.0096,4.0096,4.0096,4.0096,4.0096,4.0096,4.0096,4.0096,4.0096,4.0096,4.0096,4.0096,4.0096,4.0096,4.0096,4.0086,4.0089,3.9974,4.0929,4.1948,4.1948,4.1491,4.1035,4.1035,4.0544,4.0096,4.0096,4.0096,4.0096,4.0096,4.0096,4.0096,4.0096,4.0096,4.0096,4.0096,4.0096,4.0096,4.0096,4.0096,4.0096,4.0096,4.0096,4.0096,4.0096,3.9994,3.9317,3.7821,3.7168,3.6169,3.4726,3.4556,3.4126,3.3341,3.3675,3.3857,3.3857,3.4848,3.4999,3.4394,3.5141,3.5089,2.5147,2.6011,0.0,0.0,0.0,0.0,0.0,0.0,0.0,0.0,0.0,0.0,0.0,0.0,0.0,0.0,0.0,0.0,0.0,0.0,0.0,0.0,0.0,0.0,0.0,0.0,0.0,0.0,0.0,0.0,0.0,0.0,0.0,0.0,3.766,3.7096,3.6718,3.666,3.74,3.8948,3.8168,3.8007,3.8386,3.833,3.8525,3.8908,0.0,3.9705,4.0096,4.0096,4.0096,4.0096,4.0096,3.9833,3.9463,3.9463,3.9463,3.9516,3.9952,4.0096,4.002,3.9584,3.9463,3.9385,3.8968,3.9336,3.9894,3.9894,4.0733,4.1594,4.1594,4.1695,4.1694,4.1288,4.0933,4.0578,4.0197,4.0096,4.0096,4.0096,4.0096,4.0096,4.0096,4.0096,4.0096,4.0096,4.0096,4.0096,4.0096,4.0096,4.0096,4.0096,4.0096,4.0096,4.0096,4.0096,3.9462,3.799,3.6806,3.5842,3.5131,3.4709,3.4336,3.3998,3.3805,3.3724,3.3724,3.4855,3.4914,3.4032,3.5667,3.5687,2.471,2.5703,0.0,0.0,0.0,0.0,0.0,0.0,0.0,0.0,0.0,0.0,0.0,0.0,0.0,0.0,0.0,0.0,0.0,0.0,0.0,0.0,0.0,0.0,0.0,0.0,0.0,0.0,0.0,0.0,0.0,0.0,0.0,0.0,3.6533,3.5771,3.5259,3.4696,3.5705,3.8212,3.7412,3.7406,3.8098,3.7898,3.8121,3.8663,3.9032,3.9516,4.0096,4.0096,4.0096,4.007,3.9901,3.9358,3.8635,3.8635,3.8635,3.8718,3.9358,3.9558,3.9454,3.8827,3.8635,3.8525,3.7978,3.8521,3.9355,3.9355,3.9893,4.0596,4.1115,4.1619,4.1849,4.1295,4.1057,4.0781,4.0231,4.0096,4.0096,4.0096,4.0096,4.0096,4.0096,4.0096,4.0096,4.0096,4.0096,4.0096,4.0096,4.0096,4.0096,4.0096,4.0096,4.0096,4.0096,3.9943,3.9343,3.8227,3.6738,3.5785,3.56,3.5064,3.4759,3.4759,3.4201,3.3931,3.3931,3.5029,3.4991,3.3969,3.6164,3.6308,2.5197,2.6217,0.0,0.0,0.0,0.0,0.0,0.0,0.0,0.0,0.0,0.0,0.0,0.0,0.0,0.0,0.0,0.0,0.0,0.0,0.0,0.0,0.0,0.0,0.0,0.0,0.0,0.0,0.0,0.0,0.0,0.0,0.0,0.0,0.0,3.371,3.3681,3.3621,3.4384,3.5926,3.5107,3.5094,3.579,3.7171,3.7822,3.795,3.9385,4.0045,4.0096,4.0096,4.0096,4.002,3.9289,3.8525,3.7863,3.7863,3.7863,3.7908,3.795,3.7966,3.7966,3.7892,3.7863,3.7863,3.7822,3.7783,3.7763,3.7763,3.8308,3.9343,4.1406,4.1506,4.1082,4.1033,4.0602,4.0163,4.0113,4.0096,4.0096,4.0096,4.0096,4.0096,4.0096,4.0096,4.0096,4.0096,4.0096,4.0096,4.0096,4.0096,4.0096,4.0096,4.0096,4.0096,4.0096,3.9462,3.9022,3.892,3.754,3.6366,3.5633,3.5549,3.5515,3.5515,3.5464,3.543,3.543,3.6036,3.6015,3.5475,3.6634,3.6869,2.4653,2.587,0.0,0.0,0.0,0.0,0.0,0.0,0.0,0.0,0.0,0.0,0.0,0.0,0.0,0.0,0.0,0.0,0.0,0.0,0.0,0.0,0.0,0.0,0.0,0.0,0.0,0.0,0.0,0.0,0.0,0.0,0.0,0.0,0.0,3.2717,3.2258,3.2255,3.295,3.4328,3.444,3.5091,3.6213,3.6794,3.7054,3.7144,3.869,3.9342,3.9394,3.9901,3.9808,3.9236,3.7958,3.7306,3.7054,3.7054,3.7054,3.713,3.7632,3.7793,3.7719,3.7219,3.7054,3.7054,3.7054,3.7296,3.7716,3.8212,3.884,3.9472,3.9864,4.0146,4.0385,4.0438,4.0276,4.01,4.0096,4.0096,4.0096,4.0096,4.0096,4.0096,4.0096,4.0096,4.0096,4.0096,4.0096,4.0096,4.0096,4.0096,4.0096,4.0096,4.0096,4.0096,4.0096,3.9842,3.9503,3.9022,3.8041,3.7347,3.7043,3.6586,3.6349,3.6349,3.5836,3.56,3.56,3.6139,3.6308,3.6118,3.7173,3.7524,2.4266,2.5364,0.0,0.0,0.0,0.0,0.0,0.0,0.0,0.0,0.0,0.0,0.0,0.0,0.0,0.0,0.0,0.0,0.0,0.0,0.0,0.0,0.0,0.0,0.0,0.0,0.0,0.0,0.0,0.0,0.0,0.0,0.0,0.0,0.0,0.0,3.1496,3.1511,3.2161,3.3502,3.3743,3.4697,3.6275,3.675,3.6843,3.6691,3.8213,3.8908,3.8908,3.9236,3.8897,3.8072,3.7008,3.6477,3.6244,3.6244,3.6244,3.6337,3.689,3.7055,3.6965,3.643,3.6244,3.6306,3.6523,3.694,3.7452,3.8259,3.8818,3.9065,3.8544,3.9025,3.9631,3.9675,3.9708,3.9796,4.0045,4.0096,4.0096,4.0096,4.0096,4.0096,4.0096,4.0096,4.0096,4.0096,4.0096,4.0096,4.0096,4.0096,4.0096,4.0096,4.0096,4.0096,4.0096,4.0096,3.9893,3.9377,3.887,3.8396,3.7922,3.733,3.7018,3.7018,3.6426,3.6118,3.6118,3.646,3.6643,3.6664,3.7506,3.7893,2.4208,0.0,0.0,0.0,0.0,0.0,0.0,0.0,0.0,0.0,0.0,0.0,0.0,0.0,0.0,0.0,0.0,0.0,0.0,0.0,0.0,0.0,0.0,0.0,0.0,0.0,0.0,0.0,0.0,0.0,0.0,0.0,0.0,0.0,0.0,0.0,3.1511,3.1511,3.2168,3.3484,3.2826,3.3577,3.5535,3.7081,3.7322,3.6661,3.8213,3.8881,3.8827,3.8092,3.7338,3.6615,3.6569,3.6134,3.5504,3.5504,3.5504,3.5504,3.5504,3.5504,3.5504,3.5504,3.5504,3.5651,3.6384,3.66,3.6783,3.7602,3.7822,3.7822,3.7806,3.8304,3.8786,3.8786,3.8849,3.9113,3.9927,4.0096,4.0096,4.0096,4.0096,4.0096,4.0096,4.0096,4.0096,4.0096,4.0096,4.0096,4.0096,4.0096,4.0096,4.0096,4.0096,4.0096,4.0096,4.0096,4.0096,4.0096,4.0096,3.9453,3.799,3.7664,3.7521,3.7538,3.7308,3.7209,3.7209,3.7209,3.7209,3.7228,3.7685,3.7893,2.4927,0.0,0.0,0.0,0.0,0.0,0.0,0.0,0.0,0.0,0.0,0.0,0.0,0.0,0.0,0.0,0.0,0.0,0.0,0.0,0.0,0.0,0.0,0.0,0.0,0.0,0.0,0.0,0.0,0.0,0.0,0.0,0.0,0.0,0.0,0.0,3.1511,3.1511,3.1929,3.2811,3.308,3.4012,3.5512,3.6012,3.609,3.5926,3.7456,3.7819,3.7277,3.7054,3.6813,3.6554,3.6023,3.5701,3.5504,3.5504,3.5504,3.5504,3.5504,3.5504,3.5504,3.5504,3.5504,3.5733,3.7055,3.744,3.7703,3.9049,3.9428,3.9279,3.8734,3.8716,3.8863,3.8863,3.8909,3.9113,3.9927,4.0096,4.0096,4.0096,4.0096,4.0096,4.0096,4.0096,4.0096,4.0096,4.0096,4.0096,4.0096,4.0096,4.0096,4.0096,4.0096,4.0096,4.0096,4.0096,4.0262,4.0631,4.0655,4.0466,4.0018,3.8903,3.8742,3.9729,3.807,3.7475,3.8043,3.781,3.7685,3.7702,3.8216,3.8465,0.0,0.0,0.0,0.0,0.0,0.0,0.0,0.0,0.0,0.0,0.0,0.0,0.0,0.0,0.0,0.0,0.0,0.0,0.0,0.0,0.0,0.0,0.0,0.0,0.0,0.0,0.0,0.0,0.0,0.0,0.0,0.0,0.0,0.0,0.0,0.0,3.1511,3.1511,3.1974,3.2901,3.2781,3.3694,3.5522,3.5861,3.5814,3.5569,3.6783,3.6733,3.5799,3.6384,3.6276,3.5752,3.5563,3.5504,3.5504,3.5504,3.5504,3.5504,3.5504,3.5504,3.5504,3.5504,3.5504,3.5733,3.6965,3.7338,3.7645,3.9183,3.961,3.9584,3.9437,3.9368,3.9289,3.8962,3.8908,3.9113,3.9927,4.0096,4.0096,4.0096,4.0096,4.0096,4.0096,4.0096,4.0096,4.0096,4.0096,4.0096,4.0096,4.0096,4.0096,4.0096,4.0096,4.0096,4.0096,4.0096,4.0254,4.0552,4.0577,4.0797,4.1246,4.0256,4.0108,4.0951,3.9515,3.8834,3.8996,3.8788,3.8525,3.8234,3.8546,3.8707,0.0,0.0,0.0,0.0,0.0,0.0,0.0,0.0,0.0,0.0,0.0,0.0,0.0,0.0,0.0,0.0,0.0,0.0,0.0,0.0,0.0,0.0,0.0,0.0,0.0,0.0,0.0,0.0,0.0,0.0,0.0,0.0,0.0,0.0,0.0,0.0,3.1406,3.1406,3.2049,0.0,3.2138,3.2871,3.5267,3.5982,3.5996,3.5432,3.6059,3.563,3.4611,3.5891,3.5675,3.4668,3.5265,3.5504,3.5504,3.5504,3.5504,3.5504,3.5504,3.5504,3.5504,3.5504,3.5504,3.5651,3.6399,3.663,3.7008,3.8481,3.8935,3.9166,3.9901,4.0096,3.9927,3.9166,3.9005,3.9193,3.9952,4.0096,4.0096,4.0096,4.0096,4.0096,4.0096,4.0096,4.0096,4.0096,4.0096,4.0096,4.0096,4.0096,4.0096,4.0096,4.0096,4.0096,4.0096,4.0096,4.0121,4.0154,4.0154,4.0666,4.175,4.1497,4.1411,4.1594,4.1279,4.0744,4.001,4.001,3.9588,3.8817,3.8817,3.8817,0.0,0.0,0.0,0.0,0.0,0.0,0.0,0.0,0.0,0.0,0.0,0.0,0.0,0.0,0.0,0.0,0.0,0.0,0.0,0.0,0.0,0.0,0.0,0.0,0.0,0.0,0.0,0.0,0.0,0.0,0.0,0.0,0.0,0.0,0.0,3.0088,3.0717,3.0731,3.1107,0.0,3.2168,3.2572,3.317,3.3848,3.4375,3.4698,3.4345,3.4299,3.4518,3.4827,3.5065,3.5295,3.5444,3.5504,3.5504,3.5504,3.5504,3.5504,3.5504,3.5504,3.5504,3.5504,3.5504,3.5651,3.6399,3.7024,3.7732,3.8635,3.9342,3.9876,4.0045,4.0096,4.0045,3.9876,3.9833,3.9901,4.007,4.0096,4.0096,4.0096,4.0096,4.0096,4.0096,4.0096,4.0096,4.0096,4.0096,4.0096,4.0096,4.0096,4.0096,4.0096,4.0096,4.0096,4.0096,4.0096,4.0286,4.0703,4.0726,4.1059,4.1771,4.115,4.1488,4.3029,4.1777,4.1003,4.0838,4.0838,4.0432,3.9643,3.9643,3.9643,0.0,0.0,0.0,0.0,0.0,0.0,0.0,0.0,0.0,0.0,0.0,0.0,0.0,0.0,0.0,0.0,0.0,0.0,0.0,0.0,0.0,0.0,0.0,0.0,0.0,0.0,0.0,0.0,0.0,0.0,0.0,0.0,0.0,0.0,2.9307,2.9415,3.0058,3.0357,3.0851,3.1511,3.1854,3.2183,3.2512,3.32,3.3679,3.3978,3.3649,3.3694,3.4008,3.4008,3.4397,3.5011,3.5011,3.522,3.5504,3.5504,3.5504,3.5504,3.5504,3.5504,3.5504,3.5504,3.5504,3.5554,3.5943,3.66,3.7397,3.8161,3.8924,3.961,3.9995,4.0096,4.0096,4.0096,4.0096,4.0096,4.0096,4.0096,4.0096,4.0096,4.0096,4.0096,4.0096,4.0096,4.0096,4.0096,4.0096,4.0096,4.0096,4.0096,4.0096,4.0096,4.0096,4.0096,4.0096,4.0096,4.0229,4.0497,4.0521,4.0774,4.1358,4.0972,4.149,4.3087,4.2552,4.2066,4.168,4.168,4.1258,4.0469,4.0469,4.0267,0.0,0.0,0.0,0.0,0.0,0.0,0.0,0.0,0.0,0.0,0.0,0.0,0.0,0.0,0.0,0.0,0.0,0.0,0.0,0.0,0.0,0.0,0.0,0.0,0.0,0.0,0.0,0.0,0.0,0.0,0.0,0.0,2.8237,2.9217,2.8712,2.8742,2.94,3.0028,3.0687,3.1331,3.1451,3.1795,3.2333,3.2901,3.3215,3.332,3.32,3.3215,3.332,3.332,3.3709,3.4354,3.4459,3.4831,3.534,3.5459,3.5504,3.5504,3.5504,3.5504,3.5504,3.5504,3.5504,3.5537,3.5636,3.6196,3.6964,3.7777,3.8541,3.9262,3.9927,4.0096,4.0096,4.0096,4.0096,4.0096,4.0096,4.0096,4.0096,4.0096,4.0096,4.0096,4.0096,4.0096,4.0096,4.0096,4.0096,4.0096,4.0096,4.0096,4.0096,4.0096,4.0096,4.0096,4.0096,4.0096,4.0096,4.0096,4.0096,4.0311,4.0733,4.0833,4.1424,4.2519,4.3087,4.2954,4.2149,4.2399,4.2084,4.1297,4.1297,4.0891,0.0,0.0,0.0,0.0,0.0,0.0,0.0,0.0,0.0,0.0,0.0,0.0,0.0,0.0,0.0,0.0,0.0,0.0,0.0,0.0,0.0,0.0,0.0,0.0,0.0,0.0,0.0,0.0,0.0,0.0,0.0,2.8572,2.8217,2.788,2.7779,2.8064,2.8727,2.9385,3.0028,3.0657,3.1212,3.1555,3.1645,3.1735,3.2079,3.2617,3.2019,3.2093,3.2647,3.2647,3.3036,3.3679,3.4279,3.4563,3.4713,3.5295,3.5504,3.5504,3.5504,3.5504,3.5504,3.5504,3.5504,3.5619,3.6244,3.701,3.7806,3.8553,3.9332,3.9952,4.007,4.0096,4.0096,4.0096,4.0096,4.0096,4.0096,4.0096,4.0096,4.0096,4.0096,4.0096,4.0096,4.0096,4.0096,4.0096,4.0096,4.0096,4.0096,4.0096,4.0096,4.0096,4.0096,4.0096,4.0096,4.0096,4.0096,4.0096,4.0096,4.0121,4.0204,4.0655,4.1223,4.1916,4.25,4.2373,4.1505,4.2738,4.2928,4.2139,4.2139,4.1717,0.0,0.0,0.0,0.0,0.0,0.0,0.0,0.0,0.0,0.0,0.0,0.0,0.0,0.0,0.0,0.0,0.0,0.0,0.0,0.0,0.0,0.0,0.0,0.0,0.0,0.0,0.0,0.0,0.0,0.0,2.8511,2.8189,2.787,2.7625,2.76,2.775,2.8049,2.8682,2.952,3.0507,3.1182,3.1511,3.1511,3.1511,3.166,3.1914,3.163,3.1869,3.2452,3.2093,3.2572,3.3529,3.3814,3.4189,3.4593,3.525,3.5504,3.5504,3.5504,3.5504,3.5504,3.5504,3.5504,3.5554,3.5894,3.6523,3.7203,3.7526,3.8173,3.8914,3.9315,3.9437,3.9437,3.9437,3.9437,3.9437,3.9437,3.9782,4.0096,4.0096,4.0096,4.0096,4.0096,4.0096,4.0096,4.0096,4.0096,4.0096,4.0096,4.0096,4.0096,4.0096,4.0096,4.0096,4.0096,4.0096,4.0096,4.0096,4.0096,4.0229,4.0546,4.0497,4.0891,4.1789,4.2382,4.2664,4.2577,4.3209,4.3331,4.2947,4.2506,4.1882,0.0,0.0,0.0,0.0,0.0,0.0,0.0,0.0,0.0,0.0,0.0,0.0,0.0,0.0,0.0,0.0,0.0,0.0,0.0,0.0,0.0,0.0,0.0,0.0,0.0,0.0,0.0,0.0,0.0,0.0,2.8271,2.7845,2.76,2.76,2.76,2.76,2.76,2.8412,2.949,3.0776,3.1256,3.1511,3.1511,3.1511,3.1511,3.1511,3.1511,3.178,3.2198,3.1705,3.2079,3.3036,3.3365,3.3799,3.4369,3.519,3.5504,3.5504,3.5504,3.5504,3.5504,3.5504,3.5504,3.5537,3.5733,3.6165,3.663,3.6843,3.7469,3.8206,3.8772,3.8908,3.8908,3.8908,3.8772,3.8663,3.8854,3.9516,4.0096,4.0096,4.0096,4.0096,4.0096,4.0096,4.0096,4.0096,4.0096,4.0096,4.0096,4.0096,4.0096,4.0096,4.0096,4.0096,4.0096,4.0096,4.0171,4.0286,4.0311,4.0552,4.111,4.0744,4.1007,4.2,4.248,4.2902,4.3286,4.3427,4.3515,4.3496,4.2873,4.2176,0.0,0.0,0.0,0.0,0.0,0.0,0.0,0.0,0.0,0.0,0.0,0.0,0.0,0.0,0.0,0.0,0.0,0.0,0.0,0.0,0.0,0.0,0.0,0.0,0.0,0.0,0.0,0.0,0.0,0.0,2.7605,2.7625,2.76,2.76,2.76,2.76,2.76,2.8903,3.0193,3.1451,3.1481,3.1511,3.1511,3.1511,3.1511,3.1511,3.1511,3.1525,3.1555,3.1511,3.154,3.1735,3.3006,3.3514,3.3709,3.5026,3.5504,3.5504,3.5504,3.5504,3.5504,3.5504,3.5504,3.5651,3.6337,3.6584,3.6768,3.7515,3.8274,3.8854,3.8881,3.8908,3.8908,3.8908,3.8374,3.8064,3.8745,3.9516,4.0096,4.0096,4.0096,4.0096,4.0096,4.0096,4.0096,4.0096,4.0096,4.0096,4.0096,4.0096,4.0096,4.0096,4.0096,4.0096,4.0096,4.0096,4.0311,4.0827,4.0856,4.1133,4.1729,4.1746,4.2018,4.2635,4.2674,4.2711,4.275,4.325,4.3515,4.3515,4.346,4.3002,0.0,0.0,0.0,0.0,0.0,0.0,0.0,0.0,0.0,0.0,0.0,0.0,0.0,0.0,0.0,0.0,0.0,0.0,0.0,0.0,0.0,0.0,0.0,0.0,0.0,0.0,0.0,0.0,0.0,0.0,2.7555,2.76,2.76,2.76,2.76,2.76,2.76,2.8933,2.9846,3.0298,3.1107,3.1271,3.0866,3.0866,3.0866,3.0866,3.0866,3.1092,3.1511,3.1511,3.1511,3.1585,3.2512,3.3125,3.3604,3.4502,3.513,3.5504,3.5504,3.5504,3.5504,3.5504,3.5504,3.5554,3.5799,3.5894,3.5943,3.6227,3.6508,3.6844,3.7306,3.7803,3.8189,3.8189,3.7587,3.7114,3.7365,3.8425,3.9489,3.9995,4.0096,4.0096,4.0096,4.0096,4.0096,4.0096,4.0096,4.0096,4.0096,4.0096,4.0096,4.0096,4.0096,4.0096,4.0096,4.0096,4.0336,4.0874,4.0903,4.1358,4.2342,4.2018,4.2264,4.3196,4.2883,4.2864,4.3214,4.341,4.3515,4.3496,4.2965,4.258,0.0,0.0,0.0,0.0,0.0,0.0,0.0,0.0,0.0,0.0,0.0,0.0,0.0,0.0,0.0,0.0,0.0,0.0,0.0,0.0,0.0,0.0,0.0,0.0,0.0,0.0,0.0,0.0,0.0,0.0,2.754,2.76,2.76,2.76,2.76,2.7705,2.7944,2.8828,2.9397,2.9621,3.0462,3.0642,3.0193,3.0417,3.0507,3.0507,3.0746,3.1077,3.1511,3.1511,3.1511,3.157,3.2228,3.2916,3.3574,3.4264,3.4906,3.5504,3.5504,3.5504,3.5504,3.5504,3.5504,3.5504,3.5504,3.5504,3.5504,3.5504,3.5668,3.5975,3.6477,3.7203,3.7793,3.7793,3.7397,3.7084,3.7336,3.8185,3.9059,3.9584,3.9927,4.0096,4.0096,4.0096,4.0096,4.0096,4.0096,4.0096,4.0096,4.0096,4.0096,4.0096,4.0096,4.0096,4.0096,4.0096,4.0336,4.0874,4.0903,4.1446,4.2655,4.2322,4.2542,4.3479,4.316,4.3142,4.3515,4.3515,4.3515,4.3496,4.2947,4.269,0.0,0.0,0.0,0.0,0.0,0.0,0.0,0.0,0.0,0.0,0.0,0.0,0.0,0.0,0.0,0.0,0.0,0.0,0.0,0.0,0.0,0.0,0.0,0.0,0.0,0.0,0.0,0.0,0.0,2.6183,2.7525,2.76,2.76,2.76,2.76,2.7914,2.8562,2.8592,2.8921,2.9577,2.9592,2.9592,2.9592,3.0178,3.0447,3.0507,3.1152,3.1466,3.1511,3.1511,3.1511,3.157,3.2213,3.2901,3.3574,3.4234,3.4906,3.5504,3.5504,3.5504,3.5504,3.5504,3.5504,3.5504,3.5504,3.5504,3.5504,3.5504,3.6038,3.6584,3.6569,3.7144,3.7719,3.7793,3.7777,3.7978,3.8718,3.8881,3.8908,3.8935,3.9584,4.0096,4.0096,4.0096,4.0096,4.0096,4.0096,4.0096,4.0096,4.0096,4.0096,4.0096,4.0096,4.0096,4.0096,4.0096,4.0336,4.0874,4.0903,4.1446,4.2655,4.2674,4.2939,4.3497,4.3479,4.3479,4.3515,4.3515,4.3515,4.3515,4.3515,4.3515,2.5227,0.0,0.0,0.0,0.0,0.0,0.0,0.0,0.0,0.0,0.0,0.0,0.0,0.0,0.0,0.0,0.0,0.0,0.0,0.0,0.0,0.0,0.0,0.0,0.0,0.0,0.0,0.0,2.5615,2.6183,2.7525,2.76,2.76,2.76,2.76,2.769,2.7884,2.8353,2.8682,2.8876,2.9382,2.9367,2.8876,2.9041,2.9385,2.9849,3.0043,3.0657,3.1511,3.1511,3.1511,3.1525,3.1705,3.2467,3.3514,3.3709,3.4502,3.5504,3.5504,3.5504,3.5504,3.5504,3.5504,3.5504,3.5504,3.5504,3.5504,3.5504,3.5636,3.5926,3.6461,3.6368,3.643,3.7531,3.7368,3.7144,3.7933,3.8525,3.9086,3.9662,3.9952,4.0096,4.0096,4.0096,4.0096,4.0096,4.0096,4.0096,4.0096,4.0096,4.0096,4.0096,4.0096,4.0096,4.0096,4.0096,4.0336,4.0874,4.0903,4.1446,4.2655,4.2282,4.2503,4.3479,4.3124,4.3105,4.3515,4.3515,4.3515,4.3515,4.3515,4.3515,0.0,0.0,0.0,0.0,0.0,0.0,0.0,2.7663,0.0,0.0,0.0,0.0,0.0,0.0,0.0,0.0,0.0,0.0,0.0,0.0,0.0,0.0,0.0,0.0,0.0,0.0,0.0,0.0,2.5173,2.5779,2.7121,2.745,2.76,2.76,2.76,2.76,2.76,2.8004,2.8173,2.8173,2.8588,2.8573,2.8173,2.8472,2.8801,2.9205,2.9729,3.0402,3.1092,3.1391,3.1511,3.1511,3.1511,3.2138,3.3125,3.3395,3.4158,3.5115,3.54,3.5504,3.5504,3.5504,3.5504,3.5504,3.5504,3.5504,3.5504,3.5504,3.5504,3.5668,3.6415,3.6523,3.6768,3.7962,3.8161,3.8201,3.8652,3.9102,3.9437,3.9584,3.9876,4.0096,4.0096,4.0096,4.0096,4.0096,4.0096,4.0096,4.0096,4.0096,4.0096,4.0096,4.0096,4.0096,4.0096,4.0096,4.0229,4.0552,4.078,4.1335,4.2282,4.2223,4.2599,4.3479,4.3196,4.3196,4.3515,4.3515,4.3515,4.3515,4.3515,4.3515,0.0,0.0,0.0,0.0,0.0,0.0,2.8258,2.817,2.7936,0.0,0.0,0.0,0.0,0.0,0.0,0.0,0.0,0.0,0.0,0.0,0.0,0.0,0.0,0.0,0.0,0.0,2.4601,2.4679,2.4687,2.5247,2.6527,2.7165,2.7525,2.76,2.76,2.76,2.76,2.76,2.76,2.76,2.76,2.76,2.7615,2.8203,2.8532,2.8667,2.9879,3.0432,3.0552,3.1212,3.1511,3.1511,3.1511,3.1914,3.2587,3.3245,3.3903,3.4608,3.5265,3.5504,3.5504,3.5504,3.5504,3.5504,3.5504,3.5504,3.5504,3.5504,3.5504,3.5636,3.6306,3.701,3.7748,3.858,3.9315,3.9876,4.007,4.0096,3.9901,3.9166,3.961,4.0096,4.0096,4.0096,4.0096,4.0096,4.0096,4.0096,4.0096,4.0096,4.0096,4.0096,4.0096,4.0096,4.0096,4.0096,4.0096,4.0096,4.0601,4.1178,4.1789,4.2322,4.2884,4.3497,4.3515,4.3515,4.3515,4.3515,4.3515,4.3515,4.3515,4.3515,0.0,0.0,0.0,0.0,0.0,0.0,2.8435,2.8355,2.8224,0.0,0.0,0.0,0.0,0.0,0.0,0.0,0.0,0.0,0.0,0.0,0.0,0.0,0.0,0.0,0.0,0.0,2.5564,2.5284,2.5342,2.5749,2.6557,2.6707,2.7046,2.7585,2.76,2.76,2.76,2.76,2.76,2.76,2.76,2.76,2.76,2.7735,2.8094,2.8637,2.943,3.0043,3.0552,3.1212,3.1511,3.1511,3.1511,3.1914,3.2587,3.3245,3.3903,3.4608,3.5265,3.5504,3.5504,3.5504,3.5504,3.5504,3.5504,3.5504,3.5504,3.5504,3.5504,3.5537,3.5668,3.5814,3.629,3.769,3.8121,3.8596,3.9825,4.0096,4.0045,3.9901,3.9978,4.0096,4.0096,4.0096,4.0096,4.0096,4.0096,4.0096,4.0096,4.0096,4.0096,4.0096,4.0096,4.0096,4.0096,4.0096,4.0096,4.0096,4.0601,4.1178,4.1789,4.1916,4.2464,4.3479,4.3515,4.3515,4.3515,4.3515,4.3515,4.3515,4.3515,4.3515,0.0,0.0,0.0,2.7864,0.0,0.0,0.0,2.8694,2.8645,0.0,0.0,0.0,0.0,0.0,0.0,0.0,0.0,0.0,0.0,0.0,0.0,0.0,0.0,0.0,0.0,0.0,2.5686,2.4963,2.5334,2.5749,2.6078,2.6746,2.7255,2.7585,2.76,2.76,2.76,2.76,2.76,2.76,2.76,2.76,2.76,2.7959,2.8263,2.8652,2.9624,3.0223,3.0552,3.1212,3.1511,3.1511,3.1511,3.1705,3.2108,3.3125,3.3709,3.4128,3.516,3.5504,3.5504,3.5504,3.5504,3.5504,3.5504,3.5504,3.5504,3.5504,3.5504,3.5504,3.5504,3.5782,3.6352,3.7515,3.8092,3.8679,3.985,4.0096,4.0096,4.0096,4.0096,4.0096,4.0096,4.0096,4.0096,4.0096,4.0096,4.0096,4.0096,4.0096,4.0096,4.0096,4.0096,4.0096,4.0096,4.0096,4.0096,4.0096,4.0891,4.149,4.1789,4.2346,4.2922,4.3479,4.3515,4.3515,4.3515,4.3515,4.3515,4.3515,4.3515,4.3515,0.0,0.0,0.0,0.0,0.0,2.8575,0.0,0.0,0.0,0.0,0.0,0.0,0.0,0.0,0.0,0.0,0.0,0.0,0.0,0.0,0.0,0.0,0.0,0.0,0.0,0.0,2.5503,2.4632,2.496,2.527,2.5397,2.6557,2.727,2.7405,2.7525,2.76,2.76,2.76,2.76,2.76,2.76,2.76,2.7615,2.8278,2.8607,2.8667,2.9953,3.0507,3.0552,3.1212,3.1585,3.169,3.169,3.169,3.1854,3.32,3.3679,3.3858,3.5085,3.5504,3.5504,3.5504,3.5504,3.5504,3.5504,3.5504,3.5504,3.5504,3.5504,3.5504,3.5504,3.5943,3.66,3.7368,3.8133,3.8897,3.9705,3.9978,4.0096,4.0096,4.0096,4.0096,4.0096,4.0096,4.0096,4.0096,4.0096,4.0096,4.0096,4.0096,4.0096,4.0096,4.0096,4.0096,4.0096,4.0096,4.0096,4.0096,4.1059,4.1686,4.181,4.2885,4.3515,4.3515,4.3515,4.3515,4.3515,4.3515,4.3515,4.3515,4.3515,4.3515,0.0,0.0,0.0,0.0,2.817,0.0,0.0,0.0,0.0,0.0,0.0,0.0,0.0,0.0,0.0,0.0,0.0,0.0,0.0,0.0,0.0,0.0,0.0,0.0,0.0,0.0,0.0,2.5125,2.4317,2.4103,2.4679,2.5412,2.6093,2.6677,2.7285,2.76,2.76,2.76,2.76,2.76,2.76,2.76,2.7615,2.8278,2.8607,2.8667,2.9953,3.0507,3.0552,3.1212,3.1854,3.2378,3.2378,3.2378,3.2557,3.3873,3.4399,3.4503,3.5235,3.5504,3.5504,3.5504,3.5504,3.5504,3.5504,3.5504,3.5504,3.5504,3.5504,3.5504,3.5504,3.5554,3.5814,3.6569,3.7352,3.8149,3.8897,3.961,4.0096,4.0096,4.0096,4.0096,4.0096,4.0096,4.0096,4.0096,4.0096,4.0096,4.0096,4.0096,4.0096,4.0096,4.0096,4.0096,4.0096,4.0096,4.0096,4.0096,4.0672,4.1246,4.1789,4.2885,4.3515,4.3515,4.3515,4.3515,4.3515,4.3515,4.3515,4.3515,4.3515,4.3515,0.0,0.0,0.0,0.0,0.0,0.0,0.0,0.0,2.9137,0.0,0.0,0.0,0.0,0.0,0.0,0.0,0.0,0.0,0.0,0.0,0.0,0.0,0.0,0.0,0.0,0.0,0.0,0.0,0.0,2.447,2.5128,2.5824,2.6482,2.7165,2.745,2.76,2.76,2.76,2.76,2.76,2.76,2.7809,2.8188,2.8861,2.937,2.9759,3.0687,3.1077,3.1092,3.1391,3.1675,3.1959,3.2333,3.2751,3.32,3.4159,3.4503,3.4608,3.5265,3.5504,3.5504,3.5504,3.5504,3.5504,3.5504,3.5504,3.5504,3.5504,3.5504,3.5504,3.5504,3.5504,3.5701,3.6415,3.6859,3.7322,3.8104,3.887,3.9394,3.9394,3.9782,4.0096,4.0096,4.0096,4.0096,4.0096,4.0096,4.0096,4.0096,4.0096,4.0096,4.0096,4.0096,4.0096,4.0096,4.0096,4.0096,4.0096,4.0642,4.137,4.2282,4.2789,4.3178,4.3479,4.3515,4.3515,4.3515,4.3515,4.3515,4.3515,4.3515,4.3515,2.9365,0.0,0.0,0.0,0.0,0.0,0.0,0.0,0.0,0.0,0.0,0.0,0.0,0.0,0.0,0.0,0.0,0.0,0.0,0.0,0.0,0.0,0.0,0.0,0.0,0.0,0.0,0.0,2.4349,0.0,2.5031,2.5854,2.6542,2.7046,2.7405,2.76,2.76,2.76,2.769,2.7884,2.7884,2.8244,2.8891,2.9535,3.0088,3.0537,3.1212,3.1511,3.1511,3.1511,3.1615,3.1824,3.2303,3.2916,3.3574,3.4264,3.4623,3.4831,3.5325,3.5504,3.5504,3.5504,3.5504,3.5504,3.5504,3.5504,3.5504,3.5504,3.5651,3.5814,3.5814,3.5814,3.5958,3.6477,3.6615,3.6768,3.7338,3.823,3.8908,3.8908,3.9542,4.0096,4.0096,4.0096,4.0096,4.0096,4.0096,4.0096,4.0096,4.0096,4.0096,4.0096,4.0096,4.0096,4.0096,4.0096,4.0171,4.0311,4.0902,4.1656,4.2673,4.2845,4.3087,4.3479,4.3515,4.3515,4.3515,4.3515,4.3515,4.3515,4.3515,4.3515,0.0,0.0,0.0,2.9367,0.0,0.0,0.0,0.0,2.9509,0.0,0.0,0.0,0.0,0.0,0.0,0.0,0.0,0.0,0.0,0.0,0.0,0.0,0.0,0.0,0.0,0.0,0.0,2.4384,2.3915,2.364,2.3655,2.4926,2.5644,2.5674,2.6926,2.76,2.76,2.76,2.7929,2.8562,2.8562,2.8906,2.9592,3.0193,3.0477,3.0537,3.1212,3.1511,3.1511,3.1511,3.1884,3.2452,3.2497,3.2916,3.3574,3.4264,3.4906,3.5474,3.5489,3.5504,3.5504,3.5504,3.5504,3.5504,3.5504,3.5504,3.5504,3.5504,3.6006,3.6538,3.6538,3.6538,3.6584,3.6569,3.6615,3.6615,3.663,3.7815,3.8908,3.8908,3.9542,4.0096,4.0096,4.0096,4.0096,4.0096,4.0096,4.0096,4.0096,4.0096,4.0096,4.0096,4.0096,4.0096,4.0096,4.0096,4.0336,4.0833,4.1446,4.2059,4.2674,4.3196,4.3479,4.3515,4.3515,4.3515,4.3515,4.3515,4.3515,4.3515,4.3515,4.3515,0.0,0.0,3.1072,3.0584,0.0,0.0,0.0,0.0,0.0,0.0,0.0,0.0,0.0,0.0,0.0,0.0,0.0,0.0,0.0,0.0,0.0,0.0,0.0,0.0,0.0,0.0,0.0,2.3851,2.3333,2.337,0.0,2.5098,2.5809,2.6243,2.7136,2.7809,2.8248,2.8248,2.8592,2.925,2.925,2.9579,3.0193,3.0417,3.0746,3.1167,3.1406,3.1511,3.1511,3.1511,3.163,3.1884,3.2318,3.2647,3.2976,3.4099,3.4653,3.4891,3.5355,3.5504,3.5504,3.5504,3.5504,3.5504,3.5504,3.5504,3.5504,3.5504,3.5668,3.5975,3.6477,3.6615,3.6722,3.7279,3.7397,3.7397,3.7397,3.8173,3.8908,3.8908,3.9542,4.0096,4.0096,4.0096,4.0096,4.0096,4.0096,4.0096,4.0096,4.0096,4.0096,4.0096,4.0096,4.0096,4.0096,4.0096,4.0336,4.0874,4.1087,4.1643,4.2655,4.2883,4.3142,4.3479,4.3515,4.3515,4.3515,4.3515,4.3515,4.3515,4.3515,4.3515,3.1053,3.0772,0.0,3.0559,3.072,0.0,3.0617,0.0,0.0,0.0,0.0,0.0,0.0,0.0,0.0,0.0,0.0,0.0,0.0,0.0,0.0,0.0,0.0,0.0,0.0,0.0,2.329,2.3836,2.3348,2.3475,0.0,0.0,2.5914,2.6572,2.7255,2.7929,2.8592,2.8607,2.9041,2.9909,2.9909,3.0253,3.0866,3.0866,3.1077,3.1511,3.1511,3.1511,3.1511,3.1511,3.1511,3.154,3.1974,3.2138,3.2333,3.3934,3.4668,3.4906,3.5355,3.5504,3.5504,3.5504,3.5504,3.5504,3.5504,3.5504,3.5504,3.5504,3.5701,3.6006,3.6477,3.6813,3.716,3.769,3.7793,3.7793,3.7793,3.8386,3.8908,3.8908,3.9542,4.0096,4.0096,4.0096,4.0096,4.0096,4.0096,4.0096,4.0096,4.0096,4.0096,4.0096,4.0096,4.0096,4.0096,4.0096,4.0417,4.1178,4.1223,4.175,4.2939,4.2976,4.3433,4.4342,4.379,4.3773,4.4342,4.379,4.3515,4.3515,4.3515,4.3515]}]]